Date StartTime U_cm/s V_cm/s W_cm/s Ustd_cm/s Vstd_cm/s Wstd_cm/s Uvar_(cm/s)^2 Vvar_(cm/s)^2 Wvar_(cm/s)^2 KE_(m/s)^2 TurbulentKE_(m/s)^2 HorizWindSpeed_cm/s FrictionSpeec_cm/s DragCoef SpeedOfSound_m/s SonicTemperature_C Pressure_mb 
01/05/2015  00:00:00      -56.396      -19.784       -5.680       16.775       11.173       10.867      281.402      124.834      118.102        0.206        0.026       59.766        8.733        0.021      332.694        1.523      872.116
01/05/2015  00:01:00     -111.378      -40.715      -20.514       21.800       19.218       11.664      475.224      369.318      136.059        0.773        0.049      118.586        6.180        0.003      332.597        1.364      872.126
01/05/2015  00:02:00      -93.539      -18.871      -15.738       24.012       19.773       11.227      576.564      390.985      126.046        0.522        0.055       95.423        3.078        0.001      332.570        1.319      872.143
01/05/2015  00:03:00      -69.853      -28.479      -12.048       24.301       19.069       14.000      590.542      363.639      196.004        0.349        0.058       75.436       10.117        0.018      332.620        1.401      872.140
01/05/2015  00:04:00      -60.672      -31.426       -4.219       32.670       19.108       18.019     1067.347      365.134      324.694        0.322        0.088       68.328       17.760        0.068      332.581        1.337      872.139
01/05/2015  00:05:00      -60.574      -13.886      -11.226       31.789       19.975        8.430     1010.512      398.998       71.065        0.273        0.074       62.145        8.214        0.017      332.588        1.347      872.128
01/05/2015  00:06:00      -82.204      -25.950      -10.611       19.978       16.643       11.855      399.107      276.992      140.551        0.418        0.041       86.202       11.244        0.017      332.579        1.333      872.123
01/05/2015  00:07:00      -38.213        5.007       -0.188       16.613       14.608       11.354      275.976      213.406      128.918        0.105        0.031       38.539        6.380        0.027      332.652        1.454      872.114
01/05/2015  00:08:00      -10.079      -14.546        4.596       15.813       11.774        9.544      250.058      138.628       91.082        0.041        0.024       17.697       11.259        0.405      332.665        1.476      872.121
01/05/2015  00:09:00      -50.015      -11.153       -5.817       12.270        9.062        8.930      150.544       82.120       79.752        0.149        0.016       51.244        6.954        0.018      332.657        1.463      872.127
01/05/2015  00:10:00      -36.974        2.177       -8.330       19.222        5.481        5.248      369.490       30.043       27.537        0.093        0.021       37.038        5.740        0.024      332.646        1.445      872.135
01/05/2015  00:11:00       19.010        7.854        0.587       11.067        6.104        6.213      122.488       37.254       38.601        0.031        0.010       20.568        4.488        0.048      332.832        1.751      872.138
01/05/2015  00:12:00       14.309       18.621        1.912       11.577       10.390        6.298      134.033      107.958       39.661        0.042        0.014       23.484        6.679        0.081      332.850        1.779      872.147
01/05/2015  00:13:00        8.501       50.546       -7.802       10.289        8.303        5.068      105.873       68.944       25.682        0.144        0.010       51.255        3.925        0.006      332.919        1.895      872.147
01/05/2015  00:14:00       -3.398       58.326      -11.404        8.924        8.945        7.260       79.644       80.012       52.710        0.188        0.011       58.425        2.654        0.002      333.028        2.075      872.137
01/05/2015  00:15:00        6.580       57.576      -11.073        7.837        9.387        6.219       61.414       88.124       38.673        0.183        0.009       57.951        1.728        0.001      333.038        2.093      872.135
01/05/2015  00:16:00       13.868       65.489       -8.039        7.016       11.085        7.884       49.231      122.870       62.153        0.239        0.012       66.941        5.873        0.008      333.052        2.118      872.127
01/05/2015  00:17:00        8.603       89.812      -15.104        8.871       13.090        7.113       78.691      171.339       50.592        0.433        0.015       90.223        4.577        0.003      333.103        2.199      872.123
01/05/2015  00:18:00       11.957       87.515      -13.286       11.129       15.680        8.129      123.849      245.852       66.081        0.421        0.022       88.328        8.524        0.009      333.194        2.348      872.112
01/05/2015  00:19:00       26.186       70.954      -12.059       12.011       13.314        8.612      144.267      177.265       74.170        0.313        0.020       75.632        6.335        0.007      333.142        2.263      872.101
01/05/2015  00:20:00       14.528       24.612        0.119       14.245       20.831       12.446      202.922      433.950      154.912        0.080        0.040       28.579        8.324        0.085      333.045        2.104      872.094
01/05/2015  00:21:00       14.625       41.845       -8.680       14.153       13.160       11.791      200.311      173.181      139.039        0.128        0.026       44.327       10.660        0.058      333.118        2.223      872.099
01/05/2015  00:22:00        7.835       45.064       -7.985       12.002       10.896        5.503      144.055      118.718       30.285        0.122        0.015       45.740        4.212        0.008      333.148        2.273      872.104
01/05/2015  00:23:00        1.968       44.818       -4.378        6.723        5.864        4.011       45.198       34.384       16.087        0.106        0.005       44.861        3.319        0.005      333.174        2.317      872.100
01/05/2015  00:24:00      -23.235       27.000       -5.362       22.259       14.665        5.048      495.460      215.069       25.478        0.102        0.037       35.621        7.027        0.039      332.911        1.882      872.106
01/05/2015  00:25:00      -46.838        3.484       -0.024        8.413        8.029        6.405       70.770       64.471       41.028        0.119        0.009       46.967        3.106        0.004      332.733        1.587      872.109
01/05/2015  00:26:00      -25.491       -3.497        1.045       10.925        6.992        9.408      119.348       48.893       88.510        0.046        0.013       25.729        5.458        0.045      333.009        2.043      872.113
01/05/2015  00:27:00       19.739       17.155        0.202       12.048       14.644       10.799      145.165      214.433      116.609        0.058        0.024       26.151        9.977        0.146      333.143        2.264      872.124
01/05/2015  00:28:00       14.863       11.612       -4.100        9.993       13.907        8.292       99.859      193.413       68.761        0.037        0.018       18.861        3.807        0.041      333.134        2.249      872.131
01/05/2015  00:29:00        0.111       47.429       -9.979        3.641        8.291        4.347       13.260       68.735       18.895        0.122        0.005       47.429        3.970        0.007      333.217        2.387      872.131
01/05/2015  00:30:00        1.845       49.765       -5.604        5.695        6.586        3.981       32.433       43.371       15.848        0.130        0.005       49.799        2.803        0.003      333.250        2.442      872.143
01/05/2015  00:31:00       15.487       24.222       -5.138        8.644       29.302        7.172       74.723      858.601       51.434        0.092        0.049       28.750        7.140        0.062      333.208        2.370      872.151
01/05/2015  00:32:00        1.822       23.285       -6.299        9.733       11.118        7.282       94.740      123.612       53.030        0.043        0.014       23.356        5.945        0.065      333.205        2.366      872.154
01/05/2015  00:33:00      -19.995       -3.031        2.522       16.541       26.953       11.683      273.613      726.483      136.481        0.078        0.057       20.224        8.363        0.171      332.924        1.904      872.157
01/05/2015  00:34:00      -37.670      -23.978       -7.931       10.682       13.264        6.727      114.100      175.928       45.247        0.120        0.017       44.654        6.254        0.020      332.699        1.531      872.155
01/05/2015  00:35:00      -38.290      -33.477       -6.397       22.070       14.112       11.681      487.069      199.149      136.446        0.173        0.041       50.861        8.586        0.028      332.512        1.223      872.143
01/05/2015  00:36:00     -106.015      -12.690      -17.802       23.610       15.780        9.413      557.423      249.021       88.614        0.631        0.045      106.772        9.088        0.007      332.423        1.076      872.122
01/05/2015  00:37:00     -102.496       -4.342      -16.734       23.249        9.137        8.282      540.506       83.494       68.590        0.575        0.035      102.588        4.358        0.002      332.490        1.187      872.100
01/05/2015  00:38:00      -77.326       -8.101      -12.743       12.445        9.965        6.597      154.873       99.308       43.519        0.325        0.015       77.749        2.009        0.001      332.475        1.161      872.085
01/05/2015  00:39:00      -66.146      -24.862      -10.944       11.558       10.994        8.863      133.587      120.875       78.560        0.272        0.017       70.664        4.388        0.004      332.509        1.217      872.077
01/05/2015  00:40:00     -105.761      -16.743      -11.597       23.783       15.413       13.371      565.638      237.557      178.783        0.629        0.049      107.078       10.828        0.010      332.454        1.127      872.073
01/05/2015  00:41:00     -130.486      -16.157      -21.563       16.136       11.977       11.099      260.359      143.438      123.187        0.914        0.026      131.483        8.938        0.005      332.408        1.050      872.067
01/05/2015  00:42:00     -133.157       -8.049      -22.110       23.096        9.864        9.429      533.409       97.294       88.899        0.950        0.036      133.400        7.942        0.004      332.480        1.171      872.059
01/05/2015  00:43:00      -92.741      -32.635      -17.422       22.077       19.370       15.009      487.380      375.200      225.262        0.553        0.054       98.315       15.146        0.024      332.366        0.982      872.050
01/05/2015  00:44:00     -102.162      -26.650      -19.842       25.689       20.004       16.753      659.903      400.179      280.646        0.644        0.067      105.580       12.487        0.014      332.445        1.113      872.050
01/05/2015  00:45:00     -113.187      -34.436      -20.949       21.304       25.682       12.806      453.841      659.591      163.984        0.786        0.064      118.310       10.331        0.008      332.341        0.940      872.054
01/05/2015  00:46:00     -111.991      -43.854      -19.501       21.309       20.451       19.838      454.070      418.236      393.543        0.806        0.063      120.271       12.142        0.010      332.279        0.839      872.054
01/05/2015  00:47:00     -130.275      -39.394       -6.559       35.941       20.212       17.885     1291.790      408.533      319.858        1.029        0.101      136.101       17.586        0.017      332.319        0.904      872.046
01/05/2015  00:48:00     -124.623      -25.917       -5.422       37.295       22.938       17.001     1390.949      526.170      289.046        0.922        0.110      127.290       16.006        0.016      332.372        0.991      872.037
01/05/2015  00:49:00     -110.388      -43.655       -7.319       32.316       24.053       16.828     1044.344      578.551      283.176        0.803        0.095      118.706       14.969        0.016      332.348        0.952      872.029
01/05/2015  00:50:00      -78.154      -37.112       -0.911       32.297       28.096       18.938     1043.101      789.410      358.663        0.484        0.110       86.518       13.715        0.025      332.360        0.972      872.022
01/05/2015  00:51:00      -99.008      -15.550       -8.361       19.682       17.202       14.880      387.388      295.900      221.405        0.551        0.045      100.222        8.106        0.007      332.467        1.149      872.018
01/05/2015  00:52:00     -106.391      -12.855       -2.601       32.379       17.166       14.743     1048.374      294.687      217.358        0.653        0.078      107.165       14.028        0.017      332.585        1.343      872.018
01/05/2015  00:53:00     -116.708      -18.766      -14.480       33.360       17.396       14.265     1112.910      302.633      203.480        0.790        0.081      118.207       15.077        0.016      332.603        1.372      872.013
01/05/2015  00:54:00      -97.450      -39.986       -6.108       27.125       19.846       16.968      735.743      393.864      287.922        0.627        0.071      105.334       17.064        0.026      332.543        1.273      872.014
01/05/2015  00:55:00     -104.432      -35.686       -8.575       24.754       18.166       14.743      612.741      329.991      217.363        0.671        0.058      110.361       12.421        0.013      332.553        1.290      872.018
01/05/2015  00:56:00     -125.830      -31.929      -16.047       23.033       17.585       16.868      530.524      309.240      284.522        0.912        0.056      129.818       13.699        0.011      332.592        1.355      872.029
01/05/2015  00:57:00     -120.019      -36.730      -16.021       23.274       20.762       16.418      541.702      431.057      269.545        0.863        0.062      125.514       14.712        0.014      332.549        1.282      872.024
01/05/2015  00:58:00     -121.241      -28.198      -12.940       21.579       18.227       13.490      465.643      332.239      181.972        0.832        0.049      124.477       12.061        0.009      332.541        1.271      872.019
01/05/2015  00:59:00     -131.919      -27.109      -19.224       15.652       13.498        7.523      244.987      182.207       56.588        0.950        0.024      134.676        6.071        0.002      332.619        1.398      872.013
01/05/2015  01:00:00     -109.158       -6.765      -11.996       29.464       15.173       14.570      868.138      230.228      212.275        0.671        0.066      109.367       14.948        0.019      332.587        1.346      872.018
01/05/2015  01:01:00     -114.471      -12.439      -13.955       13.697       12.552        9.962      187.601      157.552       99.248        0.695        0.022      115.145        7.683        0.004      332.682        1.506      872.023
01/05/2015  01:02:00      -91.982       -3.047       -9.734       14.793       13.917        8.736      218.829      193.675       76.310        0.453        0.024       92.032        7.523        0.007      332.596        1.363      872.032
01/05/2015  01:03:00      -86.126      -19.665      -11.779       12.670       12.969        9.821      160.534      168.190       96.449        0.418        0.021       88.343        7.955        0.008      332.588        1.347      872.037
01/05/2015  01:04:00     -111.126      -15.183      -14.963       26.680       13.490       10.330      711.817      181.980      106.717        0.690        0.050      112.158        7.978        0.005      332.533        1.257      872.048
01/05/2015  01:05:00     -116.784      -17.334       -9.468       27.728       16.608       19.204      768.836      275.819      368.800        0.772        0.071      118.063       18.944        0.026      332.523        1.241      872.055
01/05/2015  01:06:00     -124.637      -10.127       -7.479       23.657       16.354       13.097      559.665      267.457      171.522        0.835        0.050      125.048       11.694        0.009      332.613        1.390      872.058
01/05/2015  01:07:00      -71.737      -12.231       -2.051       27.478       16.853       14.076      755.051      284.014      198.133        0.327        0.062       72.772       13.572        0.035      332.505        1.211      872.056
01/05/2015  01:08:00      -68.835      -16.972       -2.135       29.193       17.202       13.236      852.219      295.901      175.199        0.318        0.066       70.896       15.702        0.049      332.540        1.267      872.061
01/05/2015  01:09:00      -99.201      -28.643       -6.338       16.589       11.308       10.120      275.196      127.869      102.408        0.560        0.025      103.254        8.758        0.007      332.641        1.435      872.056
01/05/2015  01:10:00     -113.692      -18.959      -13.529        9.022       10.670        7.708       81.391      113.849       59.413        0.686        0.013      115.262        4.002        0.001      332.736        1.595      872.051
01/05/2015  01:11:00      -99.970       -9.669       -8.474       14.794       10.235        9.385      218.865      104.750       88.076        0.529        0.021      100.437        9.014        0.008      332.617        1.396      872.046
01/05/2015  01:12:00      -91.718      -15.502       -6.887       22.377       15.038       13.247      500.726      226.141      175.493        0.480        0.045       93.019       13.033        0.020      332.572        1.321      872.046
01/05/2015  01:13:00      -66.394      -14.098        3.526       30.713       19.401       19.579      943.260      376.404      383.322        0.316        0.085       67.874       17.901        0.070      332.552        1.288      872.044
01/05/2015  01:14:00      -73.704      -10.676        2.452       24.012       21.645       18.138      576.552      468.494      328.975        0.346        0.069       74.473       15.119        0.041      332.499        1.201      872.052
01/05/2015  01:15:00     -102.639      -14.427       -8.167       21.352       13.709       12.190      455.887      187.937      148.599        0.580        0.040      103.648       12.239        0.014      332.532        1.256      872.054
01/05/2015  01:16:00     -108.149       -7.321       -7.156       15.643       11.262       11.903      244.714      126.831      141.672        0.616        0.026      108.396        5.783        0.003      332.568        1.316      872.057
01/05/2015  01:17:00      -76.961      -16.921       -0.889       21.947       15.635       13.873      481.657      244.457      192.449        0.356        0.046       78.799       12.366        0.025      332.434        1.094      872.077
01/05/2015  01:18:00     -109.548       -8.796      -11.139       17.368       12.220       10.716      301.637      149.334      114.822        0.638        0.028      109.900       10.393        0.009      332.414        1.061      872.092
01/05/2015  01:19:00     -115.064      -11.300      -15.331       24.132       12.687       10.727      582.339      160.964      115.076        0.723        0.043      115.617       10.462        0.008      332.403        1.043      872.121
01/05/2015  01:20:00     -144.115      -10.628      -20.824       22.443       16.105       15.283      503.682      259.375      233.562        1.116        0.050      144.506       13.482        0.009      332.249        0.789      872.157
01/05/2015  01:21:00      -95.939      -12.179      -11.654       19.561       27.342       18.689      382.627      747.570      349.262        0.548        0.074       96.709       12.792        0.017      332.186        0.685      872.191
01/05/2015  01:22:00      -89.761       -4.837      -10.595       22.946       20.133       12.125      526.502      405.336      147.009        0.464        0.054       89.892       12.651        0.020      332.221        0.742      872.211
01/05/2015  01:23:00      -93.290        9.129      -14.074       13.474       15.949       14.494      181.539      254.384      210.084        0.482        0.032       93.736       10.083        0.012      332.327        0.919      872.226
01/05/2015  01:24:00      -80.755       -2.437       -9.449       21.298       23.180       11.835      453.614      537.320      140.062        0.387        0.057       80.791        6.548        0.007      332.291        0.859      872.239
01/05/2015  01:25:00     -111.851       -4.051      -11.866       38.370       43.779       24.321     1472.275     1916.589      591.523        0.832        0.199      111.925       15.219        0.018      332.394        1.028      872.261
01/05/2015  01:26:00      -64.994       -3.992       -4.500       40.741       31.362       20.033     1659.869      983.593      401.328        0.365        0.152       65.116       16.843        0.067      332.468        1.149      872.273
01/05/2015  01:27:00      -43.748      -15.783       -4.545       18.805       20.482       13.383      353.636      419.530      179.101        0.157        0.048       46.508       10.876        0.055      332.634        1.424      872.283
01/05/2015  01:28:00      -56.994      -33.363      -11.942       15.151       18.935       12.324      229.544      358.526      151.870        0.262        0.037       66.040        9.329        0.020      332.310        0.890      872.284
01/05/2015  01:29:00      -55.471      -15.860       -3.936       23.878       23.087       18.826      570.150      533.009      354.431        0.240        0.073       57.694       13.882        0.058      332.334        0.928      872.287
01/05/2015  01:30:00      -73.041      -19.927      -12.352       24.250       31.145       17.378      588.076      970.013      301.979        0.387        0.093       75.711        4.305        0.003      332.344        0.945      872.283
01/05/2015  01:31:00      -75.052      -18.636       -8.701       26.280       27.676       15.629      690.631      765.942      244.257        0.388        0.085       77.331       13.682        0.031      332.365        0.980      872.283
01/05/2015  01:32:00      -71.745      -29.048      -12.950       13.317       21.083       11.708      177.339      444.502      137.071        0.346        0.038       77.402        5.557        0.005      332.317        0.901      872.290
01/05/2015  01:33:00     -107.238      -23.953      -17.825       16.882       18.706       11.578      284.990      349.914      134.060        0.658        0.038      109.880        7.867        0.005      332.352        0.960      872.305
01/05/2015  01:34:00      -94.834      -25.786       -8.968       22.569       23.136       14.062      509.370      535.293      197.747        0.549        0.062       98.277       15.024        0.023      332.307        0.884      872.320
01/05/2015  01:35:00      -91.858      -39.225      -14.485       13.445       14.861       13.188      180.762      220.860      173.936        0.538        0.029       99.882        9.157        0.008      332.222        0.744      872.347
01/05/2015  01:36:00     -117.327      -19.351      -20.247       18.882       17.900       13.967      356.535      320.401      195.073        0.771        0.044      118.912       12.658        0.011      332.175        0.667      872.356
01/05/2015  01:37:00     -127.196      -22.326      -19.164       11.299       14.866       11.182      127.667      220.997      125.047        0.876        0.024      129.140        4.301        0.001      332.205        0.717      872.362
01/05/2015  01:38:00     -107.730      -13.296      -22.974       14.245       13.481       10.674      202.916      181.731      113.925        0.640        0.025      108.548        8.383        0.006      332.194        0.697      872.379
01/05/2015  01:39:00      -86.763      -12.671      -15.835       19.052       30.763       17.963      362.994      946.352      322.657        0.479        0.082       87.683       14.049        0.026      332.155        0.634      872.393
01/05/2015  01:40:00      -93.485       -3.356      -15.355       27.568       25.922       14.615      759.982      671.969      213.609        0.532        0.082       93.545        9.829        0.011      332.206        0.718      872.413
01/05/2015  01:41:00     -107.620        2.501      -16.610       27.881       28.370       15.366      777.344      804.841      236.114        0.684        0.091      107.649       14.276        0.018      332.221        0.743      872.433
01/05/2015  01:42:00      -77.307      -28.643       -5.672       31.604       31.561       22.354      998.816      996.088      499.698        0.466        0.125       82.442       15.090        0.034      332.201        0.709      872.441
01/05/2015  01:43:00      -86.237       -9.349      -11.761       24.643       31.990       20.288      607.295     1023.340      411.586        0.485        0.102       86.742       14.094        0.026      332.331        0.924      872.435
01/05/2015  01:44:00      -84.187       -7.552      -18.451       15.288       15.185       11.230      233.735      230.588      126.110        0.404        0.030       84.525        7.973        0.009      332.564        1.307      872.421
01/05/2015  01:45:00      -78.541      -24.022      -10.987        9.778       12.219        9.838       95.607      149.305       96.787        0.360        0.017       82.132        5.829        0.005      332.458        1.133      872.411
01/05/2015  01:46:00      -79.787      -29.901      -16.716       13.086       26.858       12.220      171.236      721.363      149.333        0.429        0.052       85.206        9.139        0.012      332.435        1.096      872.405
01/05/2015  01:47:00     -108.095      -28.990      -16.072       25.637       23.744       19.409      657.250      563.772      376.695        0.719        0.080      111.915       13.384        0.014      332.216        0.735      872.409
01/05/2015  01:48:00      -94.417      -36.253      -15.156       25.474       23.692       15.474      648.932      561.332      239.434        0.595        0.072      101.138       10.079        0.010      332.205        0.717      872.408
01/05/2015  01:49:00     -109.784      -30.731      -18.325       18.127       18.122       14.257      328.591      328.408      203.261        0.710        0.043      114.004        9.204        0.007      332.189        0.691      872.411
01/05/2015  01:50:00     -118.607       -9.744      -17.948       15.977       18.914       10.725      255.257      357.754      115.019        0.761        0.036      119.007        8.890        0.006      332.178        0.673      872.402
01/05/2015  01:51:00     -109.855       -9.522      -22.572       12.037       15.328        9.803      144.891      234.940       96.107        0.657        0.024      110.267        8.291        0.006      332.216        0.734      872.401
01/05/2015  01:52:00     -108.383      -26.010      -17.318       18.154       18.954       14.102      329.555      359.262      198.880        0.681        0.044      111.460       12.047        0.012      332.149        0.624      872.410
01/05/2015  01:53:00     -125.252       -2.398      -21.187       24.892       19.255       16.070      619.608      370.754      258.251        0.870        0.062      125.275       11.243        0.008      332.182        0.679      872.419
01/05/2015  01:54:00     -109.994      -12.268      -17.956       25.758       26.757       17.645      663.463      715.933      311.330        0.713        0.085      110.676       18.501        0.028      332.149        0.625      872.430
01/05/2015  01:55:00      -77.531      -22.950       -8.910       35.528       36.341       20.684     1262.230     1320.645      427.843        0.481        0.151       80.856       10.761        0.018      332.167        0.654      872.431
01/05/2015  01:56:00      -70.024      -11.770      -13.509       21.342       20.982       15.556      455.466      440.241      241.993        0.318        0.057       71.006        6.577        0.009      332.193        0.698      872.434
01/05/2015  01:57:00      -23.036       -7.538       -3.666       13.771       16.852       11.249      189.629      284.001      126.542        0.060        0.030       24.238        6.909        0.081      332.294        0.863      872.433
01/05/2015  01:58:00      -12.255      -36.275       -2.322       15.024       11.734       13.910      225.719      137.690      193.486        0.101        0.028       38.289        9.109        0.057      332.339        0.935      872.440
01/05/2015  01:59:00      -54.228      -38.008       -8.447       29.402       15.892       14.666      864.458      252.570      215.083        0.289        0.067       66.222       14.098        0.045      332.243        0.780      872.454
01/05/2015  02:00:00      -88.149      -29.754      -14.366       13.396       17.198       11.466      179.464      295.782      131.459        0.473        0.030       93.035        3.972        0.002      332.150        0.627      872.475
01/05/2015  02:01:00      -76.155      -27.471      -17.230       13.680       12.796        9.908      187.155      163.747       98.174        0.365        0.022       80.958        8.891        0.012      332.155        0.634      872.502
01/05/2015  02:02:00      -84.579      -33.139      -15.979       11.682       19.202        9.903      136.472      368.728       98.063        0.456        0.030       90.840        9.403        0.011      332.145        0.618      872.540
01/05/2015  02:03:00      -88.692      -27.952      -10.976       18.196       17.011       10.101      331.081      289.365      102.034        0.475        0.036       92.992        8.735        0.009      332.167        0.654      872.572
01/05/2015  02:04:00      -71.453       -3.594      -16.213        9.258       11.614        7.557       85.708      134.896       57.116        0.283        0.014       71.543        5.422        0.006      332.367        0.984      872.585
01/05/2015  02:05:00      -48.219       -0.190       -7.104       16.823       11.454        7.513      283.021      131.191       56.440        0.142        0.024       48.220        7.867        0.027      332.726        1.577      872.584
01/05/2015  02:06:00      -40.108       -1.504       -6.271       13.381       10.817        8.518      179.050      117.015       72.565        0.101        0.018       40.136        5.985        0.022      332.982        1.999      872.584
01/05/2015  02:07:00      -54.264      -19.148      -13.357        9.548       17.238        7.091       91.157      297.147       50.276        0.196        0.022       57.543        6.351        0.012      332.499        1.200      872.582
01/05/2015  02:08:00      -49.621      -25.250      -13.351       15.147       14.251       10.805      229.429      203.104      116.742        0.191        0.027       55.676        3.016        0.003      332.347        0.951      872.568
01/05/2015  02:09:00      -24.601      -34.192      -15.079       14.698       11.834       10.781      216.022      140.053      116.227        0.124        0.024       42.123        5.791        0.019      332.382        1.007      872.563
01/05/2015  02:10:00        1.135        4.944       -6.328       16.176       24.175        8.327      261.663      584.454       69.342        0.049        0.046        5.072        6.881        1.840      333.031        2.080      872.553
01/05/2015  02:11:00       15.748       22.673        4.377       11.871       12.805        8.753      140.913      163.962       76.610        0.058        0.019       27.606        7.813        0.080      333.101        2.195      872.552
01/05/2015  02:12:00        7.365      -13.152       -2.016        7.008       10.022        4.499       49.109      100.435       20.241        0.020        0.008       15.073        2.477        0.027      332.987        2.006      872.562
01/05/2015  02:13:00      -42.807      -28.346      -12.283       24.572       11.097        9.729      603.768      123.147       94.660        0.180        0.041       51.341        8.739        0.029      332.385        1.012      872.577
01/05/2015  02:14:00      -58.520      -10.540      -10.671       22.783       15.858        8.388      519.056      251.485       70.352        0.225        0.042       59.462        4.546        0.006      332.173        0.664      872.598
01/05/2015  02:15:00      -57.813        0.474       -9.526       11.846       11.156       11.669      140.330      124.459      136.163        0.192        0.020       57.815        9.540        0.027      332.276        0.833      872.607
01/05/2015  02:16:00      -50.378       -3.636       -6.861       12.506        7.067        5.648      156.399       49.939       31.902        0.142        0.012       50.509        2.723        0.003      332.475        1.161      872.617
01/05/2015  02:17:00      -33.471        2.482       -3.615       11.669       11.841        7.680      136.159      140.200       58.976        0.074        0.017       33.563        5.534        0.027      332.679        1.497      872.623
01/05/2015  02:18:00      -21.352       -7.498       -2.092        8.177        6.899        4.137       66.864       47.590       17.116        0.032        0.007       22.631        2.366        0.011      332.655        1.461      872.628
01/05/2015  02:19:00      -18.727       -9.736       -2.769        6.031        7.101        3.440       36.379       50.431       11.830        0.028        0.005       21.107        1.447        0.005      332.564        1.307      872.628
01/05/2015  02:20:00      -32.331      -20.896       -7.601       15.286       13.105        6.207      233.650      171.736       38.531        0.099        0.022       38.496        7.669        0.040      332.577        1.331      872.634
01/05/2015  02:21:00      -65.623      -29.191      -15.775       17.211       12.667        6.974      296.233      160.444       48.631        0.296        0.025       71.823        4.280        0.004      332.239        0.772      872.650
01/05/2015  02:22:00      -89.147       -7.571      -19.255        8.936        7.830        7.755       79.860       61.312       60.140        0.429        0.010       89.468        3.564        0.002      332.028        0.424      872.681
01/05/2015  02:23:00     -123.367       -2.765      -18.994       24.775       17.210       15.233      613.800      296.173      232.042        0.836        0.057      123.398        7.959        0.004      331.892        0.202      872.716
01/05/2015  02:24:00     -115.314      -16.075      -17.907       26.594       23.676       19.954      707.263      560.550      398.174        0.777        0.083      116.429       13.601        0.014      331.861        0.148      872.750
01/05/2015  02:25:00      -61.150       -9.503      -12.511       24.150       20.244       14.713      583.244      409.815      216.464        0.260        0.060       61.884       12.270        0.039      331.941        0.280      872.771
01/05/2015  02:26:00      -68.332      -17.621      -15.004       11.902       18.113       14.079      141.666      328.088      198.228        0.294        0.033       70.567        5.830        0.007      332.277        0.835      872.790
01/05/2015  02:27:00      -77.240      -15.241      -12.422       31.074       25.069       13.929      965.581      628.455      194.005        0.407        0.089       78.729       13.911        0.031      332.136        0.602      872.809
01/05/2015  02:28:00      -84.636      -15.256      -16.516       16.120       24.262       12.424      259.844      588.637      154.355        0.434        0.050       85.999        8.876        0.011      332.080        0.511      872.839
01/05/2015  02:29:00      -88.809        4.831      -17.730       14.706       12.545       11.863      216.280      157.387      140.730        0.437        0.026       88.940        6.519        0.005      332.320        0.906      872.857
01/05/2015  02:30:00      -76.221       -4.512      -15.966        9.446       13.467        9.165       89.235      181.363       83.995        0.322        0.018       76.354        6.188        0.007      332.310        0.890      872.882
01/05/2015  02:31:00      -85.383      -14.527      -13.887       21.328       12.089       11.164      454.904      146.140      124.641        0.421        0.036       86.610        9.468        0.012      332.222        0.746      872.900
01/05/2015  02:32:00      -95.858       -8.684      -20.045       17.356       22.212       13.224      301.233      493.384      174.885        0.532        0.048       96.251       10.330        0.012      332.220        0.742      872.917
01/05/2015  02:33:00      -63.908      -40.537       -9.623       20.755       29.805       17.603      430.777      888.310      309.869        0.372        0.081       75.680       17.441        0.053      332.162        0.646      872.938
01/05/2015  02:34:00      -69.331       -4.873       -6.667       15.701       15.765       11.931      246.527      248.551      142.352        0.276        0.032       69.502        7.805        0.013      332.241        0.777      872.943
01/05/2015  02:35:00      -73.368        0.475      -12.114       13.269       16.618        9.452      176.072      276.172       89.344        0.304        0.027       73.369        7.555        0.011      332.360        0.973      872.953
01/05/2015  02:36:00      -81.223       -7.048      -15.651       20.457       13.615       12.013      418.475      185.372      144.319        0.382        0.037       81.528        9.927        0.015      332.300        0.874      872.966
01/05/2015  02:37:00     -100.635        7.531      -18.068       16.728       18.457       13.010      279.812      340.667      169.257        0.565        0.039      100.916        9.578        0.009      332.295        0.865      872.970
01/05/2015  02:38:00      -79.544        3.853      -16.475       13.711       13.281       12.012      187.988      176.387      144.287        0.356        0.025       79.637        5.872        0.005      332.287        0.852      872.976
01/05/2015  02:39:00      -72.561        1.289      -17.009        8.947        7.807        7.629       80.053       60.946       58.206        0.288        0.010       72.573        5.306        0.005      332.686        1.511      872.977
01/05/2015  02:40:00      -67.086        7.851      -14.106        5.718        6.867        7.608       32.701       47.162       57.883        0.245        0.007       67.544        3.344        0.002      333.154        2.284      872.986
01/05/2015  02:41:00      -61.516      -10.393       -9.800        6.297       11.564        5.212       39.657      133.729       27.163        0.209        0.010       62.387        4.710        0.006      333.036        2.089      872.992
01/05/2015  02:42:00      -75.467      -30.819      -11.386       15.655       10.717        6.575      245.073      114.854       43.227        0.359        0.020       81.517        5.774        0.005      332.584        1.341      872.984
01/05/2015  02:43:00     -105.741      -12.634      -15.803       18.038       13.784       10.290      325.372      190.007      105.887        0.611        0.031      106.493        6.289        0.003      332.232        0.761      872.976
01/05/2015  02:44:00      -74.289      -19.914       -8.549       22.082       16.866       11.549      487.599      284.446      133.370        0.345        0.045       76.912       10.156        0.017      332.248        0.787      872.960
01/05/2015  02:45:00      -59.413      -22.799      -13.180        9.840       10.066        5.963       96.820      101.327       35.561        0.223        0.012       63.637        3.046        0.002      332.676        1.493      872.968
01/05/2015  02:46:00      -61.418      -39.900      -11.269       11.731        7.069        5.473      137.611       49.975       29.953        0.285        0.011       73.240        2.940        0.002      332.731        1.586      872.977
01/05/2015  02:47:00       -3.136      -49.748       -5.577       16.011       14.465       12.582      256.350      209.245      158.309        0.157        0.031       49.847        7.589        0.023      333.376        2.652      872.980
01/05/2015  02:48:00       27.398      -87.700      -10.673       42.920       23.971       21.992     1842.111      574.605      483.658        0.573        0.145       91.880        7.373        0.006      333.334        2.581      872.962
01/05/2015  02:49:00       12.346      -22.868       10.756       29.563       38.779       25.708      873.956     1503.809      660.886        0.191        0.152       25.988       24.035        0.855      333.036        2.089      872.933
01/05/2015  02:50:00       27.914       -3.187       15.436       27.632       27.463       21.893      763.533      754.197      479.283        0.151        0.100       28.095       22.020        0.614      332.874        1.820      872.910
01/05/2015  02:51:00        8.325       28.469       42.276       20.570       22.247       16.744      423.120      494.946      280.369        0.193        0.060       29.661       16.086        0.294      332.626        1.412      872.887
01/05/2015  02:52:00       13.611       19.881       29.752       19.710       19.012       16.283      388.482      361.451      265.134        0.124        0.051       24.094       16.455        0.466      332.657        1.463      872.862
01/05/2015  02:53:00       42.892      -13.874       12.565       22.556       25.454       15.893      508.758      647.909      252.599        0.180        0.070       45.080       16.669        0.137      332.856        1.791      872.845
01/05/2015  02:54:00       39.670      -28.270       11.417       29.009       24.762       21.889      841.548      613.172      479.109        0.222        0.097       48.712       21.262        0.191      333.014        2.052      872.837
01/05/2015  02:55:00      -31.104      -25.192        2.015       22.866       12.323       11.418      522.851      151.855      130.360        0.121        0.040       40.026       12.706        0.101      332.497        1.197      872.845
01/05/2015  02:56:00      -16.750       -7.935       -3.392        8.471        6.734        4.436       71.761       45.353       19.674        0.025        0.007       18.535        4.428        0.057      332.321        0.904      872.855
01/05/2015  02:57:00      -32.326      -11.397      -16.617       14.392        9.587        9.845      207.133       91.901       96.929        0.092        0.020       34.276        9.560        0.078      332.313        0.894      872.852
01/05/2015  02:58:00      -23.229       -4.531       -6.258       10.467       11.693        6.923      109.555      136.734       47.928        0.045        0.015       23.667        5.650        0.057      332.387        1.018      872.853
01/05/2015  02:59:00      -43.299      -10.494       -3.620       17.920       14.795        9.579      321.109      218.893       91.748        0.131        0.032       44.553        5.960        0.018      332.130        0.592      872.872
01/05/2015  03:00:00      -58.723      -22.718        0.872       25.750       24.342       14.319      663.042      592.510      205.034        0.271        0.073       62.965       13.633        0.047      332.090        0.527      872.897
01/05/2015  03:01:00      -48.046      -23.082        1.844       31.392       23.413       13.394      985.435      548.185      179.390        0.228        0.086       53.303       14.701        0.076      332.126        0.587      872.918
01/05/2015  03:02:00      -34.389      -32.185        1.289       26.271       18.694       15.239      690.185      349.450      232.214        0.175        0.064       47.101        9.131        0.038      332.160        0.643      872.931
01/05/2015  03:03:00      -22.761      -35.394       14.720       34.852       25.971       19.242     1214.681      674.485      370.257        0.212        0.113       42.081       22.101        0.276      332.182        0.678      872.923
01/05/2015  03:04:00      -23.931      -11.026       11.517       29.382       15.691       16.392      863.285      246.221      268.714        0.110        0.069       26.349       13.852        0.276      332.106        0.552      872.927
01/05/2015  03:05:00      -56.878      -33.607        2.446       48.133       27.951       15.908     2316.770      781.233      253.055        0.386        0.168       66.064       19.700        0.089      332.083        0.516      872.943
01/05/2015  03:06:00      -57.486      -24.841        8.413       36.325       22.399       15.864     1319.536      501.724      251.670        0.303        0.104       62.623       15.032        0.058      332.080        0.510      872.979
01/05/2015  03:07:00      -70.275      -14.855       -1.641       19.952       18.756       13.302      398.094      351.785      176.930        0.304        0.046       71.828       10.832        0.023      332.058        0.474      873.013
01/05/2015  03:08:00      -67.651      -13.211       -6.389       14.952       13.903        9.902      223.571      193.305       98.041        0.265        0.026       68.929        6.963        0.010      332.082        0.513      873.046
01/05/2015  03:09:00      -54.936      -17.717       -9.231        9.251        8.402        6.458       85.589       70.590       41.706        0.181        0.010       57.722        5.017        0.008      332.171        0.660      873.064
01/05/2015  03:10:00      -57.540        5.295       -5.250        7.882       12.191        8.199       62.127      148.626       67.230        0.182        0.014       57.783        5.836        0.010      332.236        0.768      873.072
01/05/2015  03:11:00      -78.080        3.350       -8.965        8.261        6.049        5.102       68.242       36.596       26.033        0.316        0.007       78.152        2.820        0.001      332.261        0.808      873.069
01/05/2015  03:12:00      -85.067       -2.048      -10.436        7.050        4.907        5.981       49.702       24.083       35.772        0.373        0.005       85.091        3.497        0.002      332.256        0.802      873.067
01/05/2015  03:13:00      -75.677        6.456      -13.801        6.693        6.444        6.502       44.800       41.521       42.274        0.304        0.006       75.952        3.121        0.002      332.086        0.520      873.060
01/05/2015  03:14:00      -82.320       -7.402      -13.315        9.354       10.538        8.185       87.489      111.049       66.995        0.364        0.013       82.652        4.721        0.003      332.045        0.452      873.056
01/05/2015  03:15:00      -70.731      -29.482      -17.494       13.931       14.171        7.641      194.082      200.819       58.390        0.332        0.023       76.629        4.735        0.004      332.087        0.522      873.049
01/05/2015  03:16:00      -43.324      -34.315      -15.015       15.595       15.439       10.493      243.217      238.367      110.102        0.194        0.030       55.267       10.071        0.033      332.082        0.513      873.055
01/05/2015  03:17:00      -68.070      -45.671      -10.913       14.706       12.775       11.455      216.280      163.204      131.216        0.367        0.026       81.972        5.702        0.005      331.898        0.210      873.061
01/05/2015  03:18:00      -91.419      -26.603      -10.473       15.044       20.247       12.102      226.320      409.928      146.458        0.498        0.039       95.211       11.513        0.015      331.983        0.350      873.055
01/05/2015  03:19:00     -102.771       -6.355      -16.536       14.924        9.146        6.460      222.723       83.645       41.733        0.561        0.017      102.968        3.645        0.001      332.004        0.386      873.051
01/05/2015  03:20:00      -80.489       -0.275      -12.796       11.976       11.347        7.654      143.428      128.744       58.582        0.349        0.017       80.490        6.176        0.006      332.170        0.659      873.037
01/05/2015  03:21:00      -63.915      -17.348       -8.325        7.530       11.742        5.569       56.696      137.878       31.010        0.234        0.011       66.227        3.187        0.002      332.169        0.657      873.017
01/05/2015  03:22:00      -74.719      -30.628      -10.911       10.621       12.707        7.976      112.814      161.470       63.621        0.349        0.017       80.752        5.993        0.006      332.086        0.521      872.999
01/05/2015  03:23:00      -94.273      -29.953       -9.814       14.331       22.497       11.786      205.363      506.108      138.916        0.537        0.043       98.917        8.813        0.008      331.965        0.320      872.984
01/05/2015  03:24:00      -92.045      -31.012       -8.210       23.211       15.377       14.904      538.770      236.439      222.116        0.525        0.050       97.129       11.263        0.013      331.867        0.159      872.968
01/05/2015  03:25:00     -100.892      -26.475       -6.281       15.114       15.096       12.193      228.436      227.904      148.672        0.576        0.030      104.308        8.277        0.006      331.900        0.213      872.952
01/05/2015  03:26:00      -86.496      -24.710       -7.808       20.315       14.433       10.822      412.690      208.303      117.118        0.445        0.037       89.956       10.758        0.014      331.964        0.318      872.932
01/05/2015  03:27:00      -72.082      -19.328       -3.550       20.968       22.574       12.229      439.655      509.576      149.539        0.334        0.055       74.628        9.144        0.015      331.936        0.274      872.930
01/05/2015  03:28:00      -19.631      -33.219        2.931       20.075       13.765       11.376      403.019      189.474      129.416        0.111        0.036       38.586        7.712        0.040      332.091        0.528      872.924
01/05/2015  03:29:00        6.089      -31.008       -1.169        5.793        6.256        6.698       33.556       39.139       44.864        0.056        0.006       31.600        2.466        0.006      332.405        1.046      872.912
01/05/2015  03:30:00       -2.294      -28.729        0.518        6.288       10.360        7.991       39.536      107.328       63.854        0.052        0.011       28.820        4.430        0.024      332.564        1.310      872.905
01/05/2015  03:31:00       -4.279       -8.488        1.592        6.877        6.912        4.954       47.300       47.769       24.543        0.011        0.006        9.506        3.400        0.128      332.465        1.144      872.909
01/05/2015  03:32:00       35.016       -2.600        1.479       11.880        9.167        6.275      141.134       84.033       39.376        0.075        0.013       35.113        3.493        0.010      332.482        1.173      872.916
01/05/2015  03:33:00       19.046       11.159        7.676       12.081        7.145        7.912      145.947       51.046       62.601        0.040        0.013       22.074        5.852        0.070      332.406        1.045      872.922
01/05/2015  03:34:00      -22.332       -1.181       -4.604       23.659        9.386        6.489      559.746       88.101       42.101        0.061        0.034       22.363       10.889        0.237      332.330        0.924      872.922
01/05/2015  03:35:00      -61.310        1.609      -12.807        5.380        4.492        5.790       28.941       20.178       33.526        0.200        0.004       61.331        2.671        0.002      331.934        0.270      872.918
01/05/2015  03:36:00      -50.305       -8.277      -10.683        6.421        7.185        5.415       41.227       51.617       29.319        0.142        0.006       50.981        2.430        0.002      332.036        0.437      872.909
01/05/2015  03:37:00      -72.094       -9.384      -12.901       21.607       18.475        7.348      466.876      341.315       53.988        0.316        0.043       72.702        6.994        0.009      331.885        0.190      872.908
01/05/2015  03:38:00     -101.406       13.754      -18.880       15.543       14.499       10.039      241.570      210.226      100.782        0.569        0.028      102.334        4.524        0.002      331.922        0.249      872.902
01/05/2015  03:39:00      -80.400       -3.142      -12.578       14.208       15.186        8.776      201.855      230.605       77.019        0.357        0.025       80.461        5.493        0.005      331.744       -0.044      872.906
01/05/2015  03:40:00      -58.399      -21.895      -15.584       11.862       11.541        7.132      140.713      133.192       50.858        0.223        0.016       62.368        3.818        0.004      331.773        0.004      872.914
01/05/2015  03:41:00      -55.768      -21.875      -15.023        9.606       11.698        8.809       92.275      136.835       77.604        0.206        0.015       59.905        4.820        0.006      331.786        0.025      872.915
01/05/2015  03:42:00      -68.233      -25.237      -11.939       13.330       16.207       11.966      177.686      262.656      143.176        0.301        0.029       72.751        7.714        0.011      331.748       -0.037      872.926
01/05/2015  03:43:00      -84.727      -28.444       -6.134       21.855       19.771       14.376      477.654      390.903      206.676        0.455        0.054       89.374       10.753        0.014      331.680       -0.148      872.926
01/05/2015  03:44:00      -80.985      -36.352       -8.148       22.460       24.471       17.928      504.463      598.839      321.424        0.469        0.071       88.770       14.341        0.026      331.706       -0.104      872.917
01/05/2015  03:45:00      -70.689      -40.144       -7.815       16.058       22.336       12.268      257.855      498.910      150.498        0.379        0.045       81.293        9.018        0.012      331.667       -0.170      872.909
01/05/2015  03:46:00     -102.425      -56.929      -12.391       31.491       24.825       22.004      991.663      616.276      484.164        0.799        0.105      117.183       17.038        0.021      331.680       -0.150      872.901
01/05/2015  03:47:00     -141.749      -61.398       -7.945       22.689       26.304       19.207      514.795      691.919      368.891        1.275        0.079      154.475       11.299        0.005      331.717       -0.087      872.906
01/05/2015  03:48:00      -76.019      -35.717        8.578       47.459       27.482       22.138     2252.376      755.287      490.102        0.531        0.175       83.992       15.148        0.033      331.748       -0.036      872.912
01/05/2015  03:49:00      -82.752      -53.111       -4.022       30.521       23.036       17.339      931.554      530.635      300.652        0.572        0.088       98.329       15.438        0.025      331.775        0.008      872.919
01/05/2015  03:50:00      -93.836      -40.918       -8.627       19.028       17.579       13.845      362.062      309.025      191.698        0.571        0.043      102.369       11.898        0.014      331.853        0.135      872.921
01/05/2015  03:51:00      -90.561      -54.044       -2.925       23.310       17.312       13.750      543.333      299.715      189.054        0.608        0.052      105.461       12.402        0.014      331.882        0.183      872.912
01/05/2015  03:52:00      -99.115      -53.685       -9.212       15.648       23.750       10.371      244.860      564.085      107.556        0.685        0.046      112.721        7.469        0.004      331.910        0.228      872.896
01/05/2015  03:53:00      -59.159      -31.160       -5.981       13.801        9.900       10.845      190.473       98.019      117.605        0.246        0.020       66.863        5.406        0.007      331.898        0.208      872.878
01/05/2015  03:54:00      -49.629      -35.567       -2.302       18.794       10.027        6.735      353.220      100.538       45.360        0.212        0.025       61.058        7.333        0.014      331.990        0.362      872.859
01/05/2015  03:55:00      -75.838      -53.924       -5.885       26.645       21.341       14.014      709.970      455.436      196.393        0.503        0.068       93.054       13.998        0.023      331.922        0.248      872.850
01/05/2015  03:56:00     -118.323      -49.309       -6.503       20.330       19.424       12.771      413.296      377.310      163.104        0.871        0.048      128.186        9.129        0.005      331.851        0.132      872.843
01/05/2015  03:57:00     -109.285      -49.939       -2.648       21.684       19.193       11.926      470.210      368.375      142.220        0.771        0.049      120.155        9.007        0.006      331.873        0.169      872.831
01/05/2015  03:58:00      -92.102      -30.476       -4.159       14.483       13.798        8.722      209.746      190.397       76.081        0.495        0.024       97.013        5.186        0.003      331.872        0.169      872.816
01/05/2015  03:59:00      -71.900      -20.207        0.846       26.319       12.606       13.217      692.694      158.920      174.686        0.330        0.051       74.686       15.928        0.045      331.801        0.049      872.815
01/05/2015  04:00:00     -119.502      -17.703      -17.762       20.619       13.579       11.095      425.126      184.390      123.100        0.782        0.037      120.806       10.502        0.008      331.744       -0.044      872.812
01/05/2015  04:01:00     -123.837       -3.965      -17.632       31.892       15.582       14.662     1017.096      242.786      214.966        0.857        0.074      123.901       16.188        0.017      331.648       -0.200      872.803
01/05/2015  04:02:00     -109.499       -9.608       -9.448       31.060       17.115       15.717      964.698      292.934      247.010        0.684        0.075      109.919       13.462        0.015      331.684       -0.142      872.798
01/05/2015  04:03:00     -100.774      -14.919       -7.577       23.664       15.759       14.571      559.990      248.340      212.309        0.573        0.051      101.872       11.264        0.012      331.679       -0.150      872.787
01/05/2015  04:04:00      -97.904      -15.382       -2.036       36.516       22.100       20.714     1333.388      488.424      429.058        0.604        0.113       99.105       22.410        0.051      331.655       -0.189      872.783
01/05/2015  04:05:00      -68.814      -17.760      -12.368       27.280       29.884       17.131      744.199      893.058      293.459        0.357        0.097       71.069       10.138        0.020      331.695       -0.123      872.765
01/05/2015  04:06:00      -98.756      -17.326       -9.226       33.904       26.884       15.410     1149.482      722.757      237.474        0.612        0.105      100.265       12.813        0.016      331.736       -0.056      872.747
01/05/2015  04:07:00     -101.338      -18.887       -5.742       36.616       32.134       20.059     1340.702     1032.576      402.372        0.672        0.139      103.083       17.399        0.028      331.685       -0.140      872.735
01/05/2015  04:08:00      -76.630      -18.770       -0.156       38.384       27.172       22.559     1473.355      738.344      508.927        0.447        0.136       78.896       18.134        0.053      331.621       -0.246      872.712
01/05/2015  04:09:00      -59.298       -1.772       -3.630       43.675       32.046       22.631     1907.541     1026.939      512.149        0.349        0.172       59.324       20.945        0.125      331.688       -0.136      872.688
01/05/2015  04:10:00      -46.013       25.839      -12.090       21.695       26.571       23.720      470.688      705.993      562.622        0.233        0.087       52.771       15.344        0.085      331.900        0.215      872.672
01/05/2015  04:11:00      -62.495        5.403      -18.224       13.362       16.616       12.840      178.549      276.075      164.855        0.244        0.031       62.728        9.475        0.023      331.831        0.100      872.651
01/05/2015  04:12:00      -40.535      -16.033       -6.974       11.245       13.559       14.157      126.458      183.854      200.409        0.123        0.026       43.591        5.936        0.019      331.863        0.153      872.637
01/05/2015  04:13:00       16.735      -11.462        2.485       16.573       15.227       11.807      274.661      231.863      139.403        0.053        0.032       20.284       11.054        0.297      332.088        0.523      872.622
01/05/2015  04:14:00       36.915      -52.490      -12.270       16.177       13.884       11.552      261.689      192.767      133.460        0.243        0.029       64.170        4.326        0.005      332.139        0.605      872.606
01/05/2015  04:15:00       10.908      -40.456       -8.398       32.232       31.581       28.966     1038.905      997.385      839.039        0.235        0.144       41.900       23.239        0.308      331.940        0.279      872.588
01/05/2015  04:16:00       -6.887      -68.693      -21.393       52.118       40.457       28.799     2716.239     1636.799      829.383        0.520        0.259       69.038       24.679        0.128      332.002        0.382      872.576
01/05/2015  04:17:00      -29.194      -16.842        1.946       32.256       25.743       22.531     1040.448      662.716      507.633        0.167        0.111       33.704       14.581        0.187      331.788        0.029      872.569
01/05/2015  04:18:00      -43.088      -17.618        0.493       21.856       22.919       16.373      477.674      525.284      268.078        0.172        0.064       46.550       13.859        0.089      331.631       -0.228      872.566
01/05/2015  04:19:00      -51.682       -7.679       -1.089       18.759       17.799       11.592      351.883      316.807      134.370        0.177        0.040       52.249       10.013        0.037      331.710       -0.099      872.552
01/05/2015  04:20:00      -82.186      -34.172       -4.537       24.626       17.896       10.099      606.443      320.271      101.993        0.449        0.051       89.007       10.361        0.014      331.749       -0.033      872.533
01/05/2015  04:21:00      -65.246      -10.445       -5.044       32.510       16.340       13.786     1056.921      266.982      190.064        0.295        0.076       66.077       15.523        0.055      331.663       -0.175      872.521
01/05/2015  04:22:00      -46.084      -26.262       -1.176       24.732       16.379       12.053      611.652      268.282      145.275        0.192        0.051       53.042       13.141        0.061      331.675       -0.155      872.502
01/05/2015  04:23:00      -32.323      -23.541       -8.920       24.830        7.899        6.256      616.514       62.392       39.143        0.120        0.036       39.987        2.416        0.004      331.740       -0.048      872.493
01/05/2015  04:24:00       -3.389      -12.022        6.806        9.473        7.469        6.033       89.733       55.790       36.392        0.019        0.009       12.490        6.665        0.285      331.871        0.163      872.485
01/05/2015  04:25:00      -39.543      -11.566       -4.315        9.039        8.083        5.626       81.708       65.340       31.649        0.095        0.009       41.200        3.673        0.008      331.942        0.285      872.487
01/05/2015  04:26:00      -53.810      -17.273       -4.683       13.832       11.086        7.801      191.311      122.900       60.861        0.180        0.019       56.515        7.304        0.017      331.860        0.148      872.480
01/05/2015  04:27:00      -54.477      -21.673       -3.909        7.808       11.209        5.749       60.968      125.648       33.051        0.184        0.011       58.630        3.923        0.004      331.798        0.044      872.475
01/05/2015  04:28:00      -50.123      -11.495       -5.783        6.752        9.044        4.916       45.585       81.798       24.169        0.141        0.008       51.425        4.366        0.007      331.817        0.077      872.459
01/05/2015  04:29:00      -55.555      -19.853       -7.890        8.754        6.359        5.540       76.638       40.432       30.689        0.185        0.007       58.996        2.269        0.001      331.865        0.156      872.444
01/05/2015  04:30:00      -76.441      -20.234      -12.710       15.636        8.087        5.751      244.495       65.398       33.072        0.338        0.017       79.074        2.365        0.001      331.899        0.211      872.443
01/05/2015  04:31:00      -93.574      -19.766       -4.339       20.869       12.828       13.006      435.510      164.567      169.149        0.497        0.038       95.638       13.222        0.019      331.822        0.086      872.441
01/05/2015  04:32:00      -99.314      -23.329       -2.462       22.044       16.346       13.454      485.933      267.182      181.019        0.567        0.047      102.017       12.026        0.014      331.835        0.108      872.453
01/05/2015  04:33:00     -118.015      -29.183       -8.255       25.821       18.795       15.460      666.733      353.253      239.020        0.805        0.063      121.570       15.101        0.015      331.704       -0.108      872.462
01/05/2015  04:34:00      -93.335      -12.116       -2.380       25.371       23.412       17.440      643.690      548.136      304.167        0.518        0.075       94.118       14.249        0.023      331.564       -0.339      872.466
01/05/2015  04:35:00     -108.355      -21.274       -8.048       20.041       18.803       12.142      401.641      353.545      147.417        0.658        0.045      110.424        8.803        0.006      331.555       -0.355      872.458
01/05/2015  04:36:00      -92.827      -13.547       -4.090       24.110       20.150       13.501      581.298      406.026      182.264        0.499        0.058       93.810       12.229        0.017      331.598       -0.283      872.431
01/05/2015  04:37:00      -62.862      -48.053        0.230       24.961       21.090       13.847      623.060      444.768      191.730        0.376        0.063       79.124       12.731        0.026      331.565       -0.339      872.401
01/05/2015  04:38:00      -54.170      -20.191        4.515       28.873       24.888       14.152      833.654      619.435      200.271        0.251        0.083       57.811       16.244        0.079      331.565       -0.337      872.365
01/05/2015  04:39:00      -27.399       -0.319        3.452       20.188       15.009       12.871      407.539      225.266      165.658        0.078        0.040       27.401       11.373        0.172      331.578       -0.317      872.355
01/05/2015  04:40:00      -67.162       17.237       -1.757       14.732       13.633        7.097      217.036      185.853       50.363        0.263        0.023       69.339        5.583        0.006      331.794        0.041      872.363
01/05/2015  04:41:00      -58.298       12.910       -4.504       11.452       10.488        6.071      131.158      109.991       36.857        0.193        0.014       59.711        5.182        0.008      331.926        0.256      872.392
01/05/2015  04:42:00      -60.869       -4.674      -11.213       14.186       10.670        7.838      201.247      113.859       61.427        0.211        0.019       61.049        6.198        0.010      332.090        0.528      872.429
01/05/2015  04:43:00      -79.052       -1.073      -11.268        7.545        7.633        7.190       56.925       58.261       51.702        0.327        0.008       79.059        4.376        0.003      332.202        0.712      872.460
01/05/2015  04:44:00      -54.645       -7.824       -4.818       16.763       12.402        9.859      280.997      153.801       97.202        0.180        0.027       55.202        9.952        0.032      332.007        0.390      872.486
01/05/2015  04:45:00      -56.736      -24.503       -3.176       10.960       10.032        5.907      120.120      100.650       34.898        0.204        0.013       61.801        3.568        0.003      331.849        0.130      872.510
01/05/2015  04:46:00      -76.719       -1.365      -12.394       14.634       16.187       10.748      214.144      262.012      115.524        0.332        0.030       76.731        7.563        0.010      331.618       -0.251      872.523
01/05/2015  04:47:00      -69.184      -15.421      -13.871       17.086       17.085       12.549      291.934      291.892      157.483        0.298        0.037       70.882        7.176        0.010      331.556       -0.355      872.547
01/05/2015  04:48:00      -75.094       -7.325      -11.558       35.832       31.148       21.846     1283.917      970.187      477.230        0.428        0.137       75.450       20.220        0.072      331.537       -0.383      872.567
01/05/2015  04:49:00      -82.212       -5.371      -14.950       41.573       37.408       21.045     1728.335     1399.377      442.883        0.529        0.179       82.387       21.415        0.068      331.524       -0.406      872.578
01/05/2015  04:50:00      -78.670       10.671      -14.160       50.520       32.183       19.370     2552.267     1035.731      375.192        0.523        0.198       79.390       20.164        0.065      331.571       -0.328      872.564
01/05/2015  04:51:00      -15.626       -6.026       -9.787       14.686       17.396       10.582      215.671      302.618      111.969        0.050        0.032       16.748        9.328        0.310      331.588       -0.299      872.541
01/05/2015  04:52:00      -37.601      -23.116       -6.697       18.613       14.336        8.096      346.454      205.531       65.544        0.131        0.031       44.138        5.686        0.017      331.556       -0.353      872.521
01/05/2015  04:53:00      -28.296       -4.191       -8.750       15.227       12.692        8.924      231.875      161.089       79.631        0.068        0.024       28.605        7.147        0.062      331.669       -0.167      872.496
01/05/2015  04:54:00      -26.000       -5.549       -5.437        5.926        5.835        5.217       35.119       34.042       27.222        0.042        0.005       26.586        2.446        0.008      331.820        0.081      872.470
01/05/2015  04:55:00      -21.656      -27.077       -2.906       12.437       14.357       12.875      154.687      206.110      165.762        0.087        0.026       34.672        9.184        0.070      331.740       -0.050      872.469
01/05/2015  04:56:00      -53.756      -18.658       -4.331       24.463       13.666       12.280      598.444      186.748      150.798        0.210        0.047       56.902       10.850        0.036      331.648       -0.199      872.462
01/05/2015  04:57:00      -78.691      -14.844      -13.054       10.265       15.222        8.762      105.372      231.707       76.775        0.350        0.021       80.079        8.120        0.010      331.589       -0.299      872.455
01/05/2015  04:58:00      -88.448      -17.044      -17.694       12.037       10.729        7.284      144.891      115.105       53.061        0.437        0.016       90.075        6.193        0.005      331.550       -0.364      872.452
01/05/2015  04:59:00      -81.992      -12.437      -14.562       11.025       11.472       12.074      121.540      131.601      145.793        0.374        0.020       82.929        8.659        0.011      331.566       -0.338      872.448
01/05/2015  05:00:00     -101.285       -7.488      -16.074       17.358        9.809        9.109      301.315       96.217       82.967        0.553        0.024      101.562        8.859        0.008      331.578       -0.318      872.446
01/05/2015  05:01:00      -90.826       -3.812      -10.016       29.212       14.871       11.837      853.333      221.136      140.113        0.479        0.061       90.906       10.664        0.014      331.559       -0.348      872.458
01/05/2015  05:02:00     -111.133       -4.408      -15.042       21.193       14.002       12.200      449.160      196.066      148.835        0.669        0.040      111.220        8.062        0.005      331.518       -0.416      872.468
01/05/2015  05:03:00      -94.296      -10.183      -16.057       17.332       18.629        9.912      300.404      347.057       98.246        0.500        0.037       94.844        6.592        0.005      331.490       -0.462      872.469
01/05/2015  05:04:00      -84.167      -20.025      -11.606       19.414       18.647       14.036      376.885      347.707      197.000        0.427        0.046       86.516       10.820        0.016      331.521       -0.411      872.467
01/05/2015  05:05:00      -85.293      -26.817      -16.271       13.486       12.602        8.763      181.861      158.815       76.784        0.434        0.021       89.410        6.369        0.005      331.560       -0.348      872.451
01/05/2015  05:06:00      -77.577      -24.393       -6.132       19.724       15.539       12.679      389.035      241.476      160.768        0.372        0.040       81.322       11.501        0.020      331.663       -0.176      872.439
01/05/2015  05:07:00      -57.183      -17.169       -7.978       10.755       10.679        8.087      115.672      114.049       65.404        0.196        0.015       59.705        4.451        0.006      331.718       -0.085      872.435
01/05/2015  05:08:00      -44.673      -26.546       -5.647        7.279        7.776        4.844       52.977       60.474       23.467        0.143        0.007       51.965        3.433        0.004      331.835        0.107      872.450
01/05/2015  05:09:00      -43.337       -7.262       -5.618       14.255       15.064        9.967      203.216      226.912       99.341        0.125        0.026       43.942        7.633        0.030      331.872        0.166      872.468
01/05/2015  05:10:00      -50.617       -1.385       -8.369        6.030        5.882        5.795       36.362       34.594       33.582        0.137        0.005       50.635        3.513        0.005      331.855        0.139      872.481
01/05/2015  05:11:00      -67.596        0.982       -6.053        7.980        6.073        5.758       63.683       36.885       33.158        0.237        0.007       67.603        3.474        0.003      331.759       -0.018      872.507
01/05/2015  05:12:00      -65.762       -1.720       -4.949       15.910        8.510        9.461      253.118       72.427       89.514        0.238        0.021       65.784        9.687        0.022      331.730       -0.067      872.534
01/05/2015  05:13:00      -65.259      -27.429       -5.176       14.854       16.040        7.487      220.655      257.291       56.052        0.279        0.027       70.789        6.038        0.007      331.772        0.001      872.553
01/05/2015  05:14:00      -72.415      -24.893      -10.608       20.479       24.640       14.852      419.386      607.115      220.579        0.361        0.062       76.574       10.981        0.021      331.667       -0.170      872.565
01/05/2015  05:15:00      -74.507        1.094       -9.215       38.707       15.568       13.505     1498.267      242.356      182.374        0.378        0.096       74.515        9.918        0.018      331.747       -0.038      872.566
01/05/2015  05:16:00      -75.646      -25.482       -6.087       17.019       18.143       10.324      289.643      329.170      106.581        0.357        0.036       79.822        7.312        0.008      331.651       -0.195      872.565
01/05/2015  05:17:00      -62.176      -22.323      -11.860       10.622       15.719       12.505      112.826      247.076      156.381        0.251        0.026       66.062        8.702        0.017      331.605       -0.273      872.557
01/05/2015  05:18:00      -52.519       -1.990      -11.323       11.181       12.033        7.402      125.015      144.784       54.796        0.161        0.016       52.556        5.017        0.009      331.738       -0.052      872.551
01/05/2015  05:19:00      -27.344        5.766       -6.855       16.524       12.068        9.305      273.054      145.642       86.579        0.067        0.025       27.945        8.466        0.092      331.879        0.181      872.539
01/05/2015  05:20:00       29.649       32.826        2.544       14.732        7.649        6.420      217.024       58.507       41.217        0.114        0.016       44.233        4.183        0.009      332.071        0.495      872.518
01/05/2015  05:21:00       33.534       28.170        0.826        7.206        6.943        5.065       51.922       48.205       25.659        0.102        0.006       43.796        2.397        0.003      331.986        0.356      872.505
01/05/2015  05:22:00       25.133       29.950       -6.504        5.715        7.566        6.750       32.658       57.248       45.562        0.085        0.007       39.098        5.771        0.022      331.996        0.372      872.497
01/05/2015  05:23:00       30.900       23.217       -0.037       16.717       13.389       10.907      279.444      179.272      118.963        0.104        0.029       38.651        7.406        0.037      332.008        0.390      872.494
01/05/2015  05:24:00       54.398       37.401        4.798        7.833        7.534        5.731       61.361       56.767       32.845        0.227        0.008       66.015        4.502        0.005      332.246        0.786      872.502
01/05/2015  05:25:00       61.998       44.844        8.650       16.835       11.384       11.521      283.422      129.596      132.737        0.324        0.027       76.517        8.055        0.011      332.162        0.645      872.508
01/05/2015  05:26:00       74.130       43.979       12.773       21.138       18.034       13.603      446.794      325.222      185.054        0.427        0.048       86.195       11.220        0.017      332.105        0.551      872.517
01/05/2015  05:27:00       51.566       29.009        4.592       24.801       17.575       14.592      615.114      308.888      212.940        0.233        0.057       59.166       13.286        0.050      332.064        0.483      872.520
01/05/2015  05:28:00       40.178       28.385        0.870       16.111       12.440       10.365      259.550      154.754      107.442        0.147        0.026       49.193        9.188        0.035      332.015        0.403      872.527
01/05/2015  05:29:00       46.041       18.594        5.360       19.733       12.280        9.834      389.400      150.801       96.710        0.157        0.032       49.654       10.124        0.042      332.015        0.403      872.521
01/05/2015  05:30:00       41.954       23.762       12.452       15.262       16.026       10.991      232.929      256.834      120.806        0.155        0.031       48.216        7.776        0.026      331.931        0.264      872.524
01/05/2015  05:31:00       49.312       40.975       18.417        9.535        8.115        7.344       90.921       65.854       53.937        0.233        0.011       64.114        3.463        0.003      332.016        0.405      872.546
01/05/2015  05:32:00       34.848       28.065       15.178        9.894        7.740        7.922       97.896       59.906       62.757        0.123        0.011       44.745        5.849        0.017      332.060        0.476      872.580
01/05/2015  05:33:00       31.377       19.263        0.744       17.839       11.176        9.348      318.217      124.906       87.388        0.094        0.027       36.818        9.252        0.063      332.264        0.812      872.623
01/05/2015  05:34:00       32.900       17.901        0.554       10.729       11.142        8.281      115.116      124.151       68.581        0.086        0.015       37.455        6.933        0.034      332.257        0.802      872.670
01/05/2015  05:35:00       47.681       30.112        8.766       12.915       10.129        8.270      166.793      102.593       68.392        0.180        0.017       56.393        6.535        0.013      332.241        0.778      872.717
01/05/2015  05:36:00       54.427       23.400        5.971       14.825       14.485        9.859      219.795      209.813       97.209        0.204        0.026       59.244        7.102        0.014      332.174        0.665      872.740
01/05/2015  05:37:00       69.828       29.628        6.754       12.069       13.969        9.629      145.658      195.144       92.725        0.312        0.022       75.854        8.047        0.011      332.103        0.549      872.763
01/05/2015  05:38:00       76.595       29.006        5.315       25.538       21.284       12.978      652.167      453.007      168.431        0.400        0.064       81.903        3.693        0.002      332.093        0.532      872.773
01/05/2015  05:39:00       32.076       21.087       19.791       22.827       18.541       19.766      521.078      343.784      390.678        0.156        0.063       38.386       16.762        0.191      331.930        0.263      872.770
01/05/2015  05:40:00        4.692       29.595       34.666       17.510       13.817       11.684      306.584      190.905      136.526        0.137        0.032       29.964        9.462        0.100      331.988        0.358      872.772
01/05/2015  05:41:00        9.043       30.074       46.982       20.394       34.590       22.140      415.931     1196.460      490.188        0.265        0.105       31.405       25.910        0.681      332.021        0.413      872.767
01/05/2015  05:42:00       42.932       71.782       66.195       26.600       25.760       20.086      707.541      663.569      403.449        0.658        0.089       83.641       13.995        0.028      331.998        0.374      872.756
01/05/2015  05:43:00       43.526       36.735       59.481       39.931       34.627       27.256     1594.471     1198.997      742.905        0.516        0.177       56.956       26.915        0.223      332.129        0.591      872.749
01/05/2015  05:44:00       77.980        8.682       38.005       53.817       30.585       23.418     2896.319      935.450      548.421        0.599        0.219       78.462       26.610        0.115      332.036        0.438      872.753
01/05/2015  05:45:00       49.373       43.776       61.402       51.975       39.333       27.538     2701.435     1547.082      758.329        0.656        0.250       65.985       27.259        0.171      331.983        0.350      872.766
01/05/2015  05:46:00       40.415       43.102       57.611       48.819       43.002       32.102     2383.262     1849.153     1030.540        0.604        0.263       59.086       36.792        0.388      331.878        0.176      872.776
01/05/2015  05:47:00       53.335       32.047       54.179       44.150       30.825       31.062     1949.216      950.170      964.859        0.533        0.193       62.222       28.858        0.215      331.810        0.064      872.782
01/05/2015  05:48:00       63.291       39.242       56.766       41.427       43.847       30.563     1716.164     1922.572      934.084        0.667        0.229       74.469       26.073        0.123      331.757       -0.021      872.809
01/05/2015  05:49:00       51.578       52.462       46.926       41.781       33.070       27.161     1745.662     1093.648      737.732        0.560        0.179       73.570       16.736        0.052      331.660       -0.180      872.841
01/05/2015  05:50:00       68.574       45.906       37.250       37.474       38.360       23.697     1404.276     1471.498      561.533        0.582        0.172       82.521       19.560        0.056      331.578       -0.317      872.873
01/05/2015  05:51:00       40.038       50.148       41.789       30.018       25.222       23.802      901.071      636.167      566.531        0.398        0.105       64.170       15.561        0.059      331.588       -0.299      872.894
01/05/2015  05:52:00       -2.552      -38.072       22.634       19.085       31.822       21.045      364.228     1012.609      442.877        0.189        0.091       38.158       13.148        0.119      331.694       -0.126      872.902
01/05/2015  05:53:00       28.013      -51.097       -4.094       22.192       24.853       20.777      492.491      617.665      431.664        0.248        0.077       58.272       17.176        0.087      331.578       -0.317      872.912
01/05/2015  05:54:00       18.370       12.217       21.048       19.108       29.052       12.936      365.116      843.990      167.328        0.115        0.069       22.062       12.094        0.301      331.482       -0.476      872.924
01/05/2015  05:55:00       37.321      -58.446       -1.177       19.676       37.005       15.810      387.159     1369.391      249.952        0.341        0.100       69.346       13.393        0.037      331.608       -0.267      872.942
01/05/2015  05:56:00       93.755     -109.484       -8.082       21.327       26.717       15.773      454.820      713.802      248.799        1.113        0.071      144.142       13.412        0.009      331.662       -0.177      872.959
01/05/2015  05:57:00       78.611      -83.876      -11.515       29.393       36.821       17.695      863.958     1355.813      313.127        0.794        0.127      114.956       17.188        0.022      331.653       -0.191      872.975
01/05/2015  05:58:00       17.729       -5.419       22.577       29.755       37.976       34.776      885.388     1442.203     1209.394        0.219        0.177       18.538       30.123        2.640      331.606       -0.270      872.979
01/05/2015  05:59:00        7.007       -5.964       16.714       26.855       26.390       25.442      721.207      696.449      647.281        0.121        0.103        9.201        3.012        0.107      331.632       -0.228      872.987
01/05/2015  06:00:00       78.811      -86.483       -6.535       27.629       39.288       18.605      763.352     1543.568      346.151        0.819        0.133      117.006       17.361        0.022      331.662       -0.176      872.992
01/05/2015  06:01:00       42.688      -71.944        5.912       33.287       40.401       28.246     1108.007     1632.262      797.853        0.528        0.177       83.655       19.531        0.055      331.722       -0.079      873.004
01/05/2015  06:02:00       33.820      -30.712       12.669       31.321       43.123       30.733      981.029     1859.569      944.487        0.302        0.189       45.684       30.276        0.439      331.636       -0.222      873.019
01/05/2015  06:03:00       40.691      -43.171        2.679       34.055       44.689       26.659     1159.743     1997.128      710.677        0.370        0.193       59.326       28.860        0.237      331.654       -0.190      873.011
01/05/2015  06:04:00       26.129        6.844       52.021       28.279       35.816       26.417      799.714     1282.752      697.859        0.311        0.139       27.011       11.951        0.196      331.614       -0.257      872.995
01/05/2015  06:05:00       62.815      -69.039       10.203       31.825       37.886       26.356     1012.857     1435.358      694.618        0.598        0.157       93.338       25.671        0.076      331.625       -0.239      873.005
01/05/2015  06:06:00       84.129     -107.942       -8.020       21.720       19.857       14.602      471.776      394.290      213.205        0.994        0.054      136.854       12.689        0.009      331.581       -0.312      873.041
01/05/2015  06:07:00       56.465      -48.946        6.645       26.422       27.317       21.886      698.141      746.214      478.997        0.378        0.096       74.726       16.622        0.049      331.727       -0.070      873.092
01/05/2015  06:08:00       -4.006       -3.348        4.233       16.519       11.001        9.279      272.868      121.025       86.104        0.026        0.024        5.221        5.592        1.147      331.812        0.068      873.155
01/05/2015  06:09:00       18.415       -7.644        3.318       11.844       10.081       10.927      140.277      101.631      119.397        0.038        0.018       19.939        2.759        0.019      331.871        0.165      873.209
01/05/2015  06:10:00        2.929       -6.656       -8.149       13.550        6.247        7.121      183.593       39.031       50.712        0.020        0.014        7.272        5.636        0.601      331.939        0.276      873.228
01/05/2015  06:11:00      -35.966       -0.576       -7.977       16.121        8.377       10.020      259.885       70.170      100.403        0.089        0.022       35.971        9.779        0.074      331.829        0.095      873.215
01/05/2015  06:12:00      -56.089       -5.424       -1.467       14.555       12.094        9.660      211.852      146.255       93.307        0.181        0.023       56.351        5.985        0.011      331.558       -0.352      873.183
01/05/2015  06:13:00      -22.764      -20.137       -6.208       19.486       13.067        7.242      379.706      170.748       52.454        0.078        0.030       30.392       10.253        0.114      331.443       -0.539      873.162
01/05/2015  06:14:00      -32.195      -21.712       -4.920       31.884       13.841       10.205     1016.591      191.576      104.148        0.142        0.066       38.832        3.547        0.008      331.428       -0.564      873.145
01/05/2015  06:15:00      -84.879       -2.758      -12.905       14.880       10.925        9.037      221.406      119.364       81.666        0.390        0.021       84.924        2.301        0.001      331.417       -0.581      873.125
01/05/2015  06:16:00      -89.407      -11.361      -10.974       18.302       17.324       14.254      334.966      300.122      203.173        0.454        0.042       90.126       12.029        0.018      331.312       -0.754      873.116
01/05/2015  06:17:00     -101.048      -11.423      -11.979       20.080       27.905       17.701      403.200      778.703      313.335        0.599        0.075      101.691       11.548        0.013      331.245       -0.863      873.115
01/05/2015  06:18:00      -54.705        1.369       -5.655       26.139       23.668       20.382      683.241      560.163      415.407        0.234        0.083       54.722       17.154        0.098      331.231       -0.889      873.125
01/05/2015  06:19:00      -50.681        8.176       -9.795       25.896       29.613       17.856      670.589      876.953      318.831        0.230        0.093       51.336       13.945        0.074      331.292       -0.787      873.142
01/05/2015  06:20:00      -62.708       -4.819       -7.410       45.132       31.581       16.742     2036.924      997.387      280.298        0.366        0.166       62.893        9.750        0.024      331.350       -0.691      873.160
01/05/2015  06:21:00      -57.113       14.393      -11.041       43.200       34.261       20.487     1866.257     1173.821      419.727        0.352        0.173       58.898       18.282        0.096      331.427       -0.564      873.165
01/05/2015  06:22:00      -12.529        7.741        0.226       25.755       20.352       17.546      663.296      414.192      307.861        0.080        0.069       14.727       14.875        1.020      331.369       -0.659      873.173
01/05/2015  06:23:00      -57.148      -32.536       -3.393       27.522       35.274       16.467      757.452     1244.237      271.166        0.330        0.114       65.761       14.183        0.047      331.290       -0.789      873.182
01/05/2015  06:24:00      -28.691      -13.088        5.717       26.343       27.549       17.047      693.952      758.969      290.607        0.138        0.087       31.535       16.449        0.272      331.376       -0.649      873.205
01/05/2015  06:25:00      -29.707      -17.217        0.613       24.626       13.894       17.079      606.456      193.054      291.685        0.114        0.055       34.335       14.145        0.170      331.265       -0.833      873.232
01/05/2015  06:26:00        1.757       -5.179        6.094       20.364       13.425       10.088      414.683      180.220      101.763        0.038        0.035        5.468        6.889        1.587      331.353       -0.685      873.261
01/05/2015  06:27:00      -40.693       -5.727       -4.874       23.292       19.401       10.803      542.528      376.392      116.701        0.137        0.052       41.094        8.872        0.047      331.514       -0.423      873.295
01/05/2015  06:28:00      -79.648      -10.335       -8.915       20.588       19.819       12.922      423.865      392.808      166.977        0.376        0.049       80.316        9.444        0.014      331.400       -0.610      873.322
01/05/2015  06:29:00      -66.960      -33.753       -5.490       35.895       23.549       18.694     1288.423      554.552      349.472        0.392        0.110       74.986       19.162        0.065      331.367       -0.665      873.336
01/05/2015  06:30:00      -74.418      -22.986       -3.976       24.115       23.243       16.171      581.541      540.243      261.490        0.373        0.069       77.887       10.670        0.019      331.347       -0.696      873.340
01/05/2015  06:31:00      -89.826      -19.348        0.729       41.197       35.615       21.198     1697.177     1268.395      449.336        0.593        0.171       91.886       16.815        0.033      331.368       -0.662      873.343
01/05/2015  06:32:00     -103.473      -34.887       -7.602       34.018       28.793       22.161     1157.199      829.039      491.108        0.723        0.124      109.196       19.340        0.031      331.321       -0.738      873.344
01/05/2015  06:33:00     -105.497      -34.738       -3.933       33.699       28.672       21.244     1135.619      822.109      451.310        0.738        0.120      111.069       19.521        0.031      331.244       -0.867      873.343
01/05/2015  06:34:00      -51.777        7.225       -1.533       46.593       23.920       23.392     2170.951      572.178      547.171        0.301        0.165       52.278       23.660        0.205      331.288       -0.792      873.347
01/05/2015  06:35:00      -83.102      -12.476       -5.263       38.935       35.292       23.294     1515.970     1245.497      542.590        0.520        0.165       84.033       18.020        0.046      331.348       -0.693      873.340
01/05/2015  06:36:00     -111.556      -10.773       -9.072       32.987       28.539       23.414     1088.130      814.492      548.229        0.755        0.123      112.075       19.641        0.031      331.363       -0.670      873.332
01/05/2015  06:37:00      -81.014       -0.196        1.084       33.483       28.543       19.698     1121.091      814.715      387.996        0.444        0.116       81.014       16.559        0.042      331.358       -0.677      873.328
01/05/2015  06:38:00     -109.543      -14.361      -13.781       27.511       21.600       16.104      756.828      466.548      259.345        0.694        0.074      110.480       14.088        0.016      331.377       -0.649      873.324
01/05/2015  06:39:00     -110.294      -21.355       -8.896       27.446       22.400       18.788      753.293      501.742      353.001        0.715        0.080      112.342       15.989        0.020      331.328       -0.728      873.325
01/05/2015  06:40:00     -102.385      -24.103       -6.148       36.575       21.872       16.159     1337.743      478.377      261.129        0.659        0.104      105.184       16.665        0.025      331.285       -0.798      873.322
01/05/2015  06:41:00     -112.685      -21.423       -4.568       28.744       18.892       17.035      826.222      356.910      290.175        0.733        0.074      114.703       17.377        0.023      331.250       -0.854      873.313
01/05/2015  06:42:00     -135.909      -19.317      -14.544       24.707       13.735       11.855      610.433      188.649      140.540        1.000        0.047      137.275       12.685        0.009      331.258       -0.842      873.302
01/05/2015  06:43:00     -147.453      -14.008      -22.063       15.251       11.289        9.840      232.581      127.441       96.825        1.144        0.023      148.117        4.556        0.001      331.359       -0.677      873.295
01/05/2015  06:44:00     -110.985      -24.398       -7.872       28.844       23.792       18.499      831.988      566.060      342.195        0.736        0.087      113.635       12.894        0.013      331.214       -0.914      873.301
01/05/2015  06:45:00     -102.353      -41.843       -1.787       29.781       30.795       22.514      886.914      948.307      506.899        0.729        0.117      110.576       17.165        0.024      331.145       -1.029      873.312
01/05/2015  06:46:00     -125.806        0.672       -8.684       44.845       42.572       26.179     2011.087     1812.413      685.350        1.021        0.225      125.808       21.867        0.030      331.306       -0.764      873.327
01/05/2015  06:47:00     -109.461       -0.031       -8.404       54.195       43.633       23.104     2937.052     1903.862      533.785        0.871        0.269      109.461       24.390        0.050      331.284       -0.798      873.331
01/05/2015  06:48:00     -102.066       28.810       -8.501       58.185       37.207       28.795     3385.547     1384.371      829.133        0.846        0.280      106.054       29.058        0.075      331.550       -0.363      873.336
01/05/2015  06:49:00     -166.822       12.257      -15.395       46.348       39.935       24.798     2148.143     1594.777      614.925        1.629        0.218      167.271       21.362        0.016      331.729       -0.068      873.352
01/05/2015  06:50:00     -160.233       51.917       -6.602       47.931       29.840       27.805     2297.350      890.413      773.093        1.619        0.198      168.434       22.429        0.018      331.707       -0.105      873.377
01/05/2015  06:51:00     -155.660       53.501       -6.675       41.319       32.591       30.010     1707.252     1062.181      900.608        1.540        0.184      164.598       20.420        0.015      331.752       -0.030      873.388
01/05/2015  06:52:00     -152.636       52.691      -12.102       53.381       31.335       26.618     2849.542      981.853      708.539        1.538        0.227      161.475       14.909        0.009      331.837        0.108      873.397
01/05/2015  06:53:00     -148.897       44.915       -9.530       43.523       35.980       26.954     1894.288     1294.565      726.530        1.410        0.196      155.524       19.272        0.015      331.858        0.145      873.407
01/05/2015  06:54:00     -138.281       24.293      -11.032       54.489       33.807       27.860     2969.001     1142.899      776.160        1.236        0.244      140.399       29.801        0.045      331.683       -0.143      873.410
01/05/2015  06:55:00     -184.515       71.801      -12.013       47.163       37.228       29.636     2224.304     1385.953      878.288        2.192        0.224      197.993       16.935        0.007      331.775        0.006      873.417
01/05/2015  06:56:00     -165.633       24.680      -11.344       45.153       50.336       25.671     2038.782     2533.745      659.006        1.670        0.262      167.462       18.347        0.012      331.596       -0.288      873.416
01/05/2015  06:57:00     -140.643       -5.910       -9.137       57.011       39.877       23.966     3250.291     1590.187      574.378        1.266        0.271      140.767       25.306        0.032      331.496       -0.454      873.425
01/05/2015  06:58:00     -208.793        9.408      -19.009       47.471       53.653       25.193     2253.477     2878.619      634.704        2.490        0.288      209.005       20.390        0.010      331.570       -0.331      873.427
01/05/2015  06:59:00     -127.955        2.589      -11.171       59.823       50.052       32.509     3578.769     2505.245     1056.828        1.182        0.357      127.981       34.542        0.073      331.595       -0.288      873.441
01/05/2015  07:00:00     -176.280       35.168      -19.320       42.375       38.876       24.678     1795.664     1511.350      608.991        1.830        0.196      179.754       19.689        0.012      331.689       -0.135      873.458
01/05/2015  07:01:00     -102.777        2.372       -4.707       42.319       39.829       26.661     1790.921     1586.350      710.829        0.734        0.204      102.804       22.234        0.047      331.595       -0.288      873.466
01/05/2015  07:02:00     -119.582        8.764       -7.830       47.189       31.638       24.579     2226.816     1000.967      604.140        0.913        0.192      119.903       24.103        0.040      331.626       -0.237      873.476
01/05/2015  07:03:00     -148.737       15.340      -14.248       52.929       34.184       25.968     2801.483     1168.540      674.341        1.360        0.232      149.526       23.074        0.024      331.708       -0.104      873.497
01/05/2015  07:04:00     -126.532        5.845       -8.428       52.450       43.700       27.107     2751.052     1909.711      734.777        1.075        0.270      126.667       31.351        0.061      331.608       -0.268      873.514
01/05/2015  07:05:00     -105.869      -15.867       -5.252       40.014       31.985       18.071     1601.124     1023.021      326.551        0.722        0.148      107.052       17.445        0.027      331.587       -0.302      873.524
01/05/2015  07:06:00      -57.590       -4.378       -7.477       25.495       26.796       19.730      649.992      718.013      389.282        0.257        0.088       57.757       13.662        0.056      331.599       -0.283      873.511
01/05/2015  07:07:00      -35.853      -13.847       -5.772       21.955       15.574       10.910      482.024      242.547      119.024        0.118        0.042       38.434       11.017        0.082      331.619       -0.248      873.491
01/05/2015  07:08:00      -16.644      -14.187       -2.715       13.833       13.001       11.703      191.349      169.036      136.959        0.049        0.025       21.870        8.303        0.144      331.644       -0.208      873.464
01/05/2015  07:09:00       -7.341      -10.051        1.900        7.715       12.464        8.113       59.519      155.341       65.829        0.022        0.014       12.447        5.742        0.213      331.725       -0.076      873.450
01/05/2015  07:10:00        2.768      -20.689        1.644        8.904       10.420       10.696       79.290      108.575      114.411        0.037        0.015       20.873        8.314        0.159      331.936        0.273      873.445
01/05/2015  07:11:00       -3.823       -3.947        5.861       10.501        8.374        6.324      110.266       70.127       39.997        0.014        0.011        5.495        5.629        1.050      331.824        0.090      873.452
01/05/2015  07:12:00      -43.012       -8.898       -6.261       11.663        8.688        5.302      136.035       75.476       28.108        0.110        0.012       43.923        4.478        0.010      331.800        0.050      873.456
01/05/2015  07:13:00      -63.867      -27.553      -12.573       16.634       14.440        6.521      276.706      208.520       42.524        0.276        0.026       69.557        7.700        0.012      331.695       -0.125      873.477
01/05/2015  07:14:00      -62.988      -33.446       -9.798       25.806       10.170        9.803      665.954      103.425       96.105        0.302        0.043       71.317        8.687        0.015      331.604       -0.274      873.507
01/05/2015  07:15:00     -115.161      -54.580      -18.233       34.247       21.802       12.775     1172.862      475.333      163.195        0.919        0.091      127.440        8.713        0.005      331.544       -0.374      873.535
01/05/2015  07:16:00     -157.129      -58.161      -16.611       27.898       30.932       18.046      778.275      956.786      325.658        1.520        0.103      167.548       11.985        0.005      331.439       -0.546      873.561
01/05/2015  07:17:00      -98.566      -30.143       -2.949       31.600       30.616       20.549      998.540      937.331      422.282        0.649        0.118      103.072       13.655        0.018      331.396       -0.616      873.581
01/05/2015  07:18:00     -109.135      -39.533       -0.985       41.198       28.619       19.188     1697.252      819.036      368.179        0.818        0.144      116.074       20.129        0.030      331.461       -0.509      873.587
01/05/2015  07:19:00     -111.067      -62.844       -1.431       35.307       28.643       22.220     1246.562      820.446      493.713        0.942        0.128      127.613       18.975        0.022      331.573       -0.324      873.587
01/05/2015  07:20:00     -139.567      -64.696       -8.777       31.584       23.517       19.281      997.523      553.070      371.746        1.283        0.096      153.833       11.289        0.005      331.655       -0.190      873.588
01/05/2015  07:21:00     -130.208      -44.637       -4.068       40.549       25.887       17.706     1644.215      670.127      313.505        1.079        0.131      137.647       14.402        0.011      331.674       -0.156      873.577
01/05/2015  07:22:00      -93.280      -28.585       -6.227       36.535       15.896       13.731     1334.814      252.677      188.547        0.567        0.089       97.562       10.271        0.011      331.540       -0.379      873.568
01/05/2015  07:23:00      -86.315      -40.568       -1.882       28.694       34.585       21.926      823.352     1196.128      480.759        0.580        0.125       95.373       17.707        0.034      331.521       -0.412      873.559
01/05/2015  07:24:00      -81.365      -54.431       -4.854       23.007       24.679       12.677      529.331      609.054      160.695        0.545        0.065       97.893        8.046        0.007      331.519       -0.413      873.560
01/05/2015  07:25:00      -52.517      -33.002      -12.115       25.773       21.478       17.010      664.263      461.316      289.339        0.270        0.071       62.026        4.403        0.005      331.552       -0.359      873.570
01/05/2015  07:26:00      -57.300      -13.687       -9.325       32.586       18.425       15.068     1061.841      339.490      227.059        0.259        0.081       58.912        3.450        0.003      331.579       -0.315      873.588
01/05/2015  07:27:00      -83.716      -55.471      -16.018       26.751       26.595       24.441      715.622      707.288      597.339        0.618        0.101      100.426       15.350        0.023      331.488       -0.464      873.602
01/05/2015  07:28:00     -112.123      -42.287      -19.415       15.832       25.981       16.291      250.638      675.033      265.393        0.796        0.060      119.833        8.522        0.005      331.506       -0.435      873.604
01/05/2015  07:29:00     -105.078      -24.008      -18.661       15.139       17.942       13.284      229.190      321.932      176.465        0.635        0.036      107.786        8.381        0.006      331.551       -0.362      873.603
01/05/2015  07:30:00      -70.564      -24.072      -10.923       17.886       16.682       18.024      319.905      278.286      324.873        0.330        0.046       74.557       11.290        0.023      331.525       -0.404      873.599
01/05/2015  07:31:00      -78.539        0.524       -9.221       37.471       23.738       12.035     1404.100      563.488      144.850        0.418        0.106       78.541        9.791        0.016      331.496       -0.453      873.584
01/05/2015  07:32:00      -69.743        2.308       -8.986       36.871       13.949       13.241     1359.474      194.566      175.324        0.334        0.086       69.781       18.384        0.069      331.552       -0.358      873.570
01/05/2015  07:33:00        3.406       16.547       -0.935        6.684        7.939       10.227       44.682       63.020      104.586        0.025        0.011       16.894        5.168        0.094      331.635       -0.222      873.557
01/05/2015  07:34:00      -18.360        3.256       -4.663       19.403       13.186        7.870      376.482      173.873       61.934        0.049        0.031       18.647       11.171        0.359      331.748       -0.036      873.560
01/05/2015  07:35:00      -79.798      -19.575       -8.860       21.689       15.117       14.362      470.402      228.513      206.270        0.387        0.045       82.164       10.896        0.018      331.585       -0.305      873.581
01/05/2015  07:36:00      -82.033      -17.969      -11.224       27.374       21.371       16.299      749.331      456.720      265.663        0.432        0.074       83.978       14.562        0.030      331.502       -0.441      873.587
01/05/2015  07:37:00      -22.916       -7.965       -3.216       29.475       15.169       10.062      868.756      230.100      101.246        0.090        0.060       24.261       12.978        0.286      331.578       -0.318      873.587
01/05/2015  07:38:00       -6.417      -15.901       -2.379       11.279        8.928        8.553      127.209       79.718       73.161        0.029        0.014       17.147        7.311        0.182      331.756       -0.025      873.587
01/05/2015  07:39:00      -60.940      -26.017       -6.453       25.264       26.587       15.024      638.294      706.890      225.722        0.300        0.079       66.261        9.685        0.021      331.710       -0.101      873.608
01/05/2015  07:40:00      -88.142      -42.250       -8.811       33.626       33.714       19.431     1130.728     1136.605      377.566        0.614        0.132       97.745       16.661        0.029      331.568       -0.334      873.638
01/05/2015  07:41:00      -67.094        4.113       -4.268       31.703       22.446       19.462     1005.071      503.825      378.782        0.321        0.094       67.220       13.885        0.043      331.508       -0.431      873.652
01/05/2015  07:42:00      -56.964       -2.998      -11.886       19.440       32.558       16.703      377.926     1060.051      278.977        0.256        0.086       57.043       14.105        0.061      331.536       -0.385      873.656
01/05/2015  07:43:00      -68.699      -40.296       -3.973       20.702       17.343       16.841      428.562      300.783      283.612        0.369        0.051       79.645       13.278        0.028      331.530       -0.396      873.673
01/05/2015  07:44:00      -71.700      -41.957       -8.908       38.741       14.312       13.064     1500.881      204.838      170.662        0.443        0.094       83.074       14.795        0.032      331.648       -0.200      873.697
01/05/2015  07:45:00       -5.654      -11.680        5.952        7.047       14.375        7.908       49.661      206.651       62.540        0.026        0.016       12.977        6.823        0.276      331.725       -0.075      873.724
01/05/2015  07:46:00      -11.392      -12.000        3.405        6.739       13.569        7.443       45.409      184.125       55.403        0.029        0.014       16.547        6.791        0.168      331.759       -0.018      873.747
01/05/2015  07:47:00       -8.859      -10.595        5.808        7.603       10.730        6.027       57.801      115.127       36.327        0.022        0.010       13.811        1.577        0.013      331.898        0.209      873.768
01/05/2015  07:48:00       24.918       21.784        7.367       11.754       15.686        5.543      138.147      246.050       30.721        0.078        0.021       33.098        5.376        0.026      331.761       -0.019      873.767
01/05/2015  07:49:00       21.516       34.113       -6.360        6.925        5.525        4.776       47.957       30.527       22.812        0.088        0.005       40.331        3.505        0.008      331.735       -0.060      873.777
01/05/2015  07:50:00       15.373       28.751       -7.172        5.417        5.047        3.166       29.343       25.470       10.024        0.059        0.003       32.603        2.514        0.006      331.740       -0.050      873.800
01/05/2015  07:51:00       19.221       16.442       -0.184        6.511        3.574        3.812       42.394       12.776       14.532        0.035        0.003       25.294        3.276        0.017      331.787        0.029      873.825
01/05/2015  07:52:00       32.668       22.093        5.238        8.915        5.841        7.385       79.486       34.112       54.533        0.088        0.008       39.438        4.506        0.013      331.805        0.055      873.832
01/05/2015  07:53:00       41.322       25.905        9.370       11.428        8.007        8.479      130.595       64.111       71.897        0.137        0.013       48.770        5.191        0.011      331.787        0.028      873.826
01/05/2015  07:54:00       45.293       35.689        7.406       12.763       17.753       11.151      162.892      315.176      124.353        0.199        0.030       57.665        7.492        0.017      331.750       -0.035      873.824
01/05/2015  07:55:00       63.249       58.565        1.599       22.912       18.489       14.277      524.953      341.854      203.836        0.425        0.054       86.199        9.677        0.013      331.702       -0.110      873.840
01/05/2015  07:56:00       48.430       52.131       -8.681       22.604       20.916       23.737      510.960      437.472      563.450        0.332        0.076       71.155       17.382        0.060      331.630       -0.231      873.870
01/05/2015  07:57:00       47.977       38.038        4.432       28.065       21.659       19.824      787.653      469.133      393.000        0.271        0.082       61.227       14.622        0.057      331.564       -0.339      873.887
01/05/2015  07:58:00       28.964       22.804        0.084       24.829       10.636       11.068      616.470      113.124      122.503        0.111        0.043       36.864        6.668        0.033      331.538       -0.383      873.880
01/05/2015  07:59:00       19.639       14.908        9.651       10.346       10.465       10.710      107.046      109.508      114.697        0.052        0.017       24.656        2.938        0.014      331.579       -0.314      873.882
01/05/2015  08:00:00       46.929       39.981        9.656       12.389       12.631       10.099      153.486      159.544      101.982        0.215        0.021       61.650        7.683        0.016      331.575       -0.322      873.869
01/05/2015  08:01:00       42.378       34.946        4.577       15.436       15.656       12.842      238.265      245.102      164.907        0.184        0.032       54.928       10.434        0.036      331.544       -0.372      873.871
01/05/2015  08:02:00       58.456       47.895        0.687       17.655       18.186       11.283      311.685      330.725      127.306        0.324        0.038       75.572       10.854        0.021      331.543       -0.374      873.890
01/05/2015  08:03:00       31.731       31.964        2.503       26.239       20.875       14.818      688.490      435.759      219.572        0.169        0.067       45.039       11.007        0.060      331.539       -0.380      873.914
01/05/2015  08:04:00       15.646       50.354       -9.717       20.573       28.199       14.967      423.250      795.156      224.012        0.216        0.072       52.729       12.004        0.052      331.484       -0.470      873.944
01/05/2015  08:05:00        8.693       95.378      -17.104       11.809       19.112       11.003      139.457      365.253      121.074        0.505        0.031       95.773       11.000        0.013      331.450       -0.527      873.977
01/05/2015  08:06:00       -9.025      115.336      -16.254       11.979       10.875       11.885      143.494      118.271      141.250        0.703        0.020      115.688        7.264        0.004      331.480       -0.477      873.992
01/05/2015  08:07:00       -7.034       96.709       -6.928       15.797       20.947       11.359      249.536      438.797      129.019        0.513        0.041       96.965        6.261        0.004      331.603       -0.275      874.000
01/05/2015  08:08:00      -13.752       45.932       -3.155       19.649       21.533       14.657      386.086      463.673      214.836        0.169        0.053       47.947       14.187        0.088      331.700       -0.115      874.005
01/05/2015  08:09:00      -10.629       41.813       -0.434       24.106       15.586       11.000      581.113      242.931      121.002        0.140        0.047       43.143        9.095        0.044      331.777        0.010      874.006
01/05/2015  08:10:00       12.245       40.142        3.609       14.227       20.699       15.477      202.407      428.459      239.531        0.132        0.044       41.968       15.147        0.130      331.773        0.004      873.990
01/05/2015  08:11:00       25.435       18.533        5.417        9.415        8.470        9.315       88.638       71.741       86.775        0.063        0.012       31.471        6.537        0.043      331.751       -0.034      874.003
01/05/2015  08:12:00       27.113       16.251       -3.486        8.730        8.724        9.713       76.210       76.110       94.349        0.063        0.012       31.611        6.090        0.037      331.714       -0.090      874.020
01/05/2015  08:13:00       27.393       16.926        6.976        6.991        4.679        6.454       48.870       21.889       41.653        0.060        0.006       32.200        3.728        0.013      331.741       -0.049      874.024
01/05/2015  08:14:00       11.585       12.422        2.631        9.072        6.189        5.430       82.306       38.309       29.481        0.022        0.008       16.986        3.930        0.054      331.769       -0.006      874.044
01/05/2015  08:15:00       -4.288        3.617        9.767        8.445        5.355        3.795       71.319       28.674       14.405        0.012        0.006        5.610        2.915        0.270      331.880        0.181      874.051
01/05/2015  08:16:00      -22.780       -4.861        0.074       10.858        8.701        5.280      117.900       75.716       27.876        0.038        0.011       23.293        4.673        0.040      331.806        0.059      874.054
01/05/2015  08:17:00      -46.621       -5.666       -5.309        6.607        7.119        6.278       43.652       50.685       39.410        0.118        0.007       46.964        3.483        0.005      331.771       -0.001      874.075
01/05/2015  08:18:00      -53.451      -11.202       -6.521        9.130        6.924        5.511       83.365       47.937       30.370        0.159        0.008       54.612        4.314        0.006      331.811        0.067      874.108
01/05/2015  08:19:00      -67.459      -26.234       -4.575        9.761        9.347        7.040       95.275       87.371       49.566        0.275        0.012       72.381        2.964        0.002      331.884        0.187      874.129
01/05/2015  08:20:00      -59.718       -9.390       -1.460       19.277       20.956       11.601      371.601      439.152      134.572        0.230        0.047       60.452        8.526        0.020      331.918        0.243      874.133
01/05/2015  08:21:00      -43.416       -9.327        1.756       18.767       14.760       11.811      352.207      217.857      139.511        0.134        0.035       44.406        8.831        0.040      331.917        0.241      874.140
01/05/2015  08:22:00      -43.962      -13.946        1.642       21.088       18.854       11.602      444.685      355.491      134.616        0.153        0.047       46.121        9.541        0.043      331.920        0.246      874.134
01/05/2015  08:23:00      -39.631      -17.712        9.462       20.844       14.872       13.637      434.465      221.165      185.972        0.141        0.042       43.409        6.678        0.024      331.989        0.359      874.127
01/05/2015  08:24:00      -53.974      -36.341        3.496       26.974       20.241       11.545      727.577      409.717      133.288        0.276        0.064       65.068       10.823        0.028      332.074        0.501      874.122
01/05/2015  08:25:00      -71.448      -44.086        2.491       28.532       21.552       19.051      814.085      464.497      362.942        0.435        0.082       83.955       17.001        0.041      332.076        0.503      874.099
01/05/2015  08:26:00      -45.264      -33.475        4.540       28.662       20.623       17.190      821.525      425.321      295.511        0.237        0.077       56.298       13.173        0.055      332.096        0.536      874.090
01/05/2015  08:27:00      -54.259      -37.858        7.393       35.746       31.863       15.142     1277.811     1015.238      229.295        0.348        0.126       66.161       14.359        0.047      332.158        0.639      874.059
01/05/2015  08:28:00      -50.000      -46.622        6.212       33.700       34.229       19.924     1135.693     1171.654      396.958        0.371        0.135       68.364       16.073        0.055      332.203        0.714      874.054
01/05/2015  08:29:00      -97.461      -75.980       -5.135       28.229       26.937       20.021      796.851      725.605      400.825        0.861        0.096      123.578       13.987        0.013      332.254        0.797      874.030
01/05/2015  08:30:00      -63.931      -40.123        1.883       33.171       27.346       21.611     1100.332      747.825      467.024        0.401        0.116       75.478       12.752        0.029      332.288        0.853      874.024
01/05/2015  08:31:00      -36.225      -28.489       -2.530       38.728       21.740       17.748     1499.872      472.622      315.006        0.221        0.114       46.086        7.737        0.028      332.361        0.972      874.021
01/05/2015  08:32:00       -9.867      -21.829        6.326       34.176       25.296       18.033     1167.976      639.888      325.190        0.137        0.107       23.956       14.488        0.366      332.459        1.136      874.031
01/05/2015  08:33:00      -50.512      -36.721        5.741       31.866       45.978       22.053     1015.436     2114.019      486.316        0.377        0.181       62.450       20.767        0.111      332.360        0.971      874.055
01/05/2015  08:34:00      -29.136      -43.386        6.542       41.625       33.540       19.640     1732.670     1124.912      385.748        0.301        0.162       52.262       12.575        0.058      332.447        1.116      874.076
01/05/2015  08:35:00      -45.232      -42.503        0.337       32.808       34.380       17.157     1076.375     1181.972      294.379        0.320        0.128       62.068       14.373        0.054      332.498        1.198      874.088
01/05/2015  08:36:00      -58.270      -37.231       -6.444       18.265       16.555       13.972      333.625      274.070      195.210        0.281        0.040       69.148        7.358        0.011      332.473        1.157      874.106
01/05/2015  08:37:00      -31.810        5.749        9.926       22.666       14.209       17.036      513.735      201.909      290.210        0.107        0.050       32.326       14.645        0.205      332.603        1.373      874.109
01/05/2015  08:38:00      -19.549       -8.934       -1.814       12.294       13.562        9.215      151.149      183.928       84.917        0.044        0.021       21.494        6.988        0.106      332.620        1.400      874.114
01/05/2015  08:39:00      -17.562      -16.032       -6.784        8.506        7.605        6.119       72.357       57.838       37.442        0.039        0.008       23.779        2.514        0.011      332.622        1.403      874.115
01/05/2015  08:40:00       -3.984        2.256       -1.577        7.612        6.315        7.426       57.937       39.883       55.151        0.009        0.008        4.578        6.020        1.729      332.925        1.907      874.121
01/05/2015  08:41:00       -5.053        1.270       -1.751        8.116       10.368        5.758       65.871      107.493       33.151        0.012        0.010        5.211        6.505        1.558      332.819        1.730      874.139
01/05/2015  08:42:00        8.473        4.854       14.379       12.959        8.803        7.453      167.923       77.495       55.549        0.030        0.015        9.765        2.651        0.074      333.061        2.130      874.152
01/05/2015  08:43:00       56.474       43.625       -0.622       28.854       21.516       12.960      832.547      462.931      167.964        0.328        0.073       71.361       14.547        0.042      332.737        1.595      874.164
01/05/2015  08:44:00      113.809       71.916        0.840       26.161       27.009       23.901      684.405      729.500      571.251        1.005        0.099      134.627       11.663        0.008      332.642        1.437      874.182
01/05/2015  08:45:00      133.336       96.683        7.352       24.534       28.324       25.683      601.920      802.274      659.632        1.462        0.103      164.700       12.311        0.006      332.519        1.234      874.212
01/05/2015  08:46:00      117.412       68.928       19.986       35.886       36.454       24.671     1287.819     1328.924      608.669        1.108        0.161      136.150       17.388        0.016      332.522        1.238      874.237
01/05/2015  08:47:00      115.424       62.881       17.075       35.567       28.464       23.831     1264.988      810.227      567.938        1.011        0.132      131.441       19.687        0.022      332.558        1.297      874.258
01/05/2015  08:48:00       97.698       62.178       -2.572       28.235       34.505       30.676      797.235     1190.563      941.010        0.817        0.146      115.806       22.443        0.038      332.588        1.349      874.271
01/05/2015  08:49:00       42.142       62.069       35.117       28.079       30.885       27.456      788.421      953.880      753.831        0.468        0.125       75.023       13.469        0.032      332.808        1.712      874.275
01/05/2015  08:50:00       43.918       81.707       69.210       53.954       39.532       33.546     2911.057     1562.818     1125.307        0.950        0.280       92.762       30.013        0.105      332.728        1.579      874.267
01/05/2015  08:51:00       98.404       91.123       55.164       31.539       25.034       29.655      994.677      626.707      879.401        1.176        0.125      134.115       21.713        0.026      332.413        1.059      874.254
01/05/2015  08:52:00       47.419      120.109      101.622       39.108       35.253       30.055     1529.465     1242.763      903.293        1.534        0.184      129.131       21.527        0.028      332.404        1.044      874.230
01/05/2015  08:53:00       52.286      136.877      100.622       40.201       31.141       26.662     1616.111      969.785      710.854        1.744        0.165      146.524       16.431        0.013      332.305        0.882      874.211
01/05/2015  08:54:00       74.046       93.917       65.624       43.802       25.434       33.915     1918.648      646.901     1150.246        1.116        0.186      119.596       25.935        0.047      332.332        0.926      874.192
01/05/2015  08:55:00       47.727       87.872       65.062       35.683       28.213       30.168     1273.302      795.955      910.116        0.861        0.149       99.997       19.524        0.038      332.451        1.122      874.179
01/05/2015  08:56:00       34.027       59.068       51.045       29.103       23.754       19.827      846.978      564.250      393.127        0.453        0.090       68.168        9.757        0.020      332.489        1.185      874.174
01/05/2015  08:57:00       11.060       40.551       36.441       22.676       24.119       19.314      514.214      581.746      373.047        0.228        0.073       42.032       14.647        0.121      332.695        1.525      874.170
01/05/2015  08:58:00       19.550       22.441        8.163       19.508       17.447       20.689      380.576      304.409      428.020        0.103        0.056       29.763       15.087        0.257      332.772        1.652      874.169
01/05/2015  08:59:00       15.297       29.271       -1.955       14.771       18.917       19.406      218.184      357.850      376.605        0.102        0.048       33.027       16.488        0.249      332.748        1.613      874.170
01/05/2015  09:00:00       44.139       35.890        7.707       12.929       17.907       19.034      167.155      320.675      362.294        0.207        0.043       56.889        9.478        0.028      332.764        1.639      874.152
01/05/2015  09:01:00       48.292       28.157      -10.010       20.959       19.586       13.553      439.284      383.627      183.680        0.212        0.050       55.901       11.254        0.041      332.707        1.545      874.128
01/05/2015  09:02:00       44.872       45.391       -5.694       27.602       15.335       16.868      761.898      235.166      284.529        0.269        0.064       63.827        9.647        0.023      332.880        1.831      874.111
01/05/2015  09:03:00       81.090       41.970       -8.885       18.432       14.913       16.158      339.734      222.402      261.076        0.462        0.041       91.307       12.686        0.019      332.669        1.483      874.102
01/05/2015  09:04:00       21.689       18.928       -9.918       18.396       16.674       11.899      338.404      278.036      141.576        0.084        0.038       28.787        8.839        0.094      332.858        1.794      874.103
01/05/2015  09:05:00       20.192       27.752       20.756       12.345       16.516       14.324      152.395      272.762      205.164        0.112        0.032       34.321       11.286        0.108      333.136        2.253      874.116
01/05/2015  09:06:00       27.937       20.258        2.218       14.418       12.010       14.138      207.885      144.248      199.885        0.087        0.028       34.508        8.501        0.061      333.097        2.189      874.122
01/05/2015  09:07:00       -4.129       28.251        7.072       16.771       18.881       14.019      281.272      356.501      196.519        0.085        0.042       28.551       12.726        0.199      333.367        2.636      874.140
01/05/2015  09:08:00       17.614        4.490       17.702       14.272       12.336       10.902      203.696      152.186      118.853        0.056        0.024       18.177        4.253        0.055      333.568        2.967      874.163
01/05/2015  09:09:00        8.815       15.747       14.584       17.679       19.044       18.483      312.553      362.679      341.630        0.078        0.051       18.046       14.264        0.625      333.577        2.982      874.180
01/05/2015  09:10:00       25.694       37.041       10.373       21.982       27.867       24.241      483.186      776.552      587.611        0.199        0.092       45.080       21.633        0.230      333.443        2.762      874.197
01/05/2015  09:11:00       17.034       39.546        8.189       24.988       25.019       21.272      624.419      625.926      452.482        0.181        0.085       43.059       18.634        0.187      333.399        2.688      874.208
01/05/2015  09:12:00       38.813       65.055        7.420       24.165       27.552       20.810      583.967      759.097      433.049        0.378        0.089       75.754       12.618        0.028      333.429        2.737      874.208
01/05/2015  09:13:00       30.616       62.218        2.640       28.037       26.072       20.737      786.074      679.739      430.037        0.336        0.095       69.343       18.041        0.068      333.589        3.002      874.185
01/05/2015  09:14:00       73.848       60.184       -6.161       33.307       23.473       23.926     1109.364      551.005      572.453        0.567        0.112       95.266       14.610        0.024      333.449        2.770      874.151
01/05/2015  09:15:00       35.323       37.231       43.745       40.214       30.123       31.659     1617.191      907.416     1002.298        0.404        0.176       51.322       28.848        0.316      333.694        3.177      874.120
01/05/2015  09:16:00       15.683       56.553       57.790       35.582       36.848       30.017     1266.113     1357.807      901.038        0.515        0.176       58.688       22.518        0.147      333.684        3.160      874.082
01/05/2015  09:17:00       62.023       70.273       54.617       47.287       31.719       39.330     2236.105     1006.122     1546.813        0.828        0.239       93.729       32.684        0.122      333.341        2.592      874.058
01/05/2015  09:18:00       38.658       54.096       64.279       38.268       28.057       25.479     1464.426      787.198      649.196        0.573        0.145       66.489       17.537        0.070      333.433        2.745      874.043
01/05/2015  09:19:00       64.827       68.684       48.957       29.209       16.879       23.658      853.141      284.911      559.697        0.651        0.085       94.446       17.826        0.036      333.199        2.359      874.028
01/05/2015  09:20:00       48.648       62.981       57.844       42.460       28.968       28.706     1802.810      839.129      824.034        0.657        0.173       79.582       18.840        0.056      333.335        2.582      874.004
01/05/2015  09:21:00       40.894      -18.517       27.761       32.864       60.209       25.155     1080.065     3625.079      632.761        0.406        0.267       44.891       29.358        0.428      333.425        2.732      873.987
01/05/2015  09:22:00       18.600       47.466       51.511       28.494       25.345       22.628      811.897      642.349      512.026        0.361        0.098       50.980       17.208        0.114      333.624        3.061      873.987
01/05/2015  09:23:00      -18.372       12.857       19.600       16.123       18.870       17.353      259.946      356.076      301.112        0.090        0.046       22.424       15.757        0.494      333.725        3.229      873.984
01/05/2015  09:24:00      -35.205        1.534        3.227       16.356       11.516       11.074      267.504      132.612      122.631        0.089        0.026       35.238        5.099        0.021      333.574        2.977      873.975
01/05/2015  09:25:00      -70.426        7.919        8.528       20.227       21.552       19.968      409.136      464.496      398.727        0.318        0.064       70.870        7.020        0.010      333.507        2.866      873.979
01/05/2015  09:26:00      -69.312       12.960       -2.966       18.173       11.760        6.769      330.243      138.297       45.818        0.275        0.026       70.513        6.809        0.009      333.458        2.785      873.987
01/05/2015  09:27:00      -39.043        4.049        1.730       12.134       14.784       13.665      147.226      218.563      186.734        0.105        0.028       39.253        6.186        0.025      333.757        3.282      873.994
01/05/2015  09:28:00      -28.933       17.674        8.113       14.723       16.186       17.339      216.772      261.998      300.626        0.100        0.039       33.904       10.006        0.087      333.924        3.557      874.002
01/05/2015  09:29:00      -34.975       19.826       11.857       17.234       18.707       15.725      297.007      349.969      247.261        0.133        0.045       40.204        8.737        0.047      334.150        3.933      874.011
01/05/2015  09:30:00      -24.483        0.563       -7.285       23.417        9.200       10.793      548.352       84.648      116.496        0.070        0.037       24.489       11.881        0.235      333.873        3.473      874.022
01/05/2015  09:31:00       -8.057       42.980       -3.646       21.418       25.144       20.422      458.728      632.216      417.056        0.172        0.075       43.729       20.146        0.212      333.959        3.617      874.023
01/05/2015  09:32:00       -3.516       48.078      -13.524       24.077       12.757       18.972      579.725      162.753      359.943        0.180        0.055       48.207        6.654        0.019      334.128        3.897      874.035
01/05/2015  09:33:00        1.345       27.532        6.096       25.565       15.394       20.602      653.551      236.980      424.429        0.106        0.066       27.565       17.480        0.402      334.256        4.108      874.054
01/05/2015  09:34:00      -35.551      -19.875       -3.895       16.224       14.697       10.167      263.210      215.994      103.371        0.113        0.029       40.729       12.027        0.087      333.966        3.629      874.069
01/05/2015  09:35:00      -33.040      -17.681       -2.002       20.942       22.301       12.249      438.556      497.314      150.042        0.125        0.054       37.473       10.485        0.078      333.994        3.675      874.073
01/05/2015  09:36:00      -66.007      -47.946        3.970       13.951       18.820       12.488      194.619      354.176      155.947        0.369        0.035       81.583        7.186        0.008      333.799        3.351      874.085
01/05/2015  09:37:00      -49.214      -33.063       18.816       31.458       21.445       18.734      989.600      459.875      350.946        0.283        0.090       59.289        9.000        0.023      334.026        3.729      874.091
01/05/2015  09:38:00      -13.814      -11.281        7.355       11.948       11.289       12.326      142.766      127.431      151.919        0.040        0.021       17.835        9.541        0.286      334.423        4.387      874.093
01/05/2015  09:39:00      -16.198      -29.163        0.709       20.049       31.413       14.763      401.963      986.750      217.942        0.136        0.080       33.360        8.898        0.071      334.169        3.966      874.089
01/05/2015  09:40:00      -16.484      -38.593       -4.897        6.348        9.959       10.028       40.297       99.186      100.559        0.101        0.012       41.966        6.916        0.027      333.925        3.561      874.085
01/05/2015  09:41:00      -18.654      -32.847        4.381        7.420       14.347       10.107       55.060      205.825      102.151        0.090        0.018       37.774        3.012        0.006      334.015        3.710      874.085
01/05/2015  09:42:00       -8.829       -4.769       17.929        9.577       22.864       25.714       91.719      522.757      661.195        0.085        0.064       10.035       20.759        4.280      334.652        4.766      874.085
01/05/2015  09:43:00        6.978       66.789       78.344       30.599       36.238       23.165      936.304     1313.175      536.621        0.672        0.139       67.153       20.323        0.092      334.642        4.748      874.087
01/05/2015  09:44:00       18.498       77.366       79.187       33.782       41.718       30.717     1141.230     1740.392      943.556        0.821        0.191       79.546       26.893        0.114      334.448        4.426      874.102
01/05/2015  09:45:00       63.982       74.506       77.155       62.069       46.689       31.478     3852.582     2179.878      990.895        1.131        0.351       98.209       24.501        0.062      334.305        4.190      874.120
01/05/2015  09:46:00       43.461       96.710       94.826       55.226       48.521       34.981     3049.904     2354.262     1223.669        1.343        0.331      106.027       31.305        0.087      334.142        3.919      874.138
01/05/2015  09:47:00       99.182      107.129       73.557       54.571       39.630       42.016     2977.990     1570.538     1765.355        1.652        0.316      145.992       31.873        0.048      333.904        3.525      874.138
01/05/2015  09:48:00       70.400       83.929       65.304       52.178       48.706       46.444     2722.591     2372.280     2157.013        1.176        0.363      109.546       45.603        0.173      333.927        3.564      874.120
01/05/2015  09:49:00        9.400       72.409       88.700       32.040       38.016       21.954     1026.554     1445.182      481.979        0.808        0.148       73.017       20.804        0.081      334.093        3.839      874.105
01/05/2015  09:50:00        5.345       91.275      101.019       40.987       43.536       24.383     1679.948     1895.405      594.540        1.137        0.208       91.432       22.619        0.061      334.145        3.925      874.088
01/05/2015  09:51:00       50.330       83.953       69.356       36.578       31.492       33.093     1337.976      991.768     1095.116        0.891        0.171       97.884       23.700        0.059      333.971        3.635      874.089
01/05/2015  09:52:00       37.030       64.602       61.246       36.502       49.305       33.932     1332.379     2431.015     1151.385        0.710        0.246       74.462       26.506        0.127      334.144        3.923      874.101
01/05/2015  09:53:00       99.883       99.109       65.722       50.699       26.656       27.117     2570.424      710.568      735.349        1.407        0.201      140.710       18.959        0.018      333.940        3.584      874.106
01/05/2015  09:54:00       49.948       63.846       57.500       37.094       32.282       20.822     1375.967     1042.128      433.538        0.636        0.143       81.063       16.604        0.042      334.087        3.828      874.105
01/05/2015  09:55:00       20.307       47.489       69.371       34.985       36.364       24.771     1223.974     1322.340      613.581        0.532        0.158       51.648       23.676        0.210      334.242        4.085      874.129
01/05/2015  09:56:00       47.734       58.343       47.834       19.757       21.448       16.492      390.354      460.015      271.980        0.455        0.056       75.382       14.321        0.036      334.074        3.807      874.137
01/05/2015  09:57:00       35.289       46.655       44.152       31.334       21.227       14.633      981.819      450.577      214.113        0.351        0.082       58.498        9.920        0.029      334.446        4.425      874.137
01/05/2015  09:58:00        0.263       13.712       40.128       19.692       51.078       16.467      387.776     2608.924      271.176        0.253        0.163       13.715       19.697        2.063      334.558        4.610      874.148
01/05/2015  09:59:00        9.269       26.560       14.763       35.130       32.492       24.673     1234.119     1055.735      608.763        0.195        0.145       28.131       19.151        0.463      334.635        4.739      874.157
01/05/2015  10:00:00       29.144       47.869       53.078       35.862       31.377       25.937     1286.099      984.523      672.716        0.445        0.147       56.043        8.615        0.024      334.560        4.614      874.156
01/05/2015  10:01:00       59.563       59.992       61.756       42.984       28.629       22.170     1847.614      819.602      491.512        0.706        0.158       84.539       17.145        0.041      334.293        4.169      874.138
01/05/2015  10:02:00       12.510       21.450       49.360       29.478       41.115       18.010      868.924     1690.445      324.349        0.297        0.144       24.831       12.786        0.265      334.550        4.596      874.116
01/05/2015  10:03:00        7.532       -3.230       42.705       27.382       46.993       29.746      749.798     2208.372      884.834        0.287        0.192        8.195       27.861       11.558      334.649        4.760      874.115
01/05/2015  10:04:00        6.997       32.305       25.823       27.049       35.437       36.539      731.674     1255.767     1335.083        0.254        0.166       33.054       20.616        0.389      334.635        4.738      874.112
01/05/2015  10:05:00       18.969       33.065       21.979       39.655       29.928       28.183     1572.503      895.670      794.298        0.260        0.163       38.120       10.992        0.083      334.725        4.888      874.107
01/05/2015  10:06:00       43.781       52.609       44.413       49.073       29.340       39.996     2408.169      860.829     1599.712        0.576        0.243       68.443       33.143        0.234      334.474        4.471      874.102
01/05/2015  10:07:00       66.791       43.178       27.574       20.271       26.558       32.512      410.903      705.331     1057.044        0.463        0.109       79.533       13.884        0.030      334.250        4.100      874.081
01/05/2015  10:08:00       63.105       58.907       47.195       28.674       16.726       22.194      822.195      279.746      492.553        0.564        0.080       86.327       12.089        0.020      334.384        4.323      874.074
01/05/2015  10:09:00        9.011       74.856       88.538       32.732       29.742       22.472     1071.358      884.609      505.009        0.799        0.123       75.396       22.693        0.091      334.571        4.630      874.066
01/05/2015  10:10:00       38.940       86.564       76.623       40.061       36.719       37.734     1604.903     1348.287     1423.864        0.963        0.219       94.919       27.779        0.086      334.513        4.534      874.068
01/05/2015  10:11:00      105.909       73.329       40.766       36.139       25.107       31.937     1306.038      630.351     1019.949        1.061        0.148      128.817       27.615        0.046      334.358        4.278      874.079
01/05/2015  10:12:00       68.064       49.257       38.362       41.060       23.639       27.140     1685.930      558.799      736.574        0.576        0.149       84.017       25.015        0.089      334.489        4.494      874.080
01/05/2015  10:13:00       41.419       89.702       79.001       42.335       36.847       28.678     1792.238     1357.693      822.408        0.999        0.199       98.803       11.878        0.014      334.700        4.845      874.066
01/05/2015  10:14:00       97.258       95.043       68.967       41.766       36.810       37.505     1744.432     1354.977     1406.644        1.388        0.225      135.986       30.652        0.051      334.487        4.492      874.041
01/05/2015  10:15:00       13.699       70.455       85.425       35.980       45.929       26.682     1294.575     2109.496      711.954        0.828        0.206       71.775       25.149        0.123      334.805        5.020      874.034
01/05/2015  10:16:00       58.803       76.593       59.694       59.156       43.231       37.781     3499.421     1868.895     1427.415        0.984        0.340       96.563       36.114        0.140      334.655        4.771      874.026
01/05/2015  10:17:00       46.694       89.624       68.518       29.363       19.776       32.434      862.199      391.089     1051.939        0.861        0.115      101.059       23.324        0.053      334.614        4.704      874.024
01/05/2015  10:18:00      119.124       69.303       24.064       32.557       22.248       34.834     1059.969      494.987     1213.412        1.117        0.138      137.817       20.915        0.023      334.522        4.549      874.029
01/05/2015  10:19:00       39.869       42.120       40.897       33.735       26.160       27.926     1138.065      684.366      779.873        0.382        0.130       57.997       24.251        0.175      334.811        5.030      874.015
01/05/2015  10:20:00       19.208        1.319       21.469       29.416       37.891       32.558      865.278     1435.704     1060.046        0.210        0.168       19.253       28.561        2.201      335.079        5.476      874.012
01/05/2015  10:21:00        1.702       50.543       64.105       16.637       30.134       22.985      276.795      908.034      528.311        0.419        0.086       50.572       19.574        0.150      335.011        5.362      874.014
01/05/2015  10:22:00       58.540       56.290       11.642       36.659       24.366       28.882     1343.877      593.680      834.150        0.475        0.139       81.213       12.372        0.023      334.808        5.025      874.016
01/05/2015  10:23:00       57.067       57.592        6.968       28.578       29.932       31.365      816.682      895.947      983.766        0.466        0.135       81.077       25.223        0.097      334.712        4.867      874.029
01/05/2015  10:24:00       37.579       55.220      -12.263       20.731       21.632       16.343      429.761      467.928      267.106        0.289        0.058       66.794       12.074        0.033      334.799        5.011      874.025
01/05/2015  10:25:00       12.394       51.123      -11.127       22.087       22.026       18.295      487.850      485.125      334.721        0.210        0.065       52.604       13.987        0.071      334.856        5.105      873.997
01/05/2015  10:26:00       -1.168       50.026       -7.043       19.716       37.514       17.333      388.706     1407.295      300.421        0.232        0.105       50.040       16.550        0.109      334.983        5.317      873.976
01/05/2015  10:27:00       14.235       31.388        2.044       22.915       26.877       19.586      525.090      722.358      383.615        0.141        0.082       34.465       11.554        0.112      335.373        5.964      873.947
01/05/2015  10:28:00       12.915       41.995      -11.139       25.020       18.028       16.210      625.984      325.017      262.772        0.163        0.061       43.936       11.389        0.067      335.106        5.522      873.932
01/05/2015  10:29:00       29.336       60.120       -5.919       27.255       21.011       22.572      742.856      441.469      509.473        0.310        0.085       66.895       11.698        0.031      335.283        5.814      873.926
01/05/2015  10:30:00        0.184       55.002        2.262       25.718       24.710       20.603      661.390      610.595      424.484        0.236        0.085       55.003       13.165        0.057      335.551        6.262      873.923
01/05/2015  10:31:00       71.873       33.774        7.033       56.425       41.528       31.913     3183.740     1724.591     1018.408        0.614        0.296       79.413       17.695        0.050      335.272        5.795      873.923
01/05/2015  10:32:00       38.740       42.410        4.500       24.620       23.770       24.541      606.166      564.993      602.251        0.255        0.089       57.440       11.571        0.041      335.184        5.650      873.923
01/05/2015  10:33:00       15.276       38.802       31.343       25.130       32.482       33.936      631.519     1055.106     1151.654        0.278        0.142       41.701       17.784        0.182      335.755        6.601      873.929
01/05/2015  10:34:00      -13.883       61.176       87.577       20.141       43.421       27.693      405.645     1885.346      766.917        0.733        0.153       62.731       26.494        0.178      335.578        6.305      873.903
01/05/2015  10:35:00       20.481       38.964       65.945       46.529       45.051       44.669     2164.972     2029.570     1995.315        0.624        0.309       44.019       38.036        0.747      335.634        6.398      873.888
01/05/2015  10:36:00       32.221       39.507       47.078       57.405       58.567       51.150     3295.305     3430.067     2616.305        0.708        0.467       50.981       40.137        0.620      335.475        6.134      873.856
01/05/2015  10:37:00       49.799       67.224       66.634       54.443       42.330       38.246     2963.987     1791.866     1462.784        0.883        0.311       83.660       32.162        0.148      335.403        6.013      873.849
01/05/2015  10:38:00        4.143       -8.971       41.339       37.502       80.013       41.058     1406.365     6402.156     1685.749        0.565        0.475        9.881       53.240       29.030      335.541        6.244      873.824
01/05/2015  10:39:00       -1.192      -54.425       25.436       42.672       54.418       27.765     1820.921     2961.367      770.869        0.458        0.278       54.438       26.089        0.230      335.536        6.235      873.826
01/05/2015  10:40:00       59.988       33.872       40.727       43.360       45.210       42.233     1880.061     2043.938     1783.589        0.605        0.285       68.890       33.911        0.242      335.428        6.056      873.807
01/05/2015  10:41:00       39.381      -67.147       24.982       39.173       49.466       35.589     1534.495     2446.898     1266.574        0.596        0.262       77.843       26.868        0.119      335.396        6.001      873.792
01/05/2015  10:42:00       24.350       44.664       61.634       46.205       61.852       58.218     2134.868     3825.640     3389.343        0.787        0.467       50.870       49.121        0.932      335.577        6.303      873.775
01/05/2015  10:43:00       26.247       44.757       54.205       39.698       44.364       32.551     1575.928     1968.174     1059.591        0.512        0.230       51.885       27.835        0.288      335.495        6.168      873.760
01/05/2015  10:44:00       76.457       75.234       49.861       54.883       31.956       27.142     3012.196     1021.158      736.698        0.938        0.239      107.266       22.937        0.046      335.369        5.958      873.737
01/05/2015  10:45:00       50.267       62.798       65.383       45.478       52.102       37.864     2068.267     2714.611     1433.649        0.848        0.311       80.438       29.170        0.132      335.558        6.273      873.732
01/05/2015  10:46:00       57.344       34.960       20.804       24.406       45.129       26.449      595.657     2036.651      699.525        0.414        0.167       67.161        7.415        0.012      335.510        6.193      873.727
01/05/2015  10:47:00       37.976      -34.527       16.213       30.167       44.902       32.946      910.064     2016.215     1085.426        0.345        0.201       51.325       26.365        0.264      335.787        6.654      873.725
01/05/2015  10:48:00       23.288       36.374       53.755       37.242       43.895       32.084     1386.981     1926.735     1029.353        0.455        0.217       43.190       33.000        0.584      336.075        7.134      873.706
01/05/2015  10:49:00       87.192       61.889       42.803       36.373       42.193       34.112     1323.031     1780.217     1163.633        0.876        0.213      106.923       27.456        0.066      335.516        6.202      873.684
01/05/2015  10:50:00       76.142       56.711       46.046       28.565       41.336       30.192      815.948     1708.683      911.534        0.728        0.172       94.941       26.551        0.078      335.640        6.410      873.657
01/05/2015  10:51:00       37.554       95.016       88.728       41.917       41.916       23.751     1757.019     1756.947      564.088        1.119        0.204      102.168       10.745        0.011      335.763        6.613      873.620
01/05/2015  10:52:00       18.512       63.659       85.673       27.391       38.530       25.631      750.247     1484.545      656.952        0.731        0.145       66.296       26.075        0.155      335.713        6.529      873.597
01/05/2015  10:53:00       14.381       20.046       44.442       26.219       47.777       26.446      687.455     2282.607      699.393        0.313        0.183       24.671       21.166        0.736      336.041        7.076      873.574
01/05/2015  10:54:00       13.889       19.200       49.072       33.330       51.522       31.009     1110.869     2654.534      961.540        0.385        0.236       23.698       30.819        1.691      336.158        7.271      873.554
01/05/2015  10:55:00       36.707       38.395       66.208       38.309       46.297       34.149     1467.591     2143.430     1166.188        0.599        0.239       53.119       30.812        0.336      336.213        7.365      873.538
01/05/2015  10:56:00       33.048       49.276       62.510       45.633       44.924       43.050     2082.408     2018.168     1853.293        0.669        0.298       59.332       35.642        0.361      336.196        7.336      873.525
01/05/2015  10:57:00      112.621       87.490       38.458       25.752       19.481       30.062      663.167      379.500      903.709        1.188        0.097      142.612       14.699        0.011      335.587        6.319      873.524
01/05/2015  10:58:00       49.519       68.707       44.843       33.267       27.077       30.015     1106.676      733.179      900.924        0.596        0.137       84.692       22.783        0.072      335.796        6.669      873.514
01/05/2015  10:59:00       34.068       63.702       49.285       40.834       37.286       43.986     1667.445     1390.215     1934.800        0.632        0.250       72.239       29.954        0.172      336.243        7.415      873.516
01/05/2015  11:00:00       78.750       85.107       42.420       64.426       44.854       23.151     4150.663     2011.842      535.988        1.097        0.335      115.951       14.478        0.016      335.909        6.855      873.513
01/05/2015  11:01:00       38.106       51.650        8.466       35.334       30.004       33.738     1248.512      900.261     1138.281        0.374        0.164       64.186       24.694        0.148      336.182        7.313      873.521
01/05/2015  11:02:00       38.396       42.511        0.544       35.077       38.873       28.483     1230.383     1511.103      811.262        0.342        0.178       57.283       22.383        0.153      336.130        7.225      873.523
01/05/2015  11:03:00       71.708       57.354        1.046       39.835       45.291       33.958     1586.802     2051.306     1153.148        0.661        0.240       91.823       20.052        0.048      336.216        7.369      873.525
01/05/2015  11:04:00      116.909       83.612       -5.332       50.138       45.357       40.594     2513.849     2057.223     1647.863        1.345        0.311      143.732       27.104        0.036      336.089        7.157      873.505
01/05/2015  11:05:00       90.697       77.521        8.117       48.711       36.535       39.141     2372.752     1334.782     1531.988        0.977        0.262      119.313       22.800        0.037      335.991        6.993      873.504
01/05/2015  11:06:00       38.800      -18.977      -12.518       40.179       71.323       28.677     1614.361     5087.003      822.391        0.477        0.376       43.192       20.431        0.224      336.158        7.272      873.475
01/05/2015  11:07:00       61.415        9.012       29.180       65.067       69.978       42.810     4233.649     4896.984     1832.681        0.783        0.548       62.072       38.488        0.384      336.317        7.538      873.451
01/05/2015  11:08:00       20.993       47.864       58.487       46.154       32.901       31.627     2130.206     1082.479     1000.258        0.518        0.211       52.265       31.606        0.366      336.477        7.805      873.434
01/05/2015  11:09:00       42.336       69.254       58.296       55.312       37.495       34.439     3059.379     1405.910     1186.034        0.782        0.283       81.169       25.778        0.101      336.390        7.660      873.416
01/05/2015  11:10:00       54.157        9.593       41.359       63.295       85.812       45.433     4006.221     7363.781     2064.184        0.908        0.672       55.000       52.102        0.897      336.285        7.484      873.393
01/05/2015  11:11:00       63.567       47.266       57.125       60.726       70.452       35.400     3687.604     4963.495     1253.137        0.972        0.495       79.214       34.628        0.191      336.231        7.393      873.376
01/05/2015  11:12:00       62.735       43.734       39.386       54.476       34.951       25.079     2967.599     1221.563      628.964        0.611        0.241       76.474       27.642        0.131      336.191        7.325      873.356
01/05/2015  11:13:00       70.712     -113.098       -6.382       48.687       55.642       38.722     2370.444     3095.990     1499.358        1.240        0.348      133.384       29.328        0.048      336.173        7.296      873.340
01/05/2015  11:14:00       48.404        9.028       20.488       42.651       47.087       36.423     1819.118     2217.225     1326.619        0.410        0.268       49.238       38.761        0.620      336.449        7.758      873.308
01/05/2015  11:15:00       45.330      -17.071       10.744       37.544       55.899       36.026     1409.518     3124.701     1297.890        0.415        0.292       48.438       38.676        0.638      336.301        7.511      873.283
01/05/2015  11:16:00       77.494      -68.151       -3.523       60.012       71.589       43.817     3601.426     5124.967     1919.905        1.065        0.532      103.198       54.063        0.274      336.325        7.551      873.246
01/05/2015  11:17:00       16.799       66.554       86.580       45.020       65.960       59.965     2026.756     4350.762     3595.799        1.109        0.499       68.642       56.693        0.682      336.449        7.758      873.220
01/05/2015  11:18:00       12.772      -15.685       45.973       29.897       73.880       36.659      893.802     5458.244     1343.866        0.511        0.385       20.227       37.057        3.357      336.695        8.169      873.216
01/05/2015  11:19:00       75.079     -106.998       -2.042       67.504       71.748       47.091     4556.782     5147.802     2217.572        1.450        0.596      130.711       51.146        0.153      336.527        7.888      873.200
01/05/2015  11:20:00       -5.828       21.486       49.341       33.890       30.546       25.270     1148.507      933.047      638.580        0.282        0.136       22.263       20.092        0.815      336.833        8.401      873.206
01/05/2015  11:21:00       -1.942        1.278       26.410       18.307       18.546       22.399      335.161      343.970      501.729        0.094        0.059        2.325       16.479       50.235      337.129        8.895      873.199
01/05/2015  11:22:00       89.521      -74.834        5.264       57.876       67.305       39.756     3349.674     4529.993     1580.549        1.155        0.473      116.680       44.026        0.142      336.453        7.764      873.190
01/05/2015  11:23:00       64.587      -98.552      -12.363       50.977       45.325       33.868     2598.612     2054.343     1147.061        0.992        0.290      117.831       20.201        0.029      336.508        7.858      873.178
01/05/2015  11:24:00       55.383       -3.744       43.458       51.154       65.347       52.163     2616.735     4270.274     2721.004        0.729        0.480       55.509       48.450        0.762      336.659        8.109      873.169
01/05/2015  11:25:00       18.596      -21.178       26.822       20.723       51.403       32.062      429.463     2642.234     1027.982        0.281        0.205       28.184       34.184        1.471      336.754        8.269      873.149
01/05/2015  11:26:00       -3.528       -2.148       10.120       39.111       29.777       24.125     1529.698      886.695      582.016        0.156        0.150        4.131       24.634       35.568      336.486        7.820      873.135
01/05/2015  11:27:00       70.584       74.704       54.152       58.418       39.826       32.524     3412.664     1586.103     1057.837        0.977        0.303      102.776       36.486        0.126      336.718        8.208      873.120
01/05/2015  11:28:00       85.996      125.592       97.164       86.599       42.190       53.520     7499.446     1779.985     2864.397        2.237        0.607      152.212       58.128        0.146      336.489        7.823      873.113
01/05/2015  11:29:00       64.284       51.409       74.731       48.941       46.775       36.654     2395.205     2187.941     1343.552        0.914        0.296       82.312       31.711        0.148      336.444        7.750      873.122
01/05/2015  11:30:00       30.302       31.451       23.597       18.699       17.148       15.022      349.642      294.049      225.650        0.167        0.043       43.673       11.220        0.066      336.461        7.780      873.115
01/05/2015  11:31:00       22.721       55.321       88.418       53.179       67.985       51.492     2828.056     4621.945     2651.394        1.075        0.505       59.805       52.052        0.758      336.825        8.387      873.108
01/05/2015  11:32:00      110.096      134.072       85.069       59.052       39.594       50.943     3487.092     1567.650     2595.143        2.249        0.382      173.483       47.390        0.075      336.388        7.655      873.095
01/05/2015  11:33:00       81.482       64.192       38.731       53.638       37.445       44.986     2877.026     1402.122     2023.715        0.928        0.315      103.730       35.177        0.115      336.453        7.764      873.098
01/05/2015  11:34:00       70.384       67.927       41.057       34.640       27.594       24.861     1199.924      761.441      618.094        0.692        0.129       97.816       16.719        0.029      336.562        7.948      873.092
01/05/2015  11:35:00       73.725       19.193       30.537       55.519       45.107       42.275     3082.397     2034.605     1787.197        0.682        0.345       76.182       38.080        0.250      336.800        8.345      873.059
01/05/2015  11:36:00       33.756       16.865       15.117       59.493       47.103       33.639     3539.421     2218.650     1131.592        0.427        0.344       37.735       18.419        0.238      336.847        8.424      873.052
01/05/2015  11:37:00       70.816       44.428        6.291       36.800       32.029       27.655     1354.232     1025.833      764.776        0.509        0.157       83.598       15.618        0.035      336.769        8.293      873.037
01/05/2015  11:38:00       45.414       67.754       60.421       54.220       47.692       50.501     2939.771     2274.507     2550.365        0.903        0.388       81.566       45.399        0.310      336.987        8.657      873.041
01/05/2015  11:39:00      103.537       92.108       47.379       65.252       41.666       37.179     4257.847     1736.059     1382.244        1.441        0.369      138.578       34.137        0.061      336.715        8.201      873.045
01/05/2015  11:40:00       64.751       65.080       38.035       32.865       24.049       29.484     1080.140      578.336      869.287        0.620        0.126       91.805        8.881        0.009      336.669        8.126      873.043
01/05/2015  11:41:00       46.058       41.549       10.759       14.759       19.370       15.719      217.818      375.194      247.095        0.240        0.042       62.030       10.930        0.031      336.736        8.238      873.041
01/05/2015  11:42:00       87.018       55.021        2.134       45.175       40.611       26.032     2040.766     1649.261      677.668        0.748        0.218      102.953       24.766        0.058      336.853        8.434      873.028
01/05/2015  11:43:00       16.757       29.752       31.586       41.686       41.847       51.430     1737.759     1751.135     2645.072        0.415        0.307       34.147       28.340        0.689      337.340        9.248      873.012
01/05/2015  11:44:00       18.395       59.429       78.651       46.135       53.302       34.376     2128.430     2841.151     1181.722        0.810        0.308       62.211       31.834        0.262      337.274        9.138      873.006
01/05/2015  11:45:00       23.025       61.996       68.072       56.026       37.302       28.107     3138.959     1391.440      790.006        0.716        0.266       66.133       33.108        0.251      337.338        9.245      873.000
01/05/2015  11:46:00        7.118       47.103       51.615       33.731       36.831       25.863     1137.760     1356.557      668.917        0.405        0.158       47.638       25.350        0.283      337.367        9.294      872.988
01/05/2015  11:47:00       33.085       50.815       49.583       44.306       36.865       43.513     1963.041     1359.015     1893.347        0.567        0.261       60.636       20.307        0.112      337.408        9.362      872.980
01/05/2015  11:48:00      104.255       81.062       12.661       51.653       37.936       44.362     2668.084     1439.177     1968.024        1.184        0.304      132.061       28.516        0.047      337.012        8.699      872.963
01/05/2015  11:49:00       67.670       37.996        7.084       60.162       27.102       30.763     3619.523      734.526      946.356        0.569        0.265       77.608       14.154        0.033      337.046        8.757      872.961
01/05/2015  11:50:00        6.591       37.650       49.193       22.211       42.606       20.300      493.338     1815.279      412.091        0.330        0.136       38.223       22.261        0.339      337.370        9.298      872.949
01/05/2015  11:51:00       74.212       44.577       33.119       39.501       34.885       33.864     1560.362     1216.967     1146.740        0.626        0.196       86.571       14.855        0.029      337.063        8.784      872.949
01/05/2015  11:52:00       56.218       17.301       19.620       45.949       42.276       31.935     2111.340     1787.263     1019.827        0.438        0.246       58.820       24.453        0.173      337.139        8.912      872.949
01/05/2015  11:53:00       73.054       46.439       31.694       78.668       48.859       35.390     6188.650     2387.227     1252.459        0.916        0.491       86.565       20.761        0.058      337.382        9.318      872.934
01/05/2015  11:54:00       78.615       66.544       47.245       53.390       40.451       44.704     2850.510     1636.313     1998.434        0.966        0.324      102.997       31.653        0.094      337.236        9.075      872.924
01/05/2015  11:55:00       48.610       46.986       12.881       39.591       26.477       31.316     1567.438      701.017      980.688        0.399        0.162       67.606       17.819        0.069      336.932        8.565      872.904
01/05/2015  11:56:00       55.165      -38.076        7.306       31.035       51.368       37.910      963.164     2638.672     1437.142        0.479        0.252       67.030       39.341        0.344      336.886        8.490      872.868
01/05/2015  11:57:00       36.929      -31.933       28.241       30.017       30.984       28.895      901.003      959.982      834.947        0.294        0.135       48.821       16.267        0.111      337.210        9.031      872.840
01/05/2015  11:58:00        0.138        8.525       39.768       23.316       25.156       23.560      543.633      632.839      555.051        0.169        0.087        8.526       10.463        1.506      337.584        9.657      872.798
01/05/2015  11:59:00       68.051       55.585       41.213       59.271       43.615       36.522     3513.033     1902.290     1333.887        0.808        0.337       87.867       32.632        0.138      337.372        9.303      872.780
01/05/2015  12:00:00       30.395       44.447      -20.222       43.340       50.160       21.000     1878.315     2516.050      441.019        0.407        0.242       53.846       23.699        0.194      337.187        8.992      872.765
01/05/2015  12:01:00       21.197       42.275       44.208       46.145       46.378       34.781     2129.355     2150.909     1209.689        0.484        0.274       47.291       31.206        0.435      337.550        9.602      872.739
01/05/2015  12:02:00       65.887       73.893       65.395       63.331       52.976       42.770     4010.814     2806.413     1829.266        1.136        0.432       99.002       33.390        0.114      337.283        9.152      872.722
01/05/2015  12:03:00       -9.260       27.652       64.851       29.093       57.715       33.628      846.431     3330.990     1130.847        0.518        0.265       29.161       34.072        1.365      337.452        9.435      872.690
01/05/2015  12:04:00       11.578        2.597       57.871       34.771       68.338       29.664     1209.005     4670.150      879.951        0.512        0.338       11.866       30.044        6.411      337.688        9.831      872.681
01/05/2015  12:05:00       22.185      -34.998       25.253       45.930       64.372       35.709     2109.566     4143.694     1275.110        0.494        0.376       41.437       34.673        0.700      337.516        9.544      872.671
01/05/2015  12:06:00       62.354       -3.716       45.982       56.032       41.251       38.213     3139.637     1701.639     1460.242        0.616        0.315       62.464       37.617        0.363      337.572        9.637      872.668
01/05/2015  12:07:00       11.391      -28.097       22.853       27.909       53.845       28.076      778.938     2899.246      788.278        0.295        0.223       30.318       29.627        0.955      337.459        9.447      872.673
01/05/2015  12:08:00       68.790      -91.397      -18.505       32.374       37.101       18.522     1048.044     1376.489      343.074        0.810        0.138      114.392       19.865        0.030      337.217        9.042      872.678
01/05/2015  12:09:00       23.843      -41.092        4.733       34.090       41.691       29.054     1162.128     1738.150      844.150        0.301        0.187       47.508       21.742        0.209      337.558        9.612      872.686
01/05/2015  12:10:00       43.861      -83.087       -6.500       43.523       51.100       28.192     1894.229     2611.160      794.782        0.708        0.265       93.953       28.834        0.094      337.464        9.454      872.679
01/05/2015  12:11:00       68.278      -71.311       -1.381       38.427       62.996       34.367     1476.667     3968.442     1181.068        0.819        0.331       98.728       39.067        0.157      337.427        9.394      872.698
01/05/2015  12:12:00       55.416       12.218       47.140       41.192       72.944       52.794     1696.751     5320.864     2787.196        0.762        0.490       56.747       51.299        0.817      337.659        9.782      872.706
01/05/2015  12:13:00       68.762       48.723       50.237       37.722       36.879       34.386     1422.950     1360.089     1182.406        0.679        0.198       84.275       31.703        0.142      337.456        9.442      872.699
01/05/2015  12:14:00       45.900      103.659       98.057       50.891       45.731       33.667     2589.921     2091.339     1133.433        1.414        0.291      113.366       32.993        0.085      337.419        9.382      872.700
01/05/2015  12:15:00       97.657       56.182       51.811       54.082       55.838       44.073     2924.905     3117.877     1942.401        1.168        0.399      112.665       32.623        0.084      337.294        9.172      872.698
01/05/2015  12:16:00       45.422       49.754       56.527       42.985       46.899       35.938     1847.673     2199.551     1291.509        0.654        0.267       67.369       30.135        0.200      337.507        9.529      872.692
01/05/2015  12:17:00       79.818       82.270       63.627       51.478       55.559       46.792     2649.978     3086.754     2189.470        1.256        0.396      114.627       40.698        0.126      337.501        9.517      872.691
01/05/2015  12:18:00      115.693       92.006       48.975       30.254       22.253       30.978      915.334      495.209      959.651        1.331        0.119      147.817       15.943        0.012      337.290        9.165      872.674
01/05/2015  12:19:00       93.045       77.649       44.275       59.977       54.590       41.295     3597.289     2980.093     1705.236        1.246        0.414      121.189       35.320        0.085      337.476        9.477      872.645
01/05/2015  12:20:00       76.504       64.758        7.392       41.301       33.981       32.432     1705.804     1154.686     1051.865        0.701        0.196      100.232       20.878        0.043      337.425        9.392      872.621
01/05/2015  12:21:00       10.852      -29.355       16.143       50.007       81.755       29.647     2500.691     6683.826      878.971        0.565        0.503       31.297       34.826        1.238      337.744        9.926      872.576
01/05/2015  12:22:00       34.012       -5.885       43.318       56.050      106.678       73.836     3141.563    11380.134     5451.785        1.152        0.999       34.517       77.191        5.001      337.828       10.065      872.543
01/05/2015  12:23:00       14.603       28.126       58.902       37.443       47.193       37.764     1402.015     2227.161     1426.144        0.476        0.253       31.691       30.652        0.935      337.723        9.891      872.532
01/05/2015  12:24:00       64.038      -20.963       27.461       46.581       45.474       31.339     2169.814     2067.928      982.164        0.526        0.261       67.382       31.769        0.222      337.608        9.697      872.515
01/05/2015  12:25:00       39.421       19.963       33.631       37.317       30.300       31.458     1392.557      918.111      989.619        0.319        0.165       44.188       26.499        0.360      337.826       10.063      872.477
01/05/2015  12:26:00       43.867      -59.061        9.372       37.444       59.347       38.829     1402.070     3522.026     1507.724        0.596        0.322       73.569       41.443        0.317      337.840       10.086      872.443
01/05/2015  12:27:00       12.519       -2.329       34.879       27.490       69.473       39.622      755.698     4826.546     1569.872        0.426        0.358       12.734       50.073       15.463      337.968       10.299      872.426
01/05/2015  12:28:00      -28.827        6.293        6.664       48.881       18.966       16.226     2389.369      359.724      263.288        0.196        0.151       29.506       15.589        0.279      337.730        9.902      872.410
01/05/2015  12:29:00      -53.224      -14.329        4.394       31.443       28.247       20.558      988.634      797.867      422.630        0.263        0.110       55.119       14.018        0.065      337.820       10.052      872.395
01/05/2015  12:30:00      -55.170      -38.180        0.719       28.589       22.075       20.650      817.313      487.304      426.417        0.312        0.087       67.092       11.209        0.028      337.656        9.777      872.389
01/05/2015  12:31:00        0.291      -14.527        0.079       25.269       21.539       16.622      638.499      463.945      276.304        0.079        0.069       14.530        9.162        0.398      337.889       10.167      872.388
01/05/2015  12:32:00       21.989        5.369       -2.575       20.118       16.577       14.988      404.738      274.799      224.645        0.071        0.045       22.635        8.032        0.126      337.830       10.068      872.378
01/05/2015  12:33:00       49.774       36.603        9.673       25.692       27.196       21.992      660.082      739.630      483.651        0.290        0.094       61.784       16.194        0.069      337.765        9.960      872.369
01/05/2015  12:34:00       73.777       44.241       21.297       29.445       25.932       23.528      866.982      672.491      553.564        0.497        0.105       86.025       13.936        0.026      337.736        9.913      872.362
01/05/2015  12:35:00       42.052       21.591       30.618       46.269       35.445       36.859     2140.793     1256.356     1358.577        0.396        0.238       47.272       35.989        0.580      338.002       10.356      872.361
01/05/2015  12:36:00        6.961       41.210       44.528       22.905       31.791       37.307      524.622     1010.640     1391.832        0.333        0.146       41.793       25.847        0.382      338.197       10.686      872.371
01/05/2015  12:37:00       41.051       35.251        2.015       37.565       35.427       20.165     1411.136     1255.079      406.619        0.300        0.154       54.109       16.897        0.098      338.014       10.378      872.379
01/05/2015  12:38:00       86.175       73.181       -0.067       48.839       35.916       31.647     2385.259     1289.958     1001.526        0.873        0.234      113.055        5.706        0.003      337.916       10.214      872.382
01/05/2015  12:39:00      118.223      105.715       11.932       31.158       33.621       31.282      970.803     1130.383      978.576        1.419        0.154      158.595       15.773        0.010      337.652        9.772      872.379
01/05/2015  12:40:00       89.336       96.821        3.299       34.402       28.041       26.787     1183.507      786.273      717.538        1.003        0.134      131.740       13.758        0.011      337.681        9.820      872.368
01/05/2015  12:41:00       54.816       62.588        7.738       35.138       23.632       25.663     1234.668      558.451      658.584        0.472        0.123       83.199       21.440        0.066      337.750        9.935      872.367
01/05/2015  12:42:00       36.320       42.867       49.218       35.210       53.636       33.635     1239.755     2876.791     1131.289        0.541        0.262       56.185       33.498        0.355      337.939       10.251      872.359
01/05/2015  12:43:00       48.216       81.429       84.055       49.131       42.844       29.219     2413.827     1835.648      853.729        1.056        0.255       94.634       24.023        0.064      337.925       10.227      872.352
01/05/2015  12:44:00       74.221       96.354       82.286       60.928       59.544       53.561     3712.219     3545.482     2868.748        1.584        0.506      121.626       55.347        0.207      337.906       10.195      872.332
01/05/2015  12:45:00       71.166       74.952       88.070       64.436       49.197       37.942     4152.007     2420.368     1439.614        1.322        0.401      103.356       40.684        0.155      337.964       10.295      872.314
01/05/2015  12:46:00       61.963       40.169       37.767       43.149       43.356       29.337     1861.810     1879.775      860.667        0.574        0.230       73.844       16.972        0.053      338.017       10.383      872.309
01/05/2015  12:47:00       11.163       73.851       85.669       32.142       45.638       26.391     1033.091     2082.843      696.475        0.836        0.191       74.690       23.954        0.103      338.048       10.435      872.292
01/05/2015  12:48:00       56.470       88.775       93.863       58.204       56.116       39.424     3387.724     3148.994     1554.269        1.398        0.405      105.214       34.421        0.107      337.978       10.317      872.281
01/05/2015  12:49:00       78.494       80.279       88.164       55.426       54.645       48.706     3071.998     2986.050     2372.292        1.440        0.422      112.277       37.795        0.113      337.920       10.219      872.267
01/05/2015  12:50:00       19.094      113.595      124.040       59.846       51.541       52.246     3581.487     2656.484     2729.667        1.881        0.448      115.189       44.568        0.150      338.026       10.397      872.255
01/05/2015  12:51:00       18.106       66.561       65.848       49.883       48.281       49.358     2488.322     2331.045     2436.182        0.817        0.363       68.979       38.632        0.314      338.124       10.562      872.261
01/05/2015  12:52:00       55.114       83.282       77.507       57.883       40.722       35.204     3350.390     1658.254     1239.314        1.111        0.312       99.867       28.423        0.081      338.048       10.436      872.258
01/05/2015  12:53:00       22.059       68.027       75.343       33.314       44.318       29.583     1109.821     1964.094      875.130        0.737        0.197       71.514       33.518        0.220      338.129       10.571      872.254
01/05/2015  12:54:00        6.525       53.030       81.829       34.982       58.934       34.778     1223.733     3473.185     1209.476        0.773        0.295       53.430       38.452        0.518      338.067       10.467      872.249
01/05/2015  12:55:00       25.265       33.375       33.453       40.464       43.210       41.769     1637.368     1867.109     1744.665        0.406        0.262       41.859       26.005        0.386      338.212       10.710      872.247
01/05/2015  12:56:00       56.766       56.514       -4.265       41.945       40.049       22.845     1759.385     1603.896      521.910        0.516        0.194       80.101       16.407        0.042      338.031       10.406      872.262
01/05/2015  12:57:00       75.504       54.174       26.092       40.555       32.500       26.805     1644.691     1056.273      718.512        0.637        0.171       92.929       18.703        0.041      338.076       10.482      872.275
01/05/2015  12:58:00       64.892       67.801       27.702       59.168       32.266       33.961     3500.819     1041.068     1153.346        0.763        0.285       93.851       19.045        0.041      338.283       10.829      872.285
01/05/2015  12:59:00      105.401       72.219       18.646       58.239       36.186       38.575     3391.778     1309.446     1488.049        1.143        0.309      127.769       25.987        0.041      338.205       10.698      872.285
01/05/2015  13:00:00      115.704       91.370        6.349       53.371       32.867       33.090     2848.432     1080.220     1094.948        1.340        0.251      147.431       22.282        0.023      338.016       10.381      872.283
01/05/2015  13:01:00       67.859       38.775       16.028       41.898       26.090       29.192     1755.426      680.697      852.197        0.483        0.164       78.156        6.670        0.007      338.039       10.420      872.276
01/05/2015  13:02:00       24.050       36.495      -12.478       15.051       28.648       14.446      226.530      820.710      208.682        0.166        0.063       43.707        7.941        0.033      338.043       10.425      872.260
01/05/2015  13:03:00       21.224       34.354        9.658       38.304       27.999       24.055     1467.175      783.960      578.638        0.228        0.141       40.381       22.815        0.319      338.233       10.746      872.231
01/05/2015  13:04:00       86.813       75.110       36.941       39.242       34.127       31.749     1539.939     1164.650     1007.970        0.913        0.186      114.796       22.646        0.039      338.184       10.663      872.220
01/05/2015  13:05:00       94.709       61.850       26.204       49.776       31.173       35.448     2477.677      971.749     1256.583        0.909        0.235      113.116       25.333        0.050      338.220       10.723      872.215
01/05/2015  13:06:00       92.875       56.626        1.848       48.680       37.763       36.754     2369.699     1426.062     1350.874        0.849        0.257      108.776       22.866        0.044      338.127       10.567      872.204
01/05/2015  13:07:00       30.369       46.807       22.866       33.106       32.804       20.134     1096.005     1076.124      405.368        0.311        0.129       55.796       18.744        0.113      338.331       10.911      872.195
01/05/2015  13:08:00       37.748       11.985       40.543       43.622       49.843       29.352     1902.865     2484.325      861.568        0.423        0.262       39.605       29.346        0.549      338.545       11.270      872.194
01/05/2015  13:09:00       54.278       57.552        7.451       47.755       38.963       33.372     2280.556     1518.125     1113.660        0.561        0.246       79.109       22.683        0.082      338.342       10.928      872.182
01/05/2015  13:10:00       78.954       44.614       18.252       30.691       47.278       29.623      941.921     2235.176      877.513        0.631        0.203       90.687       11.919        0.017      338.347       10.938      872.184
01/05/2015  13:11:00       16.972       28.819       18.433       23.178       23.865       27.364      537.242      569.516      748.793        0.166        0.093       33.445       15.702        0.220      338.436       11.087      872.180
01/05/2015  13:12:00       68.542       68.696       51.556       80.533       42.045       48.760     6485.616     1767.814     2377.530        1.135        0.532       97.042       49.453        0.260      338.434       11.082      872.163
01/05/2015  13:13:00       60.197       15.965       15.212       59.328       53.040       32.550     3519.809     2813.274     1059.523        0.575        0.370       62.278       19.175        0.095      338.457       11.121      872.155
01/05/2015  13:14:00       83.556      -18.103       25.721       68.162       39.624       40.321     4646.093     1570.044     1625.807        0.790        0.392       85.495       33.991        0.158      338.354       10.949      872.136
01/05/2015  13:15:00      113.756       80.105        8.572       38.644       29.822       30.198     1493.361      889.381      911.932        1.136        0.165      139.130       12.639        0.008      338.231       10.742      872.128
01/05/2015  13:16:00      136.266       75.981       10.644       31.223       23.812       29.058      974.879      567.018      844.385        1.342        0.119      156.018       19.378        0.015      338.232       10.743      872.121
01/05/2015  13:17:00       49.887       49.844       15.773       32.042       22.009       18.897     1026.697      484.402      357.089        0.354        0.093       70.521       12.977        0.034      338.420       11.059      872.116
01/05/2015  13:18:00       21.376       40.233       55.328       33.019       32.584       26.153     1090.236     1061.722      683.984        0.399        0.142       45.560       22.615        0.246      338.735       11.588      872.107
01/05/2015  13:19:00       61.634      109.076       92.279       78.137       46.171       40.298     6105.359     2131.770     1623.966        1.703        0.493      125.285       37.069        0.088      338.631       11.414      872.109
01/05/2015  13:20:00       93.608       90.975       83.340       60.847       46.784       41.388     3702.360     2188.719     1712.965        1.579        0.380      130.533       33.189        0.065      338.528       11.240      872.112
01/05/2015  13:21:00       86.095       67.726       55.551       33.683       32.931       39.021     1134.543     1084.446     1522.619        0.941        0.187      109.541       31.007        0.080      338.470       11.144      872.122
01/05/2015  13:22:00       49.664       71.319       77.293       39.632       38.744       40.415     1570.671     1501.071     1633.335        0.912        0.235       86.908       34.198        0.155      338.625       11.403      872.128
01/05/2015  13:23:00       74.661       95.054       99.392       60.025       55.238       45.092     3603.046     3051.249     2033.293        1.659        0.434      120.869       36.694        0.092      338.582       11.331      872.123
01/05/2015  13:24:00       92.424       40.182       54.712       60.640       36.251       37.535     3677.213     1314.128     1408.851        0.977        0.320      100.780       32.045        0.101      338.512       11.212      872.126
01/05/2015  13:25:00       61.733       86.360       86.273       53.564       49.806       40.667     2869.085     2480.595     1653.769        1.286        0.350      106.156       40.718        0.147      338.529       11.243      872.120
01/05/2015  13:26:00       77.797      116.274       88.471       34.617       32.385       30.495     1198.345     1048.793      929.959        1.529        0.159      139.900       21.728        0.024      338.409       11.041      872.112
01/05/2015  13:27:00       31.583       88.968       70.787       41.340       43.475       41.426     1709.012     1890.052     1716.084        0.962        0.266       94.408       37.415        0.157      338.597       11.356      872.108
01/05/2015  13:28:00       27.310       17.761       20.169       61.755       40.229       38.195     3813.643     1618.332     1458.835        0.418        0.345       32.577       37.732        1.342      338.731       11.581      872.110
01/05/2015  13:29:00       65.051       51.933       31.343       59.000       33.103       32.298     3480.990     1095.830     1043.173        0.676        0.281       83.239       27.752        0.111      338.649       11.444      872.119
01/05/2015  13:30:00       91.949       52.356       19.961       40.407       22.345       22.118     1632.762      499.319      489.204        0.711        0.131      105.810        5.665        0.003      338.599       11.360      872.133
01/05/2015  13:31:00       91.747       38.643       17.843       26.064       25.683       28.737      679.315      659.611      825.828        0.620        0.108       99.553       15.773        0.025      338.497       11.189      872.139
01/05/2015  13:32:00       48.439       76.887       52.502       45.319       36.377       39.016     2053.821     1323.289     1522.219        0.796        0.245       90.873       34.698        0.146      338.760       11.631      872.132
01/05/2015  13:33:00       26.710       43.859       39.448       45.242       46.806       35.617     2046.877     2190.785     1268.601        0.485        0.275       51.352       21.758        0.180      338.859       11.797      872.130
01/05/2015  13:34:00       -9.029       21.284       16.818       30.321       21.659       32.920      919.349      469.101     1083.728        0.164        0.124       23.120       25.104        1.179      338.846       11.775      872.129
01/05/2015  13:35:00       20.333       46.209       44.228       29.263       40.086       28.793      856.321     1606.903      829.047        0.390        0.165       50.485       22.462        0.198      338.848       11.777      872.137
01/05/2015  13:36:00       -4.049       63.665      -13.834       21.175       29.119       24.926      448.364      847.901      621.289        0.309        0.096       63.793       15.444        0.059      338.838       11.760      872.137
01/05/2015  13:37:00        5.520       31.150        3.469       27.843       23.157       19.269      775.246      536.226      371.278        0.135        0.084       31.635       16.906        0.286      338.977       11.995      872.135
01/05/2015  13:38:00       26.062       45.260       32.126       52.853       23.475       35.369     2793.426      551.094     1250.935        0.418        0.230       52.228       30.406        0.339      339.073       12.157      872.126
01/05/2015  13:39:00       77.398       67.840        6.943       50.937       34.287       28.712     2594.578     1175.622      824.385        0.762        0.230      102.921       22.520        0.048      338.702       11.532      872.129
01/05/2015  13:40:00       23.618       51.834        4.067       20.073       32.520       23.808      402.929     1057.573      566.842        0.264        0.101       56.961       19.157        0.113      338.864       11.806      872.135
01/05/2015  13:41:00      -17.271       20.072       22.815       21.970       28.640       29.997      482.689      820.232      899.794        0.171        0.110       26.480       14.148        0.285      339.073       12.156      872.124
01/05/2015  13:42:00       71.541       70.433       45.334       54.263       26.969       36.992     2944.459      727.333     1368.397        0.859        0.252      100.394       36.791        0.134      338.917       11.894      872.106
01/05/2015  13:43:00       21.132       32.118        1.842       37.621       25.761       22.336     1415.329      663.626      498.889        0.203        0.129       38.447       19.580        0.259      338.771       11.648      872.107
01/05/2015  13:44:00       45.549       43.265       26.561       33.260       21.040       28.549     1106.235      442.680      815.063        0.351        0.118       62.822       13.430        0.046      338.843       11.771      872.092
01/05/2015  13:45:00       -2.738       22.318       35.322       19.878       26.623       20.375      395.135      708.808      415.138        0.164        0.076       22.486        9.156        0.166      339.080       12.167      872.076
01/05/2015  13:46:00       44.113       58.860       62.132       39.307       25.636       25.712     1545.058      657.229      661.106        0.607        0.143       73.556       14.095        0.037      338.863       11.804      872.069
01/05/2015  13:47:00       83.120       39.860       32.299       28.922       31.736       31.333      836.486     1007.199      981.778        0.618        0.141       92.183       23.849        0.067      338.814       11.722      872.060
01/05/2015  13:48:00       62.754       48.059       29.445       40.481       36.481       33.188     1638.730     1330.841     1101.438        0.559        0.204       79.042       22.917        0.084      338.830       11.747      872.034
01/05/2015  13:49:00       47.989       38.214       17.795       31.296       21.690       23.322      979.409      470.450      543.906        0.304        0.100       61.345        8.186        0.018      338.870       11.815      872.023
01/05/2015  13:50:00       96.119       77.666       67.399       55.093       32.124       38.919     3035.290     1031.963     1514.725        1.270        0.279      123.575       24.134        0.038      338.995       12.026      872.007
01/05/2015  13:51:00       22.505      -52.665       30.986       41.251       61.532       33.398     1701.664     3786.142     1115.441        0.542        0.330       57.272       31.092        0.295      339.090       12.186      872.015
01/05/2015  13:52:00       59.959      -81.354        4.023       41.299       51.680       35.564     1705.614     2670.805     1264.812        0.793        0.282      101.061       29.783        0.087      338.889       11.847      872.005
01/05/2015  13:53:00       24.812      -25.901       19.136       37.653       72.507       44.617     1417.715     5257.335     1990.690        0.516        0.433       35.867       53.145        2.195      339.041       12.104      872.004
01/05/2015  13:54:00       52.833      -51.313        8.802       36.945       38.839       30.519     1364.909     1508.433      931.396        0.465        0.190       73.650       20.889        0.080      339.024       12.075      872.009
01/05/2015  13:55:00       40.744      -40.903        4.686       44.982       49.561       32.156     2023.385     2456.254     1033.981        0.443        0.276       57.733       20.571        0.127      339.075       12.160      872.010
01/05/2015  13:56:00       16.232       17.303       40.269       27.199       32.924       23.675      739.776     1083.991      560.487        0.228        0.119       23.724       15.618        0.433      339.215       12.396      872.017
01/05/2015  13:57:00       70.458      -19.562       31.244       41.267       38.530       28.431     1702.995     1484.526      808.312        0.516        0.200       73.123       17.323        0.056      338.917       11.895      872.029
01/05/2015  13:58:00       25.412       63.765       70.061       45.801       33.930       29.641     2097.687     1151.216      878.588        0.687        0.206       68.642       21.595        0.099      339.114       12.228      872.025
01/05/2015  13:59:00       19.130       53.494       71.278       40.322       35.818       31.207     1625.851     1282.923      973.902        0.609        0.194       56.811       25.427        0.200      339.220       12.404      872.026
01/05/2015  14:00:00       18.560       48.255       55.111       25.120       26.718       30.248      630.993      713.860      914.945        0.398        0.113       51.701       19.741        0.146      339.225       12.412      872.030
01/05/2015  14:01:00       22.926       47.480       11.081       20.244       20.743       29.727      409.807      430.261      883.671        0.231        0.086       52.725       10.925        0.043      339.003       12.039      872.025
01/05/2015  14:02:00       45.405       39.519        7.300       42.419       28.780       18.546     1799.412      828.300      343.970        0.332        0.149       60.195        5.868        0.010      339.101       12.204      872.023
01/05/2015  14:03:00       19.416       63.059       82.474       39.565       49.160       32.849     1565.362     2416.718     1079.040        0.811        0.253       65.981       33.257        0.254      339.125       12.245      872.001
01/05/2015  14:04:00       47.859       21.025       27.959       41.249       24.428       28.700     1701.519      596.723      823.710        0.332        0.156       52.274       13.437        0.066      338.960       11.968      871.998
01/05/2015  14:05:00       14.597      -28.963        7.300       31.102       28.390       22.953      967.342      805.985      526.828        0.170        0.115       32.433       23.095        0.507      339.077       12.163      871.996
01/05/2015  14:06:00       17.087       32.321       33.076       27.640       26.205       20.737      763.943      686.702      430.024        0.216        0.094       36.560       14.015        0.147      339.184       12.343      872.000
01/05/2015  14:07:00       27.432       48.374        3.165       26.810       32.512       26.733      718.794     1057.048      714.677        0.280        0.125       55.611       22.886        0.169      339.163       12.308      872.003
01/05/2015  14:08:00        9.872       48.502       -5.893       18.731       32.601       19.700      350.838     1062.798      388.071        0.214        0.090       49.497        5.236        0.011      339.203       12.374      872.018
01/05/2015  14:09:00       34.292       28.113        8.688       20.376       16.410       18.778      415.190      269.280      352.622        0.154        0.052       44.343        7.534        0.029      339.135       12.259      872.029
01/05/2015  14:10:00       23.807       48.955      -16.365       15.463       30.852       23.228      239.096      951.841      539.523        0.248        0.087       54.436       11.469        0.044      339.178       12.334      872.030
01/05/2015  14:11:00        5.214       21.312       -9.194       17.179       25.156       24.918      295.107      632.809      620.897        0.106        0.077       21.940       20.301        0.856      339.515       12.901      872.010
01/05/2015  14:12:00       18.116       -9.227        9.792       36.400       30.516       21.798     1324.965      931.246      475.160        0.162        0.137       20.330       18.284        0.809      339.413       12.730      871.996
01/05/2015  14:13:00       40.992      -85.771       -4.576       76.355       57.363       42.331     5830.150     3290.498     1791.884        0.998        0.546       95.063       53.383        0.315      339.299       12.538      871.977
01/05/2015  14:14:00       58.695      -69.977       -9.345       36.828       58.141       31.766     1356.303     3380.432     1009.090        0.709        0.287       91.334       35.864        0.154      339.206       12.381      871.959
01/05/2015  14:15:00       39.319      -43.593        0.853       40.793       73.823       40.482     1664.035     5449.776     1638.762        0.610        0.438       58.706       46.282        0.622      339.253       12.459      871.956
01/05/2015  14:16:00        4.542       24.989       42.001       17.874       30.569       21.538      319.492      934.449      463.898        0.206        0.086       25.398       16.666        0.431      339.339       12.604      871.951
01/05/2015  14:17:00       -8.735      -18.505       14.744       32.996       39.005       19.725     1088.763     1521.391      389.089        0.182        0.150       20.464       24.921        1.483      339.746       13.289      871.939
01/05/2015  14:18:00       66.588      -52.340       10.714       58.214       69.720       41.490     3388.841     4860.944     1721.441        0.863        0.499       84.696       37.099        0.192      339.304       12.546      871.941
01/05/2015  14:19:00       47.262       47.569       19.107       31.952       29.301       28.427     1020.956      858.547      808.117        0.377        0.134       67.056       22.167        0.109      339.121       12.236      871.942
01/05/2015  14:20:00       41.489       35.202       32.133       35.432       24.495       23.152     1255.450      599.983      536.007        0.319        0.120       54.411       13.158        0.058      339.187       12.348      871.936
01/05/2015  14:21:00       68.790      -88.016       -8.650       61.880       72.361       31.680     3829.084     5236.076     1003.615        1.131        0.503      111.709       38.906        0.121      339.277       12.499      871.937
01/05/2015  14:22:00      136.964     -109.283       -9.344       42.224       48.388       38.173     1782.829     2341.419     1457.170        1.818        0.279      175.220       40.241        0.053      339.021       12.067      871.940
01/05/2015  14:23:00       70.094      -22.385       45.957       62.522       74.941       48.204     3908.974     5616.143     2323.631        0.969        0.592       73.582       58.815        0.639      339.218       12.400      871.947
01/05/2015  14:24:00       55.594       40.361       27.926       23.485       28.985       30.815      551.562      840.118      949.553        0.392        0.117       68.700       25.761        0.141      339.031       12.087      871.944
01/05/2015  14:25:00       12.715      -35.248       -7.536       21.137       37.289       20.613      446.792     1390.468      424.898        0.186        0.113       37.471       16.469        0.193      339.288       12.519      871.947
01/05/2015  14:26:00        8.303      -70.766       -3.616       33.793       38.188       32.719     1141.943     1458.295     1070.528        0.438        0.184       71.251       16.264        0.052      339.331       12.591      871.942
01/05/2015  14:27:00       60.162       21.767       30.996       42.607       29.556       24.291     1815.341      873.537      590.076        0.417        0.164       63.979       22.411        0.123      339.296       12.532      871.949
01/05/2015  14:28:00       65.187       21.922       -1.816       41.144       34.424       23.699     1692.809     1184.990      561.625        0.409        0.172       68.774        8.530        0.015      339.181       12.340      871.962
01/05/2015  14:29:00       35.108       47.545       28.264       35.542       19.629       20.568     1263.204      385.310      423.030        0.318        0.104       59.102       21.341        0.130      339.352       12.626      871.961
01/05/2015  14:30:00       21.629       38.558       55.347       36.564       30.902       33.851     1336.896      954.939     1145.886        0.423        0.172       44.210       32.472        0.539      339.416       12.734      871.969
01/05/2015  14:31:00       13.431       28.358       17.050       36.498       31.024       32.280     1332.094      962.495     1042.029        0.231        0.167       31.378       14.085        0.202      339.499       12.874      871.982
01/05/2015  14:32:00       64.801      -65.397        4.498       40.659       56.359       32.763     1653.116     3176.330     1073.408        0.720        0.295       92.065       39.742        0.186      339.342       12.610      871.988
01/05/2015  14:33:00       48.851      -52.199       18.128       34.790       55.030       29.049     1210.358     3028.272      843.818        0.526        0.254       71.492       32.200        0.203      339.279       12.503      871.986
01/05/2015  14:34:00       27.606      -40.539        4.780       32.117       27.299       24.498     1031.525      745.239      600.128        0.240        0.119       49.046       22.977        0.219      339.558       12.973      871.987
01/05/2015  14:35:00       38.139      -51.794        3.242       36.641       25.969       23.926     1342.547      674.375      572.438        0.337        0.129       64.321       17.296        0.072      339.354       12.630      871.984
01/05/2015  14:36:00       23.203      -43.835       16.973       29.722       55.040       25.097      883.381     3029.369      629.867        0.364        0.227       49.597       30.172        0.370      339.440       12.774      871.966
01/05/2015  14:37:00       27.784      -70.063       15.564       47.849       76.145       37.972     2289.513     5798.027     1441.881        0.772        0.476       75.371       47.177        0.392      339.565       12.985      871.962
01/05/2015  14:38:00       67.320     -114.386      -15.356       38.656       46.775       28.856     1494.319     2187.912      832.673        1.118        0.226      132.725       18.860        0.020      339.400       12.708      871.959
01/05/2015  14:39:00       32.817      -59.771        5.922       38.299       67.252       32.388     1466.841     4522.773     1048.963        0.586        0.352       68.188       29.168        0.183      339.388       12.687      871.947
01/05/2015  14:40:00       82.416      -51.801        9.152       62.423       82.966       45.903     3896.589     6883.358     2107.072        1.122        0.644       97.343       60.628        0.388      339.304       12.545      871.945
01/05/2015  14:41:00      118.295     -104.018      -24.553       40.523       41.799       21.784     1642.117     1747.177      474.535        1.464        0.193      157.523       22.488        0.020      339.133       12.258      871.941
01/05/2015  14:42:00       25.021       33.771       58.470       31.903       37.229       32.729     1017.777     1386.001     1071.197        0.433        0.174       42.031       26.329        0.392      339.368       12.652      871.925
01/05/2015  14:43:00       18.109      -35.272       -4.422       37.237       53.640       23.137     1386.560     2877.235      535.343        0.319        0.240       39.649       21.682        0.299      339.411       12.726      871.925
01/05/2015  14:44:00       62.236      -58.934        9.407       50.921       54.162       35.664     2592.997     2933.530     1271.897        0.712        0.340       85.712       36.674        0.183      339.358       12.636      871.927
01/05/2015  14:45:00       49.915        2.162       33.285       32.572       27.476       23.569     1060.954      754.919      555.514        0.299        0.119       49.961       20.593        0.170      339.316       12.566      871.940
01/05/2015  14:46:00       30.375       11.643       41.351       43.451       35.406       23.306     1887.994     1253.613      543.156        0.323        0.184       32.530       22.751        0.489      339.515       12.902      871.930
01/05/2015  14:47:00       58.134       -4.701       28.815       28.494       27.124       23.303      811.902      735.686      543.043        0.316        0.105       58.324       22.088        0.143      339.319       12.569      871.924
01/05/2015  14:48:00       21.023        8.823       21.371       17.294       13.228       15.114      299.073      174.975      228.432        0.084        0.035       22.799        8.752        0.147      339.378       12.670      871.917
01/05/2015  14:49:00       -3.895       16.356       22.126       11.191       12.532        7.796      125.230      157.040       60.780        0.056        0.017       16.814        5.694        0.115      339.620       13.079      871.908
01/05/2015  14:50:00      -12.017       -6.146        8.229       25.103       12.065       11.786      630.144      145.566      138.918        0.058        0.046       13.497       14.348        1.130      339.693       13.202      871.890
01/05/2015  14:51:00      -29.935       -6.888      -12.888       13.177       13.338       11.143      173.623      177.906      124.176        0.079        0.024       30.717        6.735        0.048      339.526       12.920      871.888
01/05/2015  14:52:00      -15.437       26.910        2.649       26.251       22.890       16.099      689.108      523.954      259.191        0.122        0.074       31.024        4.952        0.025      339.710       13.229      871.881
01/05/2015  14:53:00      -44.292      -31.941        1.957       26.944       14.557       17.548      725.959      211.899      307.945        0.212        0.062       54.607       14.199        0.068      339.621       13.081      871.869
01/05/2015  14:54:00      -22.729      -37.344       -7.418       24.766       24.546       23.875      613.333      602.514      570.017        0.188        0.089       43.717       14.782        0.114      339.630       13.095      871.863
01/05/2015  14:55:00      -28.623      -43.901      -21.330       28.694       15.671       14.331      823.361      245.572      205.377        0.224        0.064       52.408        9.860        0.035      339.532       12.930      871.867
01/05/2015  14:56:00      -23.746      -59.048      -17.093       25.128       29.837       22.968      631.431      890.269      527.543        0.320        0.102       63.644       15.002        0.056      339.509       12.890      871.870
01/05/2015  14:57:00       23.542       20.017       32.974       27.674       29.918       30.020      765.877      895.085      901.181        0.230        0.128       30.902       27.865        0.813      339.552       12.963      871.865
01/05/2015  14:58:00       10.685       17.955       36.743       23.037       19.297        9.632      530.695      372.363       92.771        0.139        0.050       20.894        5.684        0.074      339.805       13.390      871.855
01/05/2015  14:59:00        1.146      -35.526       -2.103       19.692       22.108       21.184      387.766      488.752      448.741        0.130        0.066       35.545       13.995        0.155      339.808       13.397      871.867
01/05/2015  15:00:00       66.738      -53.703       -3.355       35.020       36.312       26.169     1226.419     1318.596      684.822        0.529        0.161       85.662       22.044        0.066      339.509       12.891      871.866
01/05/2015  15:01:00       78.234      -55.436       -7.206       36.980       36.608       29.511     1367.534     1340.116      870.902        0.641        0.179       95.884       26.641        0.077      339.428       12.755      871.858
01/05/2015  15:02:00       74.782      -62.039      -18.313       38.640       37.905       26.239     1493.022     1436.804      688.461        0.670        0.181       97.166       25.883        0.071      339.408       12.721      871.863
01/05/2015  15:03:00       63.819      -61.117        0.854       37.409       32.285       21.807     1399.460     1042.303      475.548        0.536        0.146       88.364       19.143        0.047      339.404       12.713      871.864
01/05/2015  15:04:00       20.735       17.074       36.559       28.891       18.243       16.063      834.684      332.793      258.029        0.174        0.071       26.860        8.874        0.109      339.564       12.984      871.859
01/05/2015  15:05:00       -0.212       34.996       18.594       17.765       11.989       16.820      315.578      143.738      282.903        0.116        0.037       34.996        5.521        0.025      339.478       12.839      871.843
01/05/2015  15:06:00      -24.055        8.803       -0.267       16.552       14.327       16.512      273.977      205.267      272.661        0.070        0.038       25.615       12.990        0.257      339.564       12.982      871.825
01/05/2015  15:07:00      -35.044       -9.725        3.977       19.520       15.675       11.961      381.049      245.715      143.068        0.105        0.038       36.368       10.174        0.078      339.729       13.261      871.812
01/05/2015  15:08:00      -30.160      -24.048        4.955       22.809       23.367       13.193      520.266      546.002      174.062        0.138        0.062       38.574        8.430        0.048      339.709       13.228      871.792
01/05/2015  15:09:00      -12.390      -10.192        8.899       29.795       16.181       17.107      887.769      261.827      292.654        0.089        0.072       16.044       11.080        0.477      339.868       13.496      871.774
01/05/2015  15:10:00      -43.832      -28.738       -4.170       22.012       27.149       17.146      484.539      737.062      293.999        0.214        0.076       52.413       12.798        0.060      339.643       13.116      871.771
01/05/2015  15:11:00        2.985      -33.308       -0.456       20.587       32.414       13.215      423.826     1050.684      174.648        0.138        0.082       33.442       17.230        0.265      339.765       13.325      871.758
01/05/2015  15:12:00       -0.143      -39.993      -11.873       23.177       19.720       12.815      537.164      388.897      164.236        0.142        0.055       39.994        6.693        0.028      339.696       13.207      871.740
01/05/2015  15:13:00       -1.926       -8.707       28.520       24.349       37.659       33.246      592.888     1418.213     1105.316        0.200        0.156        8.917       26.193        8.628      339.892       13.537      871.722
01/05/2015  15:14:00      -24.006       11.006       35.909       28.865       33.233       19.196      833.185     1104.454      368.490        0.215        0.115       26.409       11.331        0.184      339.839       13.449      871.703
01/05/2015  15:15:00      -11.084       24.147       51.953       13.916       20.366       16.863      193.655      414.764      284.357        0.215        0.045       26.570       13.464        0.257      339.879       13.516      871.682
01/05/2015  15:16:00       -8.600        6.778       31.404       10.198       20.939       17.192      104.006      438.457      295.572        0.097        0.042       10.950       16.439        2.254      340.116       13.913      871.665
01/05/2015  15:17:00        4.342      -12.112       16.295       20.350       52.078       34.188      414.104     2712.154     1168.792        0.236        0.215       12.867       37.940        8.694      339.777       13.343      871.663
01/05/2015  15:18:00       10.392      -36.092        1.752       24.233       53.046       27.551      587.243     2813.864      759.030        0.279        0.208       37.558       34.032        0.821      339.806       13.392      871.653
01/05/2015  15:19:00       24.684      -35.203       -8.383       27.869       28.632       17.866      776.680      819.814      319.184        0.192        0.096       42.994       22.188        0.266      339.770       13.333      871.655
01/05/2015  15:20:00       17.007       -4.905       11.591       12.810       20.224       11.695      164.108      408.991      136.766        0.058        0.035       17.701       11.707        0.437      339.794       13.372      871.655
01/05/2015  15:21:00       10.675       14.061        3.353        7.588        6.511        9.883       57.578       42.398       97.678        0.026        0.010       17.654        5.719        0.105      339.724       13.254      871.663
01/05/2015  15:22:00       14.502       13.400       -4.240        8.724        8.722        9.931       76.104       76.079       98.616        0.033        0.013       19.745        8.596        0.190      339.744       13.289      871.670
01/05/2015  15:23:00       12.441        3.757        3.073       19.565       26.774       14.674      382.789      716.845      215.316        0.075        0.066       12.996       17.638        1.842      339.756       13.308      871.672
01/05/2015  15:24:00        2.341      -14.447      -22.550       39.949       21.920       13.254     1595.924      480.495      175.681        0.149        0.113       14.635        9.659        0.436      339.764       13.322      871.675
01/05/2015  15:25:00        4.141      -28.286       10.594       21.614       24.627       14.805      467.157      606.490      219.195        0.111        0.065       28.588       11.241        0.155      339.963       13.656      871.677
01/05/2015  15:26:00       21.952       21.492       15.104       33.009       24.281       22.682     1089.569      589.588      514.454        0.168        0.110       30.721       14.673        0.228      339.805       13.389      871.691
01/05/2015  15:27:00        1.784        9.741       26.671       21.337       21.151       21.216      455.262      447.347      450.103        0.108        0.068        9.903       18.076        3.332      339.787       13.361      871.704
01/05/2015  15:28:00       -2.669        2.200       12.294       26.324       28.209       20.528      692.971      795.733      421.412        0.104        0.096        3.458       16.599       23.036      339.753       13.301      871.709
01/05/2015  15:29:00       41.518       10.540        8.936       21.904       23.359       15.537      479.771      545.654      241.402        0.159        0.063       42.835       11.566        0.073      339.689       13.194      871.717
01/05/2015  15:30:00       24.725       12.953       26.732       27.796       30.743       20.076      772.624      945.126      403.047        0.181        0.106       27.912       20.157        0.522      339.785       13.356      871.729
01/05/2015  15:31:00       17.778       45.613       64.348       30.167       34.796       21.933      910.026     1210.792      481.035        0.457        0.130       48.955       17.462        0.127      339.861       13.486      871.739
01/05/2015  15:32:00        6.848       55.221       59.069       39.183       34.324       30.727     1535.321     1178.106      944.162        0.512        0.183       55.644       23.874        0.184      339.808       13.397      871.742
01/05/2015  15:33:00       24.447       46.209       44.934       32.490       31.841       26.975     1055.586     1013.880      727.626        0.377        0.140       52.277       23.907        0.209      339.713       13.234      871.735
01/05/2015  15:34:00       69.302       49.647       36.665       40.360       45.751       30.977     1628.917     2093.170      959.599        0.665        0.234       85.250       27.123        0.101      339.635       13.104      871.708
01/05/2015  15:35:00       18.043       71.711       89.213       40.280       35.405       31.582     1622.497     1253.536      997.436        0.865        0.194       73.946       28.006        0.143      339.699       13.211      871.696
01/05/2015  15:36:00       37.893       57.547       57.976       45.160       27.152       29.979     2039.394      737.218      898.725        0.589        0.184       68.903       22.925        0.111      339.607       13.055      871.693
01/05/2015  15:37:00       15.268       49.426       57.754       21.053       23.822       15.682      443.223      567.474      245.922        0.363        0.063       51.730       10.368        0.040      339.749       13.295      871.691
01/05/2015  15:38:00        4.844       35.063       46.638       18.471       22.139       16.121      341.164      490.144      259.888        0.226        0.055       35.396       12.809        0.131      339.798       13.379      871.689
01/05/2015  15:39:00       20.352       19.379       34.321       17.525       22.571       19.097      307.131      509.471      364.684        0.157        0.059       28.102       15.775        0.315      339.755       13.307      871.683
01/05/2015  15:40:00       29.200       47.073       60.781       34.890       23.680       16.055     1217.328      560.722      257.770        0.440        0.102       55.394       16.443        0.088      339.701       13.215      871.665
01/05/2015  15:41:00       54.560       26.723       36.297       30.220       33.040       26.372      913.246     1091.628      695.503        0.385        0.135       60.753       25.974        0.183      339.625       13.088      871.647
01/05/2015  15:42:00       49.960       44.751       38.886       29.298       29.246       23.224      858.386      855.326      539.357        0.413        0.113       67.072       15.396        0.053      339.599       13.042      871.632
01/05/2015  15:43:00       24.427       32.605       49.419       33.239       34.006       25.356     1104.811     1156.419      642.902        0.350        0.145       40.740       19.843        0.237      339.683       13.184      871.612
01/05/2015  15:44:00       -4.293      -18.155       23.814       27.770       35.960       26.408      771.176     1293.090      697.378        0.184        0.138       18.656       25.704        1.898      339.820       13.416      871.599
01/05/2015  15:45:00       43.726      -65.823        0.729       63.353       33.429       32.181     4013.629     1117.520     1035.591        0.620        0.308       79.023       18.624        0.056      339.716       13.240      871.583
01/05/2015  15:46:00       67.856      -60.281       -2.526       44.516       32.824       31.541     1981.698     1077.420      994.809        0.615        0.203       90.765       30.361        0.112      339.595       13.036      871.583
01/05/2015  15:47:00       49.899      -35.131        5.175       38.798       40.122       26.243     1505.312     1609.796      688.714        0.378        0.190       61.025       29.935        0.241      339.608       13.058      871.587
01/05/2015  15:48:00      -14.505        6.431       23.557       15.931       21.377       13.006      253.807      456.990      169.158        0.084        0.044       15.866       10.583        0.445      339.934       13.609      871.596
01/05/2015  15:49:00      -26.855       -6.468        6.422       23.120       26.485       16.784      534.539      701.476      281.714        0.116        0.076       27.622       12.861        0.217      339.927       13.596      871.602
01/05/2015  15:50:00      -42.928      -15.135        2.677       26.313       18.334       13.738      692.372      336.132      188.740        0.165        0.061       45.518        9.240        0.041      339.744       13.286      871.610
01/05/2015  15:51:00      -34.574      -28.838        1.387       30.591       18.591       12.202      935.787      345.627      148.900        0.173        0.072       45.022        7.026        0.024      339.751       13.297      871.609
01/05/2015  15:52:00      -33.770       -5.220       -1.325       24.446       11.290        8.482      597.622      127.460       71.943        0.098        0.040       34.171       10.732        0.099      339.704       13.220      871.599
01/05/2015  15:53:00      -62.354      -70.755       -2.685       40.327       24.133       20.522     1626.276      582.385      421.170        0.577        0.131       94.310       19.369        0.042      339.677       13.174      871.588
01/05/2015  15:54:00      -82.587      -50.488       -8.135       29.452       21.314       16.261      867.441      454.283      264.434        0.551        0.079       96.797       19.552        0.041      339.664       13.152      871.578
01/05/2015  15:55:00       -8.810      -26.293        3.961       27.587       15.915       13.825      761.017      253.273      191.118        0.099        0.060       27.729       13.963        0.254      339.835       13.440      871.570
01/05/2015  15:56:00      -36.064      -27.910        6.420       28.451       23.759       20.582      809.458      564.491      423.623        0.196        0.090       45.603       12.417        0.074      339.760       13.315      871.567
01/05/2015  15:57:00      -68.801      -50.600       -4.585       28.006       28.516       16.468      784.354      813.156      271.195        0.459        0.093       85.404        9.680        0.013      339.686       13.189      871.563
01/05/2015  15:58:00      -82.267      -37.676       -7.699       18.856       28.920       11.420      355.562      836.353      130.425        0.478        0.066       90.484        8.985        0.010      339.648       13.126      871.568
01/05/2015  15:59:00      -49.064      -40.599       -3.563       34.650       17.216       16.796     1200.605      296.385      282.090        0.292        0.089       63.683       20.051        0.099      339.743       13.286      871.565
01/05/2015  16:00:00      -78.402      -31.272       -7.674       13.868       21.357        9.404      192.329      456.133       88.429        0.396        0.037       84.409        6.229        0.005      339.708       13.226      871.563
01/05/2015  16:01:00       -7.102      -27.980       -5.511       41.038       18.290       14.814     1684.081      334.509      219.461        0.155        0.112       28.867       14.222        0.243      339.726       13.257      871.559
01/05/2015  16:02:00      -20.084      -33.839       10.374       29.987       32.650       13.025      899.211     1066.030      169.640        0.190        0.107       39.350        8.754        0.049      339.737       13.276      871.557
01/05/2015  16:03:00      -16.991      -11.370        6.116       23.210       20.201       15.175      538.712      408.063      230.295        0.082        0.059       20.445        8.502        0.173      339.737       13.277      871.554
01/05/2015  16:04:00      -44.879      -36.315        1.748       37.062       28.312       14.867     1373.612      801.566      221.039        0.287        0.120       57.731       13.121        0.052      339.730       13.264      871.558
01/05/2015  16:05:00      -51.982      -27.008        0.568       28.393       15.892       12.709      806.147      252.551      161.530        0.233        0.061       58.579       12.189        0.043      339.773       13.337      871.559
01/05/2015  16:06:00      -64.861      -43.202       -0.806       23.216       20.712       18.157      538.966      428.983      329.677        0.369        0.065       77.932       16.727        0.046      339.788       13.361      871.563
01/05/2015  16:07:00      -56.725      -31.646        1.477       31.383       22.584       15.571      984.884      510.033      242.442        0.298        0.087       64.956       18.432        0.081      339.759       13.313      871.563
01/05/2015  16:08:00      -17.584      -25.783        5.556       31.530       24.282       16.199      994.150      589.632      262.416        0.143        0.092       31.209       12.802        0.168      339.875       13.508      871.555
01/05/2015  16:09:00      -24.086      -28.132        5.544       29.362       19.511       12.699      862.154      380.680      161.258        0.140        0.070       37.034       12.073        0.106      339.776       13.342      871.542
01/05/2015  16:10:00      -46.830      -18.643        1.289       30.644       20.645       19.543      939.084      426.219      381.932        0.214        0.087       50.405       16.931        0.113      339.719       13.244      871.532
01/05/2015  16:11:00      -88.876      -27.539       -1.338       25.566       18.172       13.358      653.613      330.221      178.448        0.491        0.058       93.045       10.484        0.013      339.606       13.054      871.524
01/05/2015  16:12:00      -47.904      -26.729        2.012       27.579       13.146       10.472      760.591      172.823      109.662        0.203        0.052       54.856        7.926        0.021      339.688       13.191      871.526
01/05/2015  16:13:00       -5.617      -24.027        7.920       23.316       28.149       20.080      543.629      792.376      403.204        0.121        0.087       24.675       17.156        0.483      339.763       13.321      871.531
01/05/2015  16:14:00      -18.506      -27.785        2.985       35.901       37.113       17.920     1288.904     1377.404      321.119        0.205        0.149       33.384       11.475        0.118      339.699       13.213      871.529
01/05/2015  16:15:00      -60.941      -54.100       -2.161       21.524       21.309       15.016      463.297      454.055      225.468        0.389        0.057       81.490       13.986        0.029      339.602       13.047      871.541
01/05/2015  16:16:00      -43.189      -25.772        0.430       24.704       15.591       12.912      610.264      243.068      166.731        0.177        0.051       50.294       10.096        0.040      339.661       13.149      871.544
01/05/2015  16:17:00      -47.136      -20.193        4.338       35.129       16.992       14.935     1234.053      288.716      223.041        0.220        0.087       51.279       13.210        0.066      339.676       13.173      871.553
01/05/2015  16:18:00      -20.648      -15.386        6.062       16.009       21.762       12.345      256.302      473.593      152.403        0.079        0.044       25.750       10.192        0.157      339.699       13.212      871.558
01/05/2015  16:19:00      -11.777      -19.632        3.031       15.612       11.779       10.857      243.749      138.750      117.868        0.052        0.025       22.893        7.385        0.104      339.740       13.280      871.560
01/05/2015  16:20:00        6.687      -14.206       13.396       11.473       15.156        9.607      131.641      229.718       92.302        0.044        0.023       15.702        8.487        0.292      339.745       13.289      871.554
01/05/2015  16:21:00       20.782        9.217        4.138       15.322       10.487        8.351      234.772      109.976       69.733        0.047        0.021       22.734        5.916        0.068      339.605       13.051      871.546
01/05/2015  16:22:00       26.469       19.303        2.791       11.033        9.470       10.211      121.725       89.687      104.263        0.070        0.016       32.760        6.437        0.039      339.561       12.980      871.540
01/05/2015  16:23:00       45.095        9.174        7.076       20.565       19.817       12.678      422.926      392.710      160.734        0.157        0.049       46.019        7.963        0.030      339.486       12.851      871.546
01/05/2015  16:24:00       48.014        9.138        5.704       24.810       18.810       13.571      615.539      353.813      184.180        0.179        0.058       48.876       10.568        0.047      339.420       12.741      871.547
01/05/2015  16:25:00       10.833       10.379       12.981       19.130       16.127       11.607      365.963      260.079      134.720        0.058        0.038       15.003        7.653        0.260      339.320       12.571      871.557
01/05/2015  16:26:00       -0.358       -3.744        2.948       16.309       21.944       15.849      265.986      481.536      251.197        0.051        0.050        3.762       12.495       11.035      339.315       12.564      871.571
01/05/2015  16:27:00       -1.703       -0.755       11.847       27.105       24.206       30.536      734.688      585.919      932.472        0.120        0.113        1.863       23.358      157.195      339.352       12.626      871.588
01/05/2015  16:28:00       -0.528       16.735       30.259       18.680       28.171       21.980      348.942      793.616      483.103        0.141        0.081       16.743       18.243        1.187      339.368       12.652      871.604
01/05/2015  16:29:00       21.253        7.615       16.355       22.931       14.881       16.379      525.844      221.452      268.263        0.090        0.051       22.576       15.364        0.463      339.376       12.667      871.619
01/05/2015  16:30:00       11.551      -20.503        1.629       24.435       16.136       11.877      597.050      260.365      141.070        0.078        0.050       23.533        8.917        0.144      339.446       12.784      871.632
01/05/2015  16:31:00        2.382       -8.064        2.544        9.520        9.632       14.182       90.628       92.770      201.133        0.023        0.019        8.408        6.847        0.663      339.454       12.799      871.646
01/05/2015  16:32:00        9.318       -5.630        1.618       20.236       13.050        8.110      409.486      170.307       65.776        0.038        0.032       10.887        9.377        0.742      339.494       12.867      871.655
01/05/2015  16:33:00       40.682       21.450        4.743        8.477        7.939       11.330       71.864       63.035      128.378        0.120        0.013       45.991        4.338        0.009      339.382       12.680      871.663
01/05/2015  16:34:00       41.203       17.362       -1.888       24.938       18.062       12.843      621.923      326.249      164.946        0.156        0.056       44.712        8.340        0.035      339.321       12.574      871.660
01/05/2015  16:35:00       50.580       32.888        3.374       22.508       18.399       16.441      506.609      338.530      270.308        0.238        0.056       60.332        8.288        0.019      339.243       12.442      871.666
01/05/2015  16:36:00       30.838       26.451       -9.674       20.481       23.065       19.152      419.483      532.003      366.814        0.153        0.066       40.628       12.724        0.098      339.196       12.363      871.673
01/05/2015  16:37:00       21.782       30.190        1.596       24.658       21.487       19.698      608.025      461.672      388.026        0.142        0.073       37.227       19.048        0.262      339.190       12.353      871.694
01/05/2015  16:38:00       50.820       40.089       -9.728       23.199       29.480       25.086      538.186      869.081      629.318        0.316        0.102       64.729       20.629        0.102      339.205       12.377      871.714
01/05/2015  16:39:00       48.622       36.582       -4.920       32.021       23.763       21.261     1025.344      564.670      452.034        0.288        0.102       60.847       12.530        0.042      339.221       12.406      871.748
01/05/2015  16:40:00       26.137       28.987       -1.324       36.352       21.590       22.677     1321.498      466.149      514.252        0.191        0.115       39.031       19.474        0.249      339.211       12.389      871.766
01/05/2015  16:41:00       41.998       32.051       10.733       37.170       22.544       24.352     1381.585      508.210      593.018        0.269        0.124       52.831       19.209        0.132      339.209       12.386      871.767
01/05/2015  16:42:00       38.943       32.032        4.751       45.523       20.448       20.888     2072.332      418.117      436.304        0.275        0.146       50.424       17.818        0.125      339.210       12.386      871.775
01/05/2015  16:43:00       24.455       34.072       -2.838       26.901       30.310       22.388      723.676      918.688      501.224        0.195        0.107       41.940       19.221        0.210      339.189       12.352      871.782
01/05/2015  16:44:00       27.381       33.333       -0.964       23.505       33.335       20.907      552.501     1111.228      437.104        0.198        0.105       43.137       22.367        0.269      339.214       12.394      871.790
01/05/2015  16:45:00       18.590       40.053       -4.290       16.442       31.236       17.675      270.330      975.696      312.407        0.176        0.078       44.157       16.424        0.138      339.233       12.425      871.789
01/05/2015  16:46:00       26.963       53.333      -15.376       20.828       25.385       16.480      433.790      644.380      271.577        0.258        0.067       59.762       14.832        0.062      339.171       12.322      871.790
01/05/2015  16:47:00       30.641       73.803      -17.247       25.688       29.204       14.967      659.865      852.845      224.019        0.421        0.087       79.911       13.388        0.028      339.154       12.293      871.798
01/05/2015  16:48:00       30.123       93.137      -20.837       18.789       26.245       11.304      353.017      688.801      127.772        0.559        0.058       97.887       11.151        0.013      339.151       12.289      871.797
01/05/2015  16:49:00       25.256       49.080      -10.446       21.245       29.017       14.534      451.351      841.972      211.229        0.233        0.075       55.197       14.459        0.069      339.088       12.182      871.790
01/05/2015  16:50:00       17.958       53.158      -14.113       17.573       19.861       14.517      308.793      394.461      210.731        0.213        0.046       56.109       10.451        0.035      339.095       12.193      871.778
01/05/2015  16:51:00        8.837       56.212      -13.424       13.588       20.746       10.133      184.632      430.417      102.672        0.207        0.036       56.903        9.576        0.028      339.146       12.278      871.782
01/05/2015  16:52:00       -3.249       23.704      -12.968       12.837       13.618        6.564      164.780      185.442       43.082        0.057        0.020       23.925        3.956        0.027      339.107       12.215      871.789
01/05/2015  16:53:00       15.802       32.522       -8.066       14.324       14.859       10.030      205.186      220.788      100.598        0.095        0.026       36.158        7.916        0.048      339.115       12.228      871.798
01/05/2015  16:54:00       11.828       24.325       -6.752       13.156       22.901       16.828      173.088      524.469      283.168        0.088        0.049       27.049       16.412        0.368      339.002       12.037      871.822
01/05/2015  16:55:00       14.632       38.773      -12.420       14.618       17.358       11.319      213.695      301.301      128.116        0.126        0.032       41.442        9.265        0.050      339.010       12.051      871.860
01/05/2015  16:56:00       18.848       59.806      -11.512       20.181       17.523       13.270      407.260      307.042      176.086        0.248        0.045       62.706        8.903        0.020      339.016       12.062      871.881
01/05/2015  16:57:00        0.764       75.307      -17.419       14.739       13.768        7.352      217.243      189.567       54.057        0.322        0.023       75.311        6.587        0.008      339.050       12.116      871.905
01/05/2015  16:58:00      -10.582       77.804      -18.873       11.926       12.804        8.374      142.241      163.948       70.122        0.345        0.019       78.520        4.447        0.003      339.048       12.114      871.925
01/05/2015  16:59:00      -38.486       12.257       -2.404       30.421       36.303       14.086      925.430     1317.941      198.403        0.204        0.122       40.391       15.269        0.143      338.468       11.141      871.933
01/05/2015  17:00:00      -39.563      -17.938       -6.880       58.674       30.089       15.718     3442.652      905.369      247.041        0.326        0.230       43.440       26.210        0.364      338.355       10.951      871.949
01/05/2015  17:01:00     -113.564      -11.107      -23.156       61.028       23.150       18.819     3724.370      535.918      354.139        0.908        0.231      114.106       20.072        0.031      338.116       10.549      871.957
01/05/2015  17:02:00      -54.340       -3.757       -3.074       54.421       32.848       22.217     2961.682     1078.970      493.578        0.375        0.227       54.469       23.890        0.192      338.185       10.665      871.955
01/05/2015  17:03:00      -51.158      -11.327       -3.242       34.029       30.162       23.215     1157.988      909.743      538.918        0.268        0.130       52.397       11.404        0.047      338.088       10.502      871.967
01/05/2015  17:04:00      -68.540      -29.990       -0.048       40.965       20.725       14.573     1678.158      429.522      212.362        0.396        0.116       74.814       10.561        0.020      337.847       10.096      871.979
01/05/2015  17:05:00      -85.851      -24.977       -8.990       49.639       34.651       22.464     2464.032     1200.680      504.652        0.612        0.208       89.410       21.777        0.059      338.013       10.377      871.979
01/05/2015  17:06:00      -97.297      -46.856      -21.520       19.713       17.805       12.363      388.600      317.036      152.844        0.649        0.043      107.991       10.864        0.010      337.766        9.962      871.991
01/05/2015  17:07:00      -94.134      -42.143      -24.143       10.553       17.285        9.549      111.375      298.763       91.182        0.586        0.025      103.137        1.944        0.000      337.686        9.829      871.994
01/05/2015  17:08:00      -99.406      -24.131      -19.618       18.172       18.218       15.196      330.205      331.907      230.919        0.587        0.045      102.293       15.106        0.022      337.719        9.885      871.989
01/05/2015  17:09:00     -121.965      -34.902      -16.586       33.820       17.683       15.729     1143.801      312.693      247.389        0.904        0.085      126.860       14.740        0.014      337.823       10.057      871.996
01/05/2015  17:10:00     -159.637      -21.665      -25.411       15.831       18.180       18.085      250.609      330.530      327.085        1.375        0.045      161.101        6.250        0.002      337.870       10.137      871.987
01/05/2015  17:11:00     -169.949      -24.551      -35.157       17.759       14.190       12.770      315.372      201.369      163.074        1.570        0.034      171.713        5.532        0.001      338.040       10.422      871.985
01/05/2015  17:12:00     -164.793      -30.771      -31.543       20.984       18.719       12.674      440.330      350.413      160.642        1.502        0.048      167.641        8.439        0.003      337.715        9.877      871.984
01/05/2015  17:13:00     -149.215      -45.679      -15.798       28.854       19.262       16.065      832.572      371.013      258.069        1.303        0.073      156.050       16.720        0.011      337.599        9.683      871.970
01/05/2015  17:14:00     -121.429      -46.771      -16.663       25.399       19.494       14.149      645.121      380.033      200.208        0.922        0.061      130.126        4.170        0.001      337.484        9.488      871.977
01/05/2015  17:15:00     -128.046      -39.997      -22.465       29.151       19.422       17.333      849.793      377.233      300.429        1.001        0.076      134.148       19.011        0.020      337.432        9.402      871.967
01/05/2015  17:16:00     -143.598      -27.285      -21.933       13.270       16.981       12.544      176.080      288.341      157.362        1.123        0.031      146.167        5.698        0.002      337.296        9.176      871.953
01/05/2015  17:17:00      -85.147      -21.353      -18.577       69.857       41.572       19.373     4879.966     1728.196      375.328        0.752        0.349       87.784       21.669        0.061      337.516        9.543      871.940
01/05/2015  17:18:00       13.818      -20.789       11.093       21.800       29.316       21.722      475.259      859.403      471.856        0.128        0.090       24.963       11.108        0.198      337.396        9.342      871.945
01/05/2015  17:19:00        2.054        2.127        0.820       38.472       41.066       28.580     1480.104     1686.418      816.835        0.200        0.199        2.956       17.879       36.569      337.694        9.841      871.952
01/05/2015  17:20:00      -18.538       -8.209       16.099       35.312       41.689       33.749     1246.931     1737.955     1139.027        0.240        0.206       20.274       28.482        1.974      337.666        9.795      871.960
01/05/2015  17:21:00      -77.085      -45.596        2.613       62.350       43.245       29.388     3887.537     1870.109      863.682        0.732        0.331       89.560       26.479        0.087      337.779        9.984      871.961
01/05/2015  17:22:00     -111.274      -43.390       -1.173       41.326       45.002       23.449     1707.872     2025.190      549.865        0.927        0.214      119.434       19.312        0.026      337.604        9.690      871.967
01/05/2015  17:23:00      -50.586      -41.754       11.190       60.066       26.641       29.829     3607.874      709.721      889.749        0.482        0.260       65.592       35.991        0.301      337.134        8.903      871.964
01/05/2015  17:24:00      -54.484      -47.345        2.975       39.469       29.649       23.007     1557.785      879.092      529.314        0.409        0.148       72.180       12.350        0.029      337.038        8.741      871.971
01/05/2015  17:25:00     -114.270      -37.828      -10.721       40.217       14.147       15.255     1617.443      200.140      232.722        0.833        0.103      120.369       19.352        0.026      337.133        8.901      871.974
01/05/2015  17:26:00     -129.673      -47.621      -10.002       11.811       19.205        8.254      139.509      368.827       68.134        0.988        0.029      138.141        6.779        0.002      337.243        9.087      871.977
01/05/2015  17:27:00     -105.959      -59.313       -6.333       15.469       16.173       11.800      239.295      261.552      139.231        0.771        0.032      121.431        9.123        0.006      337.235        9.073      871.979
01/05/2015  17:28:00     -118.374      -43.526      -12.144        8.161       14.352        9.630       66.608      205.980       92.745        0.821        0.018      126.122        2.503        0.000      337.344        9.254      871.985
01/05/2015  17:29:00     -124.004      -49.836      -10.144       11.393       18.025        9.160      129.797      324.905       83.907        0.925        0.027      133.643        4.355        0.001      337.373        9.302      871.993
01/05/2015  17:30:00     -126.752      -36.174       -5.648       18.731       17.380       16.855      350.856      302.073      284.092        0.917        0.047      131.812        9.956        0.006      337.327        9.226      872.003
01/05/2015  17:31:00     -112.763      -38.826        0.852       26.401       19.885       16.752      697.029      395.417      280.617        0.780        0.069      119.260       14.190        0.014      337.325        9.224      872.017
01/05/2015  17:32:00     -113.862      -22.883       -5.840       49.432       22.745       20.655     2443.527      517.320      426.644        0.845        0.169      116.139       25.056        0.047      337.283        9.153      872.023
01/05/2015  17:33:00     -111.807      -18.239       -5.294       45.081       48.540       27.107     2032.321     2356.124      734.768        0.899        0.256      113.285       23.197        0.042      337.236        9.074      872.033
01/05/2015  17:34:00     -121.755        1.453       -3.787       46.426       32.332       30.111     2155.419     1045.358      906.691        0.947        0.205      121.764       26.874        0.049      337.239        9.081      872.043
01/05/2015  17:35:00      -81.730       -7.387        3.338       51.689       33.479       27.125     2671.804     1120.830      735.789        0.564        0.226       82.063       27.042        0.109      337.088        8.826      872.048
01/05/2015  17:36:00      -95.665      -27.658       -3.105       31.200       30.270       21.198      973.433      916.301      449.337        0.613        0.117       99.583       17.187        0.030      337.005        8.687      872.054
01/05/2015  17:37:00     -127.193      -26.036      -14.243       26.406       21.767       19.648      697.260      473.781      386.031        0.931        0.078      129.830       15.657        0.015      337.047        8.758      872.058
01/05/2015  17:38:00     -127.307      -17.674      -10.486       39.814       26.815       18.279     1585.160      719.053      334.116        0.963        0.132      128.528       17.319        0.018      337.054        8.769      872.074
01/05/2015  17:39:00     -102.328       -2.273        1.572       45.497       31.270       25.613     2069.942      977.841      656.011        0.709        0.185      102.353       26.314        0.066      337.089        8.827      872.090
01/05/2015  17:40:00      -68.832        5.914        2.445       52.533       42.420       27.700     2759.753     1799.423      767.271        0.505        0.266       69.086       28.619        0.172      337.133        8.900      872.096
01/05/2015  17:41:00     -106.013      -12.648      -12.317       32.481       35.463       17.957     1055.047     1257.609      322.469        0.709        0.132      106.764       14.502        0.018      336.856        8.439      872.095
01/05/2015  17:42:00     -108.060      -40.187      -14.083       24.562       30.270       21.076      603.302      916.280      444.208        0.773        0.098      115.290       13.633        0.014      336.720        8.213      872.094
01/05/2015  17:43:00     -126.656      -22.738      -12.846       48.495       32.621       22.356     2351.731     1064.155      499.812        1.032        0.196      128.681       22.531        0.031      336.766        8.288      872.099
01/05/2015  17:44:00     -109.800      -32.679      -19.346       35.623       33.519       24.304     1268.995     1123.517      590.686        0.824        0.149      114.559       12.699        0.012      336.765        8.288      872.095
01/05/2015  17:45:00     -119.743      -47.417      -17.902       47.664       28.791       18.683     2271.842      828.906      349.047        1.018        0.172      128.789       12.234        0.009      336.673        8.134      872.105
01/05/2015  17:46:00     -101.104      -49.424       -5.125       42.477       32.735       27.422     1804.329     1071.585      751.962        0.816        0.181      112.538       20.513        0.033      336.660        8.112      872.129
01/05/2015  17:47:00     -135.540      -73.687      -23.440       31.473       31.491       21.631      990.562      991.682      467.915        1.340        0.123      154.275       11.222        0.005      336.663        8.118      872.144
01/05/2015  17:48:00     -148.456      -55.990      -20.912       27.108       22.300       15.958      734.848      497.283      254.668        1.355        0.074      158.663       10.216        0.004      336.654        8.103      872.159
01/05/2015  17:49:00     -138.099      -48.646      -11.968       23.429       23.933       16.786      548.933      572.771      281.772        1.149        0.070      146.416       14.041        0.009      336.655        8.105      872.177
01/05/2015  17:50:00     -132.051      -31.083      -15.769       34.964       26.975       19.185     1222.466      727.637      368.054        1.048        0.116      135.660       14.389        0.011      336.660        8.112      872.185
01/05/2015  17:51:00     -126.954      -34.350       -2.358       56.361       49.153       27.112     3176.580     2415.988      735.072        1.181        0.316      131.519       28.017        0.045      336.714        8.201      872.202
01/05/2015  17:52:00      -98.267       -6.583       -5.966       58.540       29.406       23.705     3426.927      864.688      561.923        0.729        0.243       98.487       26.270        0.071      336.763        8.284      872.200
01/05/2015  17:53:00     -130.692      -11.958       -8.802       38.914       35.316       22.911     1514.268     1247.243      524.909        1.029        0.164      131.238       16.713        0.016      336.719        8.211      872.205
01/05/2015  17:54:00     -109.168        4.627       -8.004       55.321       43.540       28.386     3060.423     1895.762      805.787        0.888        0.288      109.266       24.061        0.048      336.795        8.337      872.217
01/05/2015  17:55:00      -20.981       -2.565        8.752       20.476       23.854       14.512      419.273      569.032      210.610        0.086        0.060       21.137       12.708        0.361      336.944        8.586      872.239
01/05/2015  17:56:00      -97.251       -0.067      -14.020       24.292       20.424       15.238      590.105      417.155      232.185        0.545        0.062       97.251        9.459        0.009      336.824        8.385      872.267
01/05/2015  17:57:00      -26.837      -21.665       -8.433       27.037       18.794       14.105      731.002      353.220      198.944        0.127        0.064       34.491       10.796        0.098      336.687        8.156      872.279
01/05/2015  17:58:00      -52.783      -20.171       -9.389       19.194       14.513       15.563      368.405      210.631      242.203        0.205        0.041       56.506       13.047        0.053      336.679        8.144      872.278
01/05/2015  17:59:00      -78.187      -31.281      -15.462       20.839       16.041       14.217      434.273      257.323      202.125        0.411        0.045       84.213        6.601        0.006      336.623        8.050      872.275
01/05/2015  18:00:00     -115.262       -9.766      -23.061       18.054       14.078       11.217      325.947      198.178      125.815        0.728        0.032      115.675       10.494        0.008      336.543        7.916      872.272
01/05/2015  18:01:00      -90.479      -21.552      -18.971       22.146       20.183       12.855      490.467      407.370      165.263        0.504        0.053       93.011        9.399        0.010      336.561        7.947      872.275
01/05/2015  18:02:00      -87.614      -22.662      -16.011       18.629       13.739       13.965      347.049      188.754      195.020        0.459        0.037       90.497       10.726        0.014      336.538        7.907      872.267
01/05/2015  18:03:00      -85.689      -15.384      -17.994       13.086       10.981        8.136      171.245      120.593       66.191        0.413        0.018       87.059        4.910        0.003      336.717        8.204      872.276
01/05/2015  18:04:00      -34.809       -9.091      -14.462       14.912       15.156       10.237      222.363      229.696      104.800        0.103        0.028       35.976        7.649        0.045      336.801        8.346      872.273
01/05/2015  18:05:00      -37.158      -12.059       -5.574       16.422        9.228        7.855      269.670       85.155       61.695        0.099        0.021       39.066        5.567        0.020      337.293        9.170      872.278
01/05/2015  18:06:00      -36.564      -25.330       -8.355       13.000       10.828        7.988      169.013      117.237       63.805        0.120        0.018       44.481        3.817        0.007      337.342        9.251      872.280
01/05/2015  18:07:00      -67.900      -38.286      -13.965       16.121       17.300       10.527      259.894      299.284      110.813        0.347        0.033       77.950        7.519        0.009      336.714        8.202      872.292
01/05/2015  18:08:00      -90.938      -23.032      -17.069       15.143       12.203       10.392      229.320      148.912      107.984        0.479        0.024       93.810        7.950        0.007      336.420        7.710      872.308
01/05/2015  18:09:00     -100.370      -23.873      -15.886       21.893       18.116       13.068      479.310      328.181      170.771        0.594        0.049      103.170        8.319        0.007      336.486        7.821      872.332
01/05/2015  18:10:00      -95.582      -20.924      -16.289       23.301       18.055       18.302      542.933      325.966      334.952        0.552        0.060       97.845       17.110        0.031      336.276        7.469      872.347
01/05/2015  18:11:00      -97.577      -12.826      -16.542       12.718       10.446       10.607      161.757      109.125      112.503        0.517        0.019       98.417        4.933        0.003      336.360        7.609      872.366
01/05/2015  18:12:00     -104.546      -10.182      -18.983       18.908       11.954       14.922      357.509      142.906      222.673        0.606        0.036      105.040       10.555        0.010      336.280        7.475      872.395
01/05/2015  18:13:00     -103.432      -11.122      -15.800       17.716       17.889       13.917      313.844      320.033      193.671        0.595        0.041      104.028        9.440        0.008      336.307        7.521      872.410
01/05/2015  18:14:00      -87.964      -16.419      -15.338       18.295       22.266       14.542      334.693      495.772      211.468        0.464        0.052       89.483       12.835        0.021      336.328        7.557      872.432
01/05/2015  18:15:00      -58.830      -28.966       -5.410       25.237       23.582       16.092      636.908      556.109      258.958        0.289        0.073       65.574       14.409        0.048      336.370        7.626      872.438
01/05/2015  18:16:00      -55.376       -5.675        0.314       21.288       23.935       14.837      453.170      572.901      220.139        0.217        0.062       55.666        7.646        0.019      336.240        7.410      872.457
01/05/2015  18:17:00     -103.900        0.024      -15.278       28.536       18.111       19.350      814.302      328.007      374.442        0.627        0.076      103.900       15.049        0.021      336.487        7.821      872.450
01/05/2015  18:18:00     -121.154      -32.839      -21.431       19.219       20.844       13.976      369.364      434.463      195.318        0.861        0.050      125.525       11.613        0.009      336.213        7.364      872.444
01/05/2015  18:19:00     -104.512      -33.074      -18.091       20.444       16.215       13.104      417.940      262.928      171.718        0.660        0.043      109.620       10.560        0.009      336.278        7.473      872.447
01/05/2015  18:20:00      -85.350      -48.971      -14.265       25.265       25.205       13.664      638.332      635.275      186.714        0.567        0.073       98.401       12.337        0.016      336.147        7.253      872.459
01/05/2015  18:21:00      -72.599      -56.027      -10.359       19.407       23.598       18.003      376.615      556.844      324.111        0.489        0.063       91.704        9.610        0.011      336.134        7.231      872.470
01/05/2015  18:22:00      -63.889      -56.773      -22.267       26.139       25.034       14.415      683.260      626.697      207.797        0.466        0.076       85.469       12.778        0.022      336.093        7.164      872.494
01/05/2015  18:23:00      -83.268       -5.398      -12.510       24.962       25.321       16.178      623.121      641.160      261.732        0.432        0.076       83.443       13.268        0.025      336.084        7.146      872.503
01/05/2015  18:24:00     -110.808       -2.509      -19.128       18.134       26.639       13.684      328.828      709.625      187.262        0.694        0.061      110.837        7.552        0.005      336.177        7.305      872.498
01/05/2015  18:25:00      -92.177      -28.669       -8.297       25.138       29.038       15.751      631.913      843.228      248.086        0.555        0.086       96.533       12.196        0.016      336.062        7.111      872.500
01/05/2015  18:26:00      -83.337      -24.852      -19.782       18.965       25.562       13.996      359.681      653.406      195.902        0.458        0.060       86.964       11.542        0.018      336.353        7.596      872.488
01/05/2015  18:27:00      -97.548       -3.567      -11.553       17.342       14.842       13.613      300.743      220.277      185.300        0.518        0.035       97.613        6.097        0.004      336.210        7.359      872.479
01/05/2015  18:28:00      -83.856       -6.394      -22.364       15.031       11.833        9.960      225.919      140.026       99.210        0.402        0.023       84.100        5.884        0.005      336.255        7.435      872.473
01/05/2015  18:29:00      -77.811      -16.087      -14.851       28.368       20.767       11.221      804.761      431.285      125.907        0.395        0.068       79.456       12.884        0.026      336.092        7.162      872.470
01/05/2015  18:30:00      -71.517       -4.547      -19.230       16.064       22.877       10.024      258.038      523.372      100.475        0.319        0.044       71.661       10.979        0.023      336.303        7.514      872.465
01/05/2015  18:31:00      -84.384      -13.127      -17.254       24.357       18.666       14.763      593.250      348.422      217.932        0.437        0.058       85.399       15.041        0.031      336.320        7.543      872.458
01/05/2015  18:32:00     -105.126      -17.036      -18.214       17.699       13.705       10.957      313.255      187.828      120.045        0.615        0.031      106.497        8.971        0.007      336.236        7.402      872.451
01/05/2015  18:33:00      -75.526      -19.726      -16.105       21.251       18.528       17.360      451.590      343.271      301.381        0.372        0.055       78.060        5.820        0.006      336.204        7.349      872.457
01/05/2015  18:34:00      -70.872      -32.874      -13.170       30.332       14.712       13.438      920.047      216.434      180.580        0.380        0.066       78.126        9.959        0.016      336.036        7.067      872.454
01/05/2015  18:35:00      -96.163      -33.143      -13.656       14.430       16.851        9.871      208.214      283.971       97.439        0.556        0.029      101.714        4.349        0.002      336.026        7.050      872.452
01/05/2015  18:36:00      -69.948       -7.481      -12.805       18.173       18.933       10.590      330.247      358.461      112.143        0.296        0.040       70.346        6.123        0.008      336.095        7.166      872.445
01/05/2015  18:37:00      -79.961       -4.446      -19.528       11.702        8.316        9.658      136.933       69.160       93.269        0.355        0.015       80.085        5.107        0.004      336.058        7.105      872.435
01/05/2015  18:38:00      -63.384      -17.950      -10.694       17.227       22.119       10.133      296.768      489.270      102.679        0.267        0.044       65.877        5.890        0.008      336.512        7.863      872.425
01/05/2015  18:39:00      -53.400      -11.011       -5.284       14.967       18.844       13.792      224.023      355.096      190.224        0.188        0.038       54.523       10.883        0.040      336.751        8.264      872.419
01/05/2015  18:40:00      -61.734       -4.718      -14.223       22.396       26.926        9.289      501.578      725.014       86.282        0.267        0.066       61.914        5.842        0.009      336.194        7.331      872.420
01/05/2015  18:41:00      -71.263      -21.313      -13.714       13.027       16.030        9.429      169.704      256.950       88.900        0.312        0.026       74.382        4.491        0.004      336.217        7.370      872.417
01/05/2015  18:42:00      -36.865      -27.571       -5.495       26.309       13.447       13.603      692.160      180.827      185.055        0.160        0.053       46.035        8.102        0.031      336.055        7.100      872.435
01/05/2015  18:43:00      -19.776      -21.005       -9.452       16.180       12.786       10.647      261.797      163.482      113.351        0.073        0.027       28.850        5.167        0.032      336.136        7.234      872.443
01/05/2015  18:44:00      -21.482      -15.003        2.546       11.319       11.216        7.060      128.123      125.805       49.843        0.050        0.015       26.203        5.528        0.045      335.888        6.823      872.448
01/05/2015  18:45:00        5.106      -24.941       -2.417       11.532       11.248        9.576      132.996      126.508       91.697        0.050        0.018       25.458        6.046        0.056      335.920        6.874      872.455
01/05/2015  18:46:00       10.422      -26.679       -2.200       10.051        9.601        6.796      101.028       92.172       46.182        0.053        0.012       28.642        3.587        0.016      335.989        6.989      872.450
01/05/2015  18:47:00      -16.296       -9.158       -5.406        7.164        9.246        4.855       51.316       85.486       23.569        0.027        0.008       18.693        3.494        0.035      336.098        7.172      872.446
01/05/2015  18:48:00      -34.900      -23.658       -4.882       21.391        9.312        7.601      457.563       86.713       57.776        0.120        0.030       42.163        8.173        0.038      335.812        6.695      872.445
01/05/2015  18:49:00      -69.469      -25.240      -16.141       17.453       18.956        9.654      304.615      359.312       93.207        0.324        0.038       73.912        4.338        0.003      335.665        6.449      872.443
01/05/2015  18:50:00      -85.968      -10.889      -16.666       18.597       17.799       14.578      345.847      316.811      212.526        0.433        0.044       86.655       10.381        0.014      335.628        6.388      872.443
01/05/2015  18:51:00      -73.117      -37.549      -11.873       18.857       14.440       12.056      355.594      208.514      145.359        0.380        0.035       82.195        5.754        0.005      335.666        6.453      872.442
01/05/2015  18:52:00      -69.218      -20.583      -16.578       10.698       14.470       11.301      114.449      209.387      127.719        0.297        0.023       72.213        7.594        0.011      335.938        6.904      872.442
01/05/2015  18:53:00      -85.081       -8.908      -13.079       24.900       11.940        8.395      620.018      142.574       70.468        0.416        0.042       85.546        4.161        0.002      335.732        6.563      872.433
01/05/2015  18:54:00      -79.832      -18.650       -8.722       19.292       15.349       12.061      372.197      235.598      145.463        0.378        0.038       81.981        6.661        0.007      335.684        6.482      872.428
01/05/2015  18:55:00      -96.876      -43.820       -9.720       22.565       15.483        9.321      509.163      239.723       86.876        0.612        0.042      106.326        6.377        0.004      335.612        6.363      872.424
01/05/2015  18:56:00     -136.970       -9.465      -22.710       19.503       13.341       13.591      380.356      177.985      184.704        1.005        0.037      137.297       10.410        0.006      335.682        6.478      872.413
01/05/2015  18:57:00     -139.244      -16.064      -17.442       12.664       13.952       12.814      160.374      194.646      164.196        1.024        0.026      140.168        5.862        0.002      335.709        6.525      872.407
01/05/2015  18:58:00     -124.760      -16.948      -10.644       33.273       18.185       18.784     1107.110      330.685      352.852        0.888        0.090      125.905       18.233        0.021      335.584        6.315      872.419
01/05/2015  18:59:00     -136.603      -11.811      -12.957       16.715       15.512       13.761      279.401      240.612      189.374        0.984        0.035      137.113        8.915        0.004      335.509        6.190      872.419
01/05/2015  19:00:00     -144.439      -15.967      -14.825       22.754       14.467       12.538      517.752      209.304      157.214        1.111        0.044      145.319       10.259        0.005      335.494        6.167      872.433
01/05/2015  19:01:00     -128.160      -14.929      -16.171       37.275       21.766       17.104     1389.458      473.753      292.540        0.953        0.108      129.026       17.322        0.018      335.458        6.104      872.444
01/05/2015  19:02:00     -123.398      -27.500      -14.111       15.826       12.857       12.043      250.469      165.299      145.023        0.837        0.028      126.425        6.965        0.003      335.344        5.914      872.454
01/05/2015  19:03:00     -124.640      -56.671       -6.457       24.015       18.407       14.973      576.712      338.802      224.196        0.996        0.057      136.918       10.845        0.006      335.405        6.017      872.477
01/05/2015  19:04:00      -98.332      -28.341       -5.774       32.504       21.698       16.440     1056.529      470.795      270.259        0.615        0.090      102.335       17.228        0.028      335.480        6.141      872.487
01/05/2015  19:05:00      -97.628      -33.085       -3.017       29.325       28.241       16.200      859.984      797.551      262.437        0.628        0.096      103.081       14.845        0.021      335.552        6.261      872.501
01/05/2015  19:06:00     -112.360      -22.922       -2.196       31.931       22.748       14.134     1019.614      517.488      199.774        0.745        0.087      114.675       15.955        0.019      335.539        6.241      872.520
01/05/2015  19:07:00     -113.453       -0.411       -3.182       35.922       24.101       20.218     1290.368      580.880      408.778        0.758        0.114      113.454       20.151        0.032      335.618        6.371      872.531
01/05/2015  19:08:00     -138.175       -1.483      -12.466       17.817       13.106       12.977      317.445      171.773      168.394        0.995        0.033      138.183       10.352        0.006      335.664        6.450      872.545
01/05/2015  19:09:00     -103.502      -35.835       -6.281       20.467       26.429       15.387      418.900      698.495      236.752        0.669        0.068      109.530       14.903        0.019      335.561        6.278      872.555
01/05/2015  19:10:00      -77.604      -40.192       -3.448       33.595       24.814       18.668     1128.633      615.746      348.497        0.487        0.105       87.395       18.632        0.045      335.305        5.850      872.538
01/05/2015  19:11:00      -98.406      -48.132      -12.704       19.743       23.115       15.814      389.792      534.324      250.093        0.667        0.059      109.547        6.020        0.003      335.296        5.835      872.533
01/05/2015  19:12:00      -73.202      -42.148       -4.426       34.976       21.732       19.176     1223.325      472.271      367.736        0.461        0.103       84.469       17.617        0.044      335.239        5.739      872.521
01/05/2015  19:13:00      -93.727      -24.685       -9.045       29.322       30.267       18.097      859.784      916.088      327.509        0.579        0.105       96.923        9.360        0.009      335.261        5.776      872.503
01/05/2015  19:14:00      -83.423        0.423       -5.122       48.096       35.918       24.320     2313.263     1290.101      591.450        0.559        0.210       83.424       22.554        0.073      335.482        6.144      872.496
01/05/2015  19:15:00      -14.030        2.900        6.480       43.483       28.860       26.787     1890.813      832.903      717.525        0.184        0.172       14.326       23.102        2.600      335.637        6.405      872.481
01/05/2015  19:16:00      -44.627       21.475       -1.623       65.539       40.476       38.478     4295.404     1638.269     1480.580        0.493        0.371       49.525       38.605        0.608      336.008        7.022      872.482
01/05/2015  19:17:00      -71.466       21.421        2.318       68.447       47.523       41.918     4684.976     2258.410     1757.078        0.713        0.435       74.607       37.920        0.258      335.861        6.776      872.497
01/05/2015  19:18:00      -86.357        5.176       -4.666       59.166       44.936       36.760     3500.659     2019.245     1351.278        0.719        0.344       86.512       27.160        0.099      335.905        6.850      872.498
01/05/2015  19:19:00      -82.477       -2.733        1.385       53.584       54.495       34.799     2871.214     2969.699     1211.003        0.693        0.353       82.522       29.159        0.125      335.700        6.509      872.520
01/05/2015  19:20:00      -65.808        2.631        9.095       59.417       41.835       28.337     3530.326     1750.161      802.992        0.525        0.304       65.860       30.053        0.208      335.670        6.459      872.532
01/05/2015  19:21:00      -99.484      -17.815       -3.322       68.037       70.591       38.605     4629.047     4983.080     1490.351        1.066        0.555      101.067       35.726        0.125      335.393        5.997      872.534
01/05/2015  19:22:00     -101.548      -52.857       -7.344       50.075       39.543       27.658     2507.484     1563.682      764.963        0.900        0.242      114.481       26.590        0.054      335.172        5.630      872.543
01/05/2015  19:23:00     -128.103      -65.032      -14.358       35.443       40.350       20.218     1256.196     1628.161      408.773        1.207        0.165      143.664       14.629        0.010      335.100        5.511      872.534
01/05/2015  19:24:00      -94.328      -43.928      -11.728       48.547       34.030       24.553     2356.809     1158.025      602.826        0.754        0.206      104.055       18.692        0.032      335.150        5.592      872.536
01/05/2015  19:25:00     -120.178      -51.819      -10.375       34.835       26.924       19.540     1213.508      724.893      381.807        0.978        0.116      130.874       13.368        0.010      335.121        5.545      872.523
01/05/2015  19:26:00     -144.445      -37.269      -18.821       30.425       23.604       16.107      925.674      557.151      259.448        1.217        0.087      149.175       14.892        0.010      335.121        5.545      872.521
01/05/2015  19:27:00     -131.767      -36.419      -10.604       36.315       44.475       23.463     1318.743     1977.997      550.515        1.132        0.192      136.707       16.870        0.015      335.087        5.489      872.518
01/05/2015  19:28:00      -89.015      -38.055        3.438       52.052       36.724       28.148     2709.379     1348.669      792.329        0.712        0.243       96.808       29.367        0.092      335.013        5.366      872.506
01/05/2015  19:29:00      -77.380      -42.323       -7.814       48.012       33.043       18.804     2305.154     1091.842      353.606        0.579        0.188       88.198       21.221        0.058      335.049        5.427      872.518
01/05/2015  19:30:00      -45.853      -32.970       -8.690       30.208       18.746       18.885      912.540      351.403      356.626        0.244        0.081       56.476       14.699        0.068      335.071        5.462      872.507
01/05/2015  19:31:00      -70.537       -4.881      -10.765       31.291       24.201       15.926      979.101      585.694      253.627        0.347        0.091       70.706       13.796        0.038      335.058        5.440      872.504
01/05/2015  19:32:00     -123.518       -8.472      -15.931       29.767       29.378       14.935      886.049      863.089      223.040        0.878        0.099      123.808        6.405        0.003      335.197        5.670      872.509
01/05/2015  19:33:00     -123.323      -22.639      -18.185       44.635       31.481       20.768     1992.263      991.066      431.322        0.973        0.171      125.384       20.800        0.028      335.115        5.536      872.500
01/05/2015  19:34:00     -131.032      -24.758      -13.930       30.384       25.784       20.413      923.185      664.795      416.710        0.999        0.100      133.350       15.648        0.014      335.205        5.686      872.502
01/05/2015  19:35:00     -111.362      -42.770      -17.408       22.799       23.658       19.722      519.780      559.706      388.956        0.800        0.073      119.292       17.245        0.021      335.156        5.602      872.500
01/05/2015  19:36:00     -100.077      -48.930      -10.341       22.775       25.536       17.149      518.680      652.108      294.079        0.699        0.073      111.398       10.626        0.009      335.204        5.681      872.489
01/05/2015  19:37:00     -135.612      -12.538      -18.159       36.449       36.897       26.715     1328.557     1361.368      713.676        1.114        0.170      136.191       23.188        0.029      335.194        5.666      872.483
01/05/2015  19:38:00     -100.566       -5.780      -16.473       38.274       29.706       20.924     1464.915      882.440      437.808        0.660        0.139      100.732       19.674        0.038      335.447        6.086      872.471
01/05/2015  19:39:00     -109.127        9.409      -21.552       43.125       31.270       23.745     1859.737      977.789      563.826        0.793        0.170      109.532       18.571        0.029      335.708        6.522      872.457
01/05/2015  19:40:00      -93.362       -2.229      -17.676       42.341       29.206       19.960     1792.786      853.003      398.419        0.604        0.152       93.388       17.781        0.036      335.556        6.269      872.448
01/05/2015  19:41:00      -92.743        1.436      -20.493       45.442       29.239       24.353     2064.992      854.928      593.072        0.627        0.176       92.754       18.439        0.040      335.735        6.567      872.438
01/05/2015  19:42:00     -107.962      -10.647      -18.481       36.422       29.207       19.438     1326.536      853.071      377.833        0.733        0.128      108.486       16.161        0.022      335.436        6.068      872.425
01/05/2015  19:43:00     -112.697      -24.614      -21.971       18.721       23.425       15.442      350.462      548.747      238.464        0.746        0.057      115.353       10.343        0.008      335.200        5.677      872.420
01/05/2015  19:44:00     -117.904      -12.891      -24.408       18.131       15.744       15.137      328.749      247.877      229.119        0.773        0.040      118.606       11.694        0.010      335.185        5.651      872.405
01/05/2015  19:45:00     -123.008      -11.983      -21.478       19.964       18.995       15.871      398.563      360.792      251.891        0.837        0.051      123.590       14.877        0.014      335.135        5.569      872.413
01/05/2015  19:46:00     -118.237      -25.537      -21.340       19.579       21.314       12.639      383.326      454.289      159.752        0.804        0.050      120.963       10.586        0.008      335.169        5.625      872.433
01/05/2015  19:47:00     -117.295      -23.008      -24.415       19.221       18.292       14.488      369.431      334.592      209.904        0.790        0.046      119.530       13.512        0.013      335.124        5.549      872.447
01/05/2015  19:48:00     -109.725      -45.171      -20.230       27.118       23.479       14.843      735.413      551.254      220.321        0.800        0.075      118.659       12.634        0.011      335.117        5.538      872.469
01/05/2015  19:49:00     -108.307      -39.636      -20.197       30.814       26.947       18.913      949.482      726.161      357.702        0.787        0.102      115.332       10.197        0.008      335.131        5.564      872.477
01/05/2015  19:50:00     -110.930      -48.744      -15.106       15.356       16.179       16.209      235.809      261.757      262.743        0.783        0.038      121.167        9.980        0.007      335.108        5.523      872.493
01/05/2015  19:51:00     -121.717      -34.740      -18.591       11.890       14.603       11.844      141.366      213.252      140.272        0.843        0.025      126.578        7.965        0.004      335.140        5.576      872.519
01/05/2015  19:52:00     -121.125      -14.485      -24.244       10.746       10.657        9.966      115.478      113.576       99.331        0.790        0.016      121.988        7.346        0.004      335.152        5.594      872.517
01/05/2015  19:53:00     -117.535      -28.802      -22.419        9.746       12.400       10.216       94.984      153.767      104.357        0.775        0.018      121.012        6.870        0.003      335.256        5.768      872.525
01/05/2015  19:54:00     -110.814      -30.886      -21.886        9.654       10.642        8.504       93.190      113.248       72.321        0.700        0.014      115.038        5.276        0.002      335.232        5.727      872.524
01/05/2015  19:55:00      -98.737      -42.575      -13.617        7.644       10.429        8.377       58.428      108.757       70.181        0.599        0.012      107.525        2.989        0.001      335.317        5.869      872.513
01/05/2015  19:56:00     -122.330      -32.511      -19.267       13.910       10.680       11.384      193.486      114.061      129.599        0.841        0.022      126.576        8.093        0.004      335.207        5.687      872.498
01/05/2015  19:57:00     -103.831      -23.059      -20.725       18.406       13.670        9.551      338.777      186.876       91.229        0.618        0.031      106.360        6.100        0.003      335.206        5.683      872.497
01/05/2015  19:58:00      -92.670      -27.758      -18.229       17.912       13.561       10.784      320.834      183.909      116.290        0.516        0.031       96.738        7.402        0.006      335.255        5.766      872.487
01/05/2015  19:59:00      -94.043      -18.413      -18.372       14.191        8.766        8.892      201.372       76.849       79.067        0.494        0.018       95.829        5.653        0.003      335.222        5.710      872.479
01/05/2015  20:00:00      -76.179      -26.547      -18.984       11.183       11.639        9.187      125.063      135.475       84.394        0.361        0.017       80.672        7.047        0.008      335.164        5.616      872.496
01/05/2015  20:01:00      -64.383      -19.807      -13.539       15.538       13.239        9.717      241.419      175.259       94.415        0.262        0.026       67.361        8.937        0.018      335.171        5.626      872.502
01/05/2015  20:02:00      -84.604      -28.420      -19.135       14.247        9.245       10.191      202.971       85.471      103.865        0.436        0.020       89.249        7.575        0.007      335.166        5.620      872.509
01/05/2015  20:03:00      -85.783      -28.734      -17.197       13.465       16.721       11.579      181.297      279.583      134.082        0.454        0.030       90.468        9.520        0.011      335.197        5.671      872.520
01/05/2015  20:04:00      -98.035      -37.543      -14.925       16.831       15.744       13.749      283.277      247.880      189.035        0.598        0.036      104.977       10.183        0.009      335.103        5.516      872.530
01/05/2015  20:05:00     -105.205      -28.589      -24.491       12.111       11.005        7.671      146.670      121.104       58.842        0.641        0.016      109.020        4.466        0.002      335.026        5.389      872.526
01/05/2015  20:06:00     -119.560      -20.576      -20.091       22.008       12.934       14.114      484.331      167.288      199.192        0.799        0.043      121.318       12.828        0.011      335.016        5.373      872.526
01/05/2015  20:07:00     -127.651      -22.997      -25.562       10.811       11.320        9.717      116.881      128.153       94.414        0.891        0.017      129.706        7.233        0.003      335.026        5.387      872.524
01/05/2015  20:08:00     -116.556      -37.469      -21.588       10.181       12.640        9.722      103.650      159.766       94.513        0.791        0.018      122.430        7.031        0.003      335.002        5.346      872.532
01/05/2015  20:09:00     -100.408      -37.499      -21.230       16.472       11.232       10.145      271.340      126.164      102.918        0.622        0.025      107.182        9.392        0.008      335.036        5.404      872.533
01/05/2015  20:10:00      -93.891      -38.538      -21.558        9.559       14.004        9.405       91.368      196.101       88.455        0.557        0.019      101.492        7.960        0.006      335.048        5.423      872.546
01/05/2015  20:11:00      -89.453      -29.337      -19.603       18.652       12.976        8.753      347.914      168.376       76.618        0.492        0.030       94.140        5.398        0.003      335.095        5.500      872.564
01/05/2015  20:12:00      -58.064      -63.564      -10.152       18.712       23.776       14.740      350.130      565.319      217.254        0.432        0.057       86.092       13.010        0.023      335.037        5.406      872.594
01/05/2015  20:13:00      -68.847      -61.016       -9.123       21.317       19.251       17.491      454.412      370.589      305.931        0.484        0.057       91.994       12.706        0.019      335.034        5.399      872.603
01/05/2015  20:14:00     -103.682      -54.965      -21.589       12.905       18.207        9.816      166.551      331.488       96.356        0.742        0.030      117.350        7.523        0.004      334.999        5.342      872.598
01/05/2015  20:15:00      -93.157      -57.381      -20.324       14.768       15.727       11.109      218.099      247.342      123.415        0.649        0.029      109.411        8.875        0.007      335.023        5.382      872.592
01/05/2015  20:16:00     -100.448      -51.075      -22.324       14.428       17.321       10.132      208.168      300.004      102.665        0.690        0.031      112.687        6.690        0.004      334.947        5.256      872.596
01/05/2015  20:17:00      -76.932      -52.064      -17.494       21.874       20.024       14.885      478.471      400.977      221.563        0.502        0.055       92.893       11.598        0.016      334.927        5.223      872.604
01/05/2015  20:18:00     -100.006      -38.138      -17.710       18.707       26.386       14.979      349.942      696.242      224.360        0.652        0.064      107.031       11.159        0.011      334.930        5.229      872.603
01/05/2015  20:19:00      -91.401      -23.812      -16.581       19.575       23.457       18.412      383.191      550.226      339.013        0.523        0.064       94.452       12.795        0.018      335.049        5.425      872.608
01/05/2015  20:20:00      -60.399      -36.981      -16.877       30.445       23.552       22.342      926.917      554.708      499.163        0.364        0.099       70.821       20.609        0.085      335.079        5.476      872.606
01/05/2015  20:21:00      -77.542      -51.640      -15.391       24.239       31.026       14.127      587.551      962.612      199.561        0.533        0.087       93.164       10.210        0.012      334.988        5.324      872.614
01/05/2015  20:22:00      -68.491      -52.574      -16.769       26.301       27.649       19.564      691.740      764.480      382.756        0.479        0.092       86.343       12.181        0.020      334.984        5.317      872.613
01/05/2015  20:23:00      -70.629      -52.972      -14.734       18.737       23.511       13.415      351.065      552.764      179.951        0.455        0.054       88.287       10.240        0.013      335.018        5.373      872.609
01/05/2015  20:24:00      -65.658      -29.551      -16.382       14.605       21.164        9.184      213.293      447.921       84.337        0.310        0.037       72.001        9.040        0.016      335.070        5.459      872.619
01/05/2015  20:25:00      -70.656      -26.200       -9.019       27.035       21.589       14.724      730.894      466.070      216.785        0.359        0.071       75.357        8.690        0.013      334.949        5.258      872.622
01/05/2015  20:26:00     -104.390      -22.807      -14.894       30.773       27.119       17.503      946.983      735.448      306.345        0.681        0.099      106.853       12.631        0.014      335.037        5.406      872.631
01/05/2015  20:27:00      -90.738      -15.960      -18.098       19.970       25.021       14.707      398.818      626.032      216.295        0.503        0.062       92.131       10.037        0.012      334.960        5.278      872.633
01/05/2015  20:28:00     -109.612      -20.281      -21.297       24.935       25.791       17.513      621.751      665.194      306.697        0.724        0.080      111.473       12.688        0.013      334.964        5.283      872.630
01/05/2015  20:29:00     -110.878      -31.357      -16.922       25.504       24.688       15.933      650.445      609.511      253.865        0.754        0.076      115.226       12.569        0.012      334.968        5.291      872.636
01/05/2015  20:30:00      -89.618       -2.919      -17.365       30.908       32.264       24.135      955.326     1040.990      582.488        0.546        0.129       89.665       19.468        0.047      335.225        5.719      872.646
01/05/2015  20:31:00     -108.817       -8.714      -21.626       39.125       34.642       29.986     1530.745     1200.050      899.167        0.801        0.181      109.166       24.378        0.050      335.377        5.970      872.662
01/05/2015  20:32:00      -76.517      -17.886      -12.360       30.105       27.981       21.608      906.335      782.939      466.884        0.424        0.108       78.579       18.279        0.054      335.320        5.876      872.675
01/05/2015  20:33:00      -65.257        5.764       -9.558       34.568       39.613       22.622     1194.965     1569.201      511.733        0.383        0.164       65.511       18.551        0.080      335.452        6.095      872.690
01/05/2015  20:34:00      -94.410       16.167      -14.845       33.357       33.798       21.614     1112.694     1142.308      467.172        0.606        0.136       95.785       17.245        0.032      335.629        6.390      872.701
01/05/2015  20:35:00     -101.589       15.963      -14.639       31.312       33.209       25.166      980.442     1102.815      633.344        0.675        0.136      102.836       13.227        0.017      335.641        6.411      872.726
01/05/2015  20:36:00     -123.222      -17.340      -15.664       36.513       30.373       24.658     1333.167      922.511      608.003        0.930        0.143      124.436       22.710        0.033      335.109        5.524      872.733
01/05/2015  20:37:00     -110.599      -38.600      -12.012       35.081       34.289       19.981     1230.658     1175.744      399.238        0.834        0.140      117.142       17.162        0.021      334.959        5.276      872.722
01/05/2015  20:38:00     -124.305      -39.782      -12.059       26.094       25.895       16.464      680.873      670.574      271.071        0.940        0.081      130.515       13.479        0.011      334.918        5.208      872.718
01/05/2015  20:39:00     -119.737      -30.928       -8.782       32.286       30.375       16.995     1042.368      922.651      288.832        0.881        0.113      123.667       14.169        0.013      334.948        5.256      872.728
01/05/2015  20:40:00     -126.871      -27.653      -15.372       16.936       15.405       13.137      286.826      237.307      172.576        0.890        0.035      129.849        9.525        0.005      334.937        5.239      872.726
01/05/2015  20:41:00     -124.948      -24.162      -16.753       13.357       14.541       10.645      178.416      211.454      113.322        0.849        0.025      127.263        6.958        0.003      334.897        5.173      872.728
01/05/2015  20:42:00     -109.241      -18.475      -19.039        9.858       13.207        9.386       97.189      174.431       88.089        0.650        0.018      110.792        4.621        0.002      335.071        5.463      872.744
01/05/2015  20:43:00      -84.697      -15.480      -12.169       17.028       13.644       11.320      289.946      186.162      128.145        0.408        0.030       86.100        8.180        0.009      335.155        5.600      872.759
01/05/2015  20:44:00      -95.603      -22.084      -17.010       15.525       11.787        8.563      241.029      138.931       73.317        0.519        0.023       98.121        5.042        0.003      335.300        5.841      872.764
01/05/2015  20:45:00      -93.234      -27.092      -16.820       17.559       11.368       12.538      308.331      129.224      157.202        0.515        0.030       97.090       11.699        0.015      335.366        5.950      872.763
01/05/2015  20:46:00      -91.552      -29.312      -20.060        7.698        7.462        7.649       59.255       55.680       58.501        0.491        0.009       96.130        4.666        0.002      335.324        5.882      872.758
01/05/2015  20:47:00     -117.866      -31.137      -19.935       20.722       10.322        8.201      429.420      106.544       67.256        0.793        0.030      121.910        7.686        0.004      335.217        5.701      872.739
01/05/2015  20:48:00     -136.828      -36.109      -18.355       15.117       13.959       10.008      228.534      194.853      100.161        1.044        0.026      141.513        9.204        0.004      335.171        5.627      872.721
01/05/2015  20:49:00     -103.098      -21.915       -2.204       30.141       23.543       16.764      908.509      554.289      281.023        0.643        0.087      105.401       17.424        0.027      335.096        5.503      872.713
01/05/2015  20:50:00     -116.997      -34.902      -15.661       23.402       14.776       13.957      547.635      218.323      194.799        0.806        0.048      122.092       14.984        0.015      335.145        5.584      872.725
01/05/2015  20:51:00     -124.195      -26.914      -24.757        7.480        9.859        8.900       55.944       97.200       79.206        0.850        0.012      127.078        4.031        0.001      335.133        5.564      872.734
01/05/2015  20:52:00     -105.992      -23.110      -21.757        8.022       10.212        6.972       64.357      104.287       48.607        0.623        0.011      108.482        4.974        0.002      335.206        5.684      872.737
01/05/2015  20:53:00      -93.776      -31.251      -16.440       13.532       11.056       11.049      183.122      122.229      122.074        0.523        0.021       98.847        9.732        0.010      335.226        5.719      872.736
01/05/2015  20:54:00      -81.553      -32.500      -10.133       19.126       14.389        9.883      365.817      207.038       97.682        0.424        0.034       87.790        8.221        0.009      335.165        5.617      872.733
01/05/2015  20:55:00     -102.932      -43.794      -15.809       25.287       25.425       12.596      639.418      646.448      158.648        0.710        0.072      111.861       14.063        0.016      335.162        5.611      872.731
01/05/2015  20:56:00     -117.587      -28.406      -25.034       18.607       17.604       11.566      346.235      309.889      133.762        0.802        0.039      120.969        7.502        0.004      335.071        5.462      872.724
01/05/2015  20:57:00     -129.392      -42.100      -20.934       23.183       20.481       13.490      537.444      419.490      181.986        1.005        0.057      136.069        8.952        0.004      334.923        5.216      872.721
01/05/2015  20:58:00      -95.259      -45.674      -13.129       26.890       24.528       17.680      723.098      601.621      312.584        0.648        0.082      105.642       10.048        0.009      334.910        5.194      872.726
01/05/2015  20:59:00     -121.569      -38.308      -23.610       27.828       25.049       17.771      774.387      627.474      315.798        0.926        0.086      127.461       11.273        0.008      334.838        5.074      872.742
01/05/2015  21:00:00     -129.229      -21.967      -16.636       36.662       28.343       18.473     1344.075      803.346      341.253        0.997        0.124      131.083       12.877        0.010      334.812        5.031      872.764
01/05/2015  21:01:00      -86.777      -38.610      -25.251       24.147       20.437       12.707      583.075      417.663      161.474        0.541        0.058       94.979        8.900        0.009      334.800        5.012      872.773
01/05/2015  21:02:00     -106.000      -53.721      -21.641       32.937       27.706       16.475     1084.820      767.610      271.415        0.836        0.106      118.836       12.727        0.011      334.764        4.952      872.784
01/05/2015  21:03:00     -133.940      -55.390      -20.662       20.471       20.870       13.097      419.051      435.573      171.519        1.123        0.051      144.941        7.153        0.002      334.726        4.888      872.792
01/05/2015  21:04:00     -160.474      -47.456      -15.638       14.499       15.877        9.829      210.226      252.074       96.615        1.440        0.028      167.344        5.475        0.001      334.799        5.009      872.801
01/05/2015  21:05:00     -153.111      -46.418      -14.541       15.364       14.959       10.042      236.060      223.761      100.845        1.318        0.028      159.993        6.543        0.002      334.730        4.895      872.813
01/05/2015  21:06:00     -141.104      -52.874      -10.885       18.771       19.325       13.494      352.338      373.470      182.087        1.187        0.045      150.685        9.439        0.004      334.771        4.963      872.828
01/05/2015  21:07:00     -122.299      -60.552      -10.246       21.604       19.028       14.822      466.722      362.064      219.704        0.989        0.052      136.468       11.846        0.008      334.721        4.879      872.834
01/05/2015  21:08:00      -99.321      -56.734      -13.284       21.764       27.788       13.800      473.685      772.173      190.444        0.735        0.072      114.383       11.814        0.011      334.648        4.760      872.842
01/05/2015  21:09:00     -119.981      -34.792      -20.181       21.535       25.149       16.849      463.739      632.485      283.883        0.870        0.069      124.924       11.142        0.008      334.542        4.583      872.840
01/05/2015  21:10:00      -49.507      -57.694       -2.979       52.190       21.144       21.520     2723.775      447.085      463.112        0.471        0.182       76.024       28.796        0.143      334.561        4.614      872.845
01/05/2015  21:11:00      -77.588      -46.454       -2.472       42.680       18.546       24.390     1821.607      343.938      594.895        0.547        0.138       90.432       22.081        0.060      334.620        4.712      872.844
01/05/2015  21:12:00     -143.514      -52.045      -13.592       20.613       21.228       18.229      424.881      450.634      332.285        1.235        0.060      152.660       11.828        0.006      334.725        4.888      872.843
01/05/2015  21:13:00     -118.151      -50.381      -13.162       11.650       15.279       10.368      135.722      233.454      107.497        0.857        0.024      128.444        7.153        0.003      334.704        4.850      872.843
01/05/2015  21:14:00      -96.401      -44.542      -11.993       10.012       12.678        8.685      100.244      160.738       75.424        0.588        0.017      106.194        5.190        0.002      334.698        4.840      872.841
01/05/2015  21:15:00      -82.194      -48.261      -12.118        9.514       10.321        9.715       90.520      106.517       94.384        0.476        0.015       95.315        4.948        0.003      334.803        5.018      872.832
01/05/2015  21:16:00      -78.189      -36.739       -7.781       15.000       13.936        9.572      225.008      194.216       91.630        0.402        0.026       86.391        8.554        0.010      334.789        4.994      872.826
01/05/2015  21:17:00     -101.066      -41.859      -16.903        9.951        8.597        8.629       99.029       73.912       74.455        0.625        0.012      109.391        5.638        0.003      334.766        4.954      872.837
01/05/2015  21:18:00      -91.514      -39.245      -14.525       11.737       11.958       10.749      137.758      142.997      115.538        0.526        0.020       99.574        4.632        0.002      334.796        5.005      872.840
01/05/2015  21:19:00      -83.690      -42.354      -12.751       13.223       10.182        7.467      174.861      103.683       55.761        0.465        0.017       93.797        4.534        0.002      334.839        5.077      872.836
01/05/2015  21:20:00      -45.881      -30.646       -4.517       21.179       13.189       13.489      448.569      173.947      181.963        0.193        0.040       55.175        8.671        0.025      334.777        4.974      872.835
01/05/2015  21:21:00      -72.124      -43.853       -4.405       19.288       15.313       10.326      372.021      234.489      106.632        0.393        0.036       84.409        6.801        0.006      334.800        5.013      872.838
01/05/2015  21:22:00      -81.896      -45.252       -4.577       12.180       10.473        8.723      148.357      109.691       76.082        0.455        0.017       93.566        6.802        0.005      334.802        5.014      872.830
01/05/2015  21:23:00      -90.668      -47.470       -9.585        8.747        8.732        8.040       76.514       76.251       64.646        0.539        0.011      102.343        3.925        0.001      334.787        4.992      872.825
01/05/2015  21:24:00      -92.982      -49.835      -10.010       13.898       10.371        9.334      193.152      107.554       87.117        0.581        0.019      105.495        7.134        0.005      334.811        5.030      872.826
01/05/2015  21:25:00      -75.699      -51.433       -7.416       14.329       14.126        9.194      205.320      199.531       84.523        0.446        0.024       91.519        5.744        0.004      334.766        4.954      872.830
01/05/2015  21:26:00      -72.679      -42.600       -6.734        8.506        8.046        8.199       72.344       64.745       67.226        0.367        0.010       84.243        2.823        0.001      334.844        5.085      872.838
01/05/2015  21:27:00      -62.843      -34.371       -9.021       10.412       11.750        6.853      108.401      138.074       46.958        0.275        0.015       71.628        3.691        0.003      334.784        4.985      872.847
01/05/2015  21:28:00      -58.823      -39.287       -4.671       10.876        8.181        8.291      118.287       66.935       68.738        0.264        0.013       70.736        7.514        0.011      334.777        4.973      872.858
01/05/2015  21:29:00      -56.559      -22.339       -4.075       25.056       20.781       12.679      627.792      431.840      160.760        0.247        0.061       60.811        9.410        0.024      334.801        5.014      872.871
01/05/2015  21:30:00      -27.801      -30.568        7.279       19.842       14.831       14.533      393.720      219.973      211.207        0.129        0.041       41.320       12.679        0.094      334.809        5.027      872.880
01/05/2015  21:31:00      -37.413      -16.270       -2.334       17.778       13.145        8.053      316.056      172.802       64.854        0.111        0.028       40.798        8.676        0.045      334.798        5.010      872.890
01/05/2015  21:32:00      -30.938      -27.682        0.855       23.923       21.368        9.555      572.289      456.604       91.306        0.142        0.056       41.515       13.269        0.102      334.704        4.852      872.893
01/05/2015  21:33:00      -74.904      -49.738       -6.510       21.488       17.317       14.261      461.714      299.864      203.365        0.455        0.048       89.914        9.348        0.011      334.587        4.659      872.889
01/05/2015  21:34:00     -129.694      -42.010      -15.446       37.745       17.786       12.898     1424.670      316.343      166.367        1.037        0.095      136.328       14.706        0.012      334.453        4.434      872.880
01/05/2015  21:35:00     -153.217      -73.225      -21.556       28.984       16.055       13.982      840.100      257.767      195.491        1.530        0.065      169.815        6.640        0.002      334.497        4.509      872.863
01/05/2015  21:36:00     -159.286      -47.915      -11.708       21.492       21.623       16.860      461.908      467.553      284.244        1.451        0.061      166.336       12.351        0.006      334.551        4.597      872.852
01/05/2015  21:37:00     -139.410      -83.269      -10.637       33.293       20.428       16.713     1108.433      417.307      279.317        1.414        0.090      162.385       13.605        0.007      334.449        4.430      872.852
01/05/2015  21:38:00     -132.497      -78.977       -6.132       29.118       26.239       17.681      847.877      688.491      312.611        1.284        0.092      154.250       13.697        0.008      334.494        4.503      872.858
01/05/2015  21:39:00     -105.365      -49.150        1.609       48.857       31.258       20.651     2386.991      977.040      426.452        0.865        0.190      116.265       20.810        0.032      334.530        4.564      872.869
01/05/2015  21:40:00     -129.504      -36.336      -11.172       25.586       23.135       16.620      654.651      535.215      276.208        0.984        0.073      134.505       13.140        0.010      334.475        4.472      872.879
01/05/2015  21:41:00     -128.625      -43.238       -0.015       37.215       32.023       21.550     1384.932     1025.441      464.409        1.064        0.144      135.698       11.636        0.007      334.454        4.437      872.891
01/05/2015  21:42:00     -123.620      -67.965        3.057       40.205       32.583       22.130     1616.433     1061.649      489.723        1.154        0.158      141.072       21.223        0.023      334.501        4.514      872.904
01/05/2015  21:43:00     -117.298      -64.222       -4.563       31.906       31.766       16.475     1017.989     1009.108      271.436        1.010        0.115      133.728       13.160        0.010      334.469        4.463      872.902
01/05/2015  21:44:00     -102.893      -59.313       -7.236       27.482       25.153       18.947      755.247      632.677      359.005        0.795        0.087      118.764        8.562        0.005      334.455        4.440      872.900
01/05/2015  21:45:00     -108.883      -43.155       -7.879       14.306       16.571       10.385      204.666      274.602      107.846        0.718        0.029      117.123        5.044        0.002      334.417        4.377      872.886
01/05/2015  21:46:00      -97.409      -40.393       -4.051       22.085       16.318       15.117      487.733      266.262      228.515        0.606        0.049      105.452       10.544        0.010      334.348        4.261      872.880
01/05/2015  21:47:00      -70.185      -41.818       -0.966       21.665       22.220       18.171      469.351      493.732      330.170        0.398        0.065       81.699       14.973        0.034      334.375        4.306      872.863
01/05/2015  21:48:00      -54.523       -8.958        6.757       35.090       28.021       21.378     1231.326      785.192      457.017        0.279        0.124       55.254       19.702        0.127      334.491        4.499      872.845
01/05/2015  21:49:00      -84.233      -20.382       -7.939       40.674       25.936       17.310     1654.357      672.666      299.638        0.510        0.131       86.664       20.728        0.057      334.486        4.489      872.837
01/05/2015  21:50:00      -72.183      -12.716       -0.305       20.512       27.583       18.406      420.745      760.831      338.782        0.345        0.076       73.295       15.723        0.046      334.408        4.360      872.826
01/05/2015  21:51:00      -95.217      -31.723       -7.140       29.341       30.450       16.133      860.894      927.202      260.275        0.609        0.102      100.362       16.679        0.028      334.421        4.381      872.828
01/05/2015  21:52:00      -80.953      -27.925      -12.144       22.568       18.375       14.268      509.323      337.639      203.570        0.427        0.053       85.634        8.498        0.010      334.450        4.430      872.825
01/05/2015  21:53:00      -96.738      -47.413      -11.317       28.136       18.612        9.489      791.628      346.411       90.043        0.648        0.061      107.732        7.198        0.004      334.404        4.354      872.823
01/05/2015  21:54:00      -98.875      -46.221       -3.225       18.510       15.703       13.087      342.603      246.594      171.277        0.634        0.038      109.145       11.962        0.012      334.426        4.391      872.817
01/05/2015  21:55:00     -106.806      -33.584      -10.976       15.698       22.514       13.089      246.427      506.897      171.327        0.679        0.046      111.962        7.269        0.004      334.458        4.445      872.817
01/05/2015  21:56:00      -92.267      -35.585      -15.695       17.100       12.041        9.943      292.411      144.997       98.871        0.528        0.027       98.891        6.898        0.005      334.462        4.453      872.817
01/05/2015  21:57:00      -69.352      -46.536       -0.629       11.036       16.865       10.847      121.799      284.439      117.663        0.375        0.026       83.519        8.085        0.009      334.483        4.487      872.824
01/05/2015  21:58:00      -76.696      -45.199       -3.728       20.275       14.899       12.757      411.076      221.994      162.731        0.437        0.040       89.024       11.143        0.016      334.505        4.521      872.824
01/05/2015  21:59:00      -92.163      -57.346       -7.422       18.275       12.532       10.386      333.975      157.058      107.876        0.622        0.030      108.548        6.555        0.004      334.520        4.546      872.815
01/05/2015  22:00:00     -101.976      -55.110       -7.655       22.431       14.269       10.469      503.149      203.599      109.607        0.716        0.041      115.915        7.354        0.004      334.504        4.520      872.801
01/05/2015  22:01:00     -118.770      -47.501      -13.450       11.043       10.300        7.198      121.939      106.084       51.810        0.841        0.014      127.917        6.027        0.002      334.535        4.571      872.793
01/05/2015  22:02:00      -98.272      -58.823       -7.447       14.947        9.807        9.806      223.404       96.182       96.151        0.679        0.021      114.532        4.132        0.001      334.501        4.514      872.787
01/05/2015  22:03:00     -109.351      -52.514       -9.151       12.619       11.445        9.586      159.232      130.977       91.896        0.759        0.019      121.307        5.241        0.002      334.463        4.452      872.784
01/05/2015  22:04:00      -98.191      -47.537       -6.345       17.213       15.256       13.574      296.284      232.740      184.265        0.633        0.036      109.092       11.373        0.011      334.409        4.364      872.787
01/05/2015  22:05:00     -123.484      -50.977      -12.219        8.829       10.772        7.766       77.955      116.029       60.313        0.913        0.013      133.593        2.537        0.000      334.454        4.439      872.793
01/05/2015  22:06:00     -132.768      -39.495      -13.579       19.012       13.214        7.940      361.437      174.613       63.038        0.999        0.030      138.517        6.594        0.002      334.443        4.420      872.794
01/05/2015  22:07:00     -145.827      -39.309      -17.018       14.511       12.994       13.606      210.560      168.831      185.135        1.183        0.028      151.033        8.329        0.003      334.387        4.327      872.795
01/05/2015  22:08:00     -113.388      -40.391       -8.778       21.326       27.580       14.523      454.804      760.634      210.906        0.800        0.071      120.367       13.126        0.012      334.321        4.218      872.798
01/05/2015  22:09:00     -110.098      -33.198      -15.007       20.016       19.394       15.899      400.639      376.127      252.767        0.724        0.051      114.995       10.586        0.008      334.260        4.117      872.797
01/05/2015  22:10:00     -119.095      -41.746      -14.754       25.649       22.206       12.982      657.864      493.103      168.536        0.873        0.066      126.199       10.160        0.006      334.172        3.970      872.798
01/05/2015  22:11:00     -120.694      -31.662      -13.340       30.187       24.642       13.239      911.272      607.228      175.277        0.872        0.085      124.777       11.007        0.008      334.203        4.021      872.810
01/05/2015  22:12:00      -99.716      -18.722       -9.064       23.779       21.912       15.869      565.423      480.119      251.840        0.584        0.065      101.458       14.061        0.019      334.177        3.978      872.816
01/05/2015  22:13:00      -93.580      -12.315      -17.542       28.320       27.190       19.061      802.047      739.309      363.316        0.556        0.095       94.387       17.231        0.033      334.223        4.054      872.809
01/05/2015  22:14:00      -90.922      -32.335      -10.427       19.691       20.621       15.762      387.717      425.243      248.437        0.524        0.053       96.500       13.684        0.020      334.218        4.045      872.809
01/05/2015  22:15:00      -84.313      -29.627       -9.232       32.502       21.977       15.940     1056.360      483.010      254.096        0.493        0.090       89.367       17.074        0.037      334.228        4.062      872.813
01/05/2015  22:16:00      -89.371      -29.732       -2.215       30.618       22.822       17.997      937.443      520.855      323.895        0.533        0.089       94.186       15.889        0.028      334.176        3.976      872.827
01/05/2015  22:17:00      -91.619      -37.379      -14.795       22.937       23.814       14.072      526.127      567.115      198.021        0.565        0.065       98.951        6.232        0.004      334.114        3.873      872.830
01/05/2015  22:18:00      -79.422      -40.401      -13.389       25.242       22.885       17.767      637.166      523.736      315.664        0.480        0.074       89.107        8.321        0.009      334.099        3.847      872.828
01/05/2015  22:19:00      -77.801      -17.055      -14.693       29.554       24.203       18.393      873.450      585.805      338.315        0.418        0.090       79.648        8.235        0.011      334.190        3.999      872.820
01/05/2015  22:20:00      -45.600      -28.031        2.620       27.323       21.453       16.781      746.523      460.226      281.586        0.218        0.074       53.526       14.170        0.070      334.061        3.786      872.808
01/05/2015  22:21:00      -87.111      -35.649      -17.468       19.172       15.635       12.566      367.570      244.455      157.915        0.497        0.038       94.123        8.610        0.008      334.062        3.787      872.802
01/05/2015  22:22:00     -107.969      -48.342      -23.546       14.954       15.036       13.184      223.635      226.087      173.825        0.759        0.031      118.297        6.427        0.003      334.040        3.749      872.802
01/05/2015  22:23:00      -91.867      -51.990      -22.940       22.168       19.860       16.093      491.438      394.415      258.972        0.641        0.057      105.558        4.244        0.002      334.064        3.791      872.798
01/05/2015  22:24:00     -116.508      -55.653      -20.336       16.758       16.266       11.933      280.845      264.597      142.407        0.889        0.034      129.118        4.409        0.001      334.069        3.798      872.800
01/05/2015  22:25:00     -141.856      -42.754      -25.219       14.261       15.007       10.679      203.376      225.214      114.035        1.156        0.027      148.159        7.877        0.003      334.056        3.775      872.811
01/05/2015  22:26:00     -133.329      -28.736      -15.486       21.712       17.329       13.180      471.428      300.284      173.702        0.989        0.047      136.391        4.951        0.001      334.084        3.824      872.825
01/05/2015  22:27:00     -107.998      -32.564      -13.383       18.280       18.789       14.509      334.142      353.028      210.519        0.690        0.045      112.800        8.857        0.006      334.061        3.784      872.836
01/05/2015  22:28:00      -99.881      -22.385       -6.982       29.579       24.020       18.991      874.939      576.976      360.674        0.617        0.091      102.359       10.480        0.010      334.065        3.791      872.847
01/05/2015  22:29:00      -83.339        1.009       -2.177       56.539       35.456       28.931     3196.622     1257.163      836.980        0.612        0.265       83.345       31.436        0.142      334.288        4.162      872.861
01/05/2015  22:30:00      -36.186        3.723        1.799       37.503       33.753       22.990     1406.474     1139.258      528.563        0.220        0.154       36.377       26.885        0.546      334.369        4.297      872.887
01/05/2015  22:31:00      -31.801        3.541       -6.996       32.680       31.712       19.614     1067.973     1005.645      384.700        0.177        0.123       31.998       12.743        0.159      334.366        4.291      872.911
01/05/2015  22:32:00      -55.441      -11.200        1.381       39.794       37.649       18.465     1583.571     1417.463      340.956        0.327        0.167       56.561       18.655        0.109      334.152        3.936      872.918
01/05/2015  22:33:00      -77.256       -3.122       -8.487       32.846       25.878       16.817     1078.860      669.681      282.817        0.404        0.102       77.320       13.436        0.030      334.120        3.883      872.918
01/05/2015  22:34:00      -97.306      -10.048       -9.331       35.300       21.408       18.589     1246.088      458.321      345.535        0.585        0.102       97.823       18.542        0.036      334.092        3.837      872.918
01/05/2015  22:35:00      -96.285       -8.536      -13.656       27.647       19.827       15.747      764.355      393.123      247.968        0.547        0.070       96.662       15.469        0.026      334.189        3.998      872.911
01/05/2015  22:36:00      -89.488      -31.936      -15.191       19.222       21.434       14.220      369.503      459.428      202.215        0.514        0.052       95.016       14.550        0.023      334.102        3.853      872.892
01/05/2015  22:37:00      -90.182      -33.477      -14.117       15.850       18.553       14.262      251.209      344.202      203.412        0.513        0.040       96.195       12.310        0.016      334.206        4.026      872.880
01/05/2015  22:38:00      -53.496      -28.890      -10.310       19.353       15.436       15.004      374.549      238.267      225.116        0.232        0.042       60.799       12.671        0.043      334.281        4.149      872.867
01/05/2015  22:39:00      -63.860      -40.815       -4.850       21.634       15.600       17.547      468.045      243.371      307.907        0.339        0.051       75.789       13.544        0.032      334.194        4.007      872.853
01/05/2015  22:40:00      -82.067      -33.830      -12.931       19.622       16.309       12.262      385.005      265.972      150.358        0.442        0.040       88.767       12.412        0.020      334.133        3.903      872.856
01/05/2015  22:41:00      -68.758      -33.402       -9.627       16.530       13.111       10.900      273.231      171.891      118.816        0.325        0.028       76.442        7.962        0.011      334.145        3.925      872.861
01/05/2015  22:42:00      -76.552      -22.890      -16.697       13.374       13.103        9.747      178.868      171.687       95.001        0.355        0.022       79.901        7.863        0.010      334.136        3.910      872.852
01/05/2015  22:43:00      -74.135      -26.070      -15.619       13.245       15.531        9.795      175.418      241.214       95.946        0.347        0.026       78.585       10.360        0.017      334.262        4.118      872.845
01/05/2015  22:44:00      -53.258      -21.732      -10.529       21.896       18.424       15.507      479.428      339.435      240.479        0.224        0.053       57.522       14.210        0.061      334.275        4.140      872.846
01/05/2015  22:45:00      -18.391      -19.862       -4.542       23.313       14.791       13.239      543.484      218.785      175.263        0.085        0.047       27.068       13.193        0.238      334.214        4.039      872.861
01/05/2015  22:46:00      -16.344      -11.378       -6.905       13.748       17.334       10.410      189.013      300.476      108.376        0.052        0.030       19.915       10.418        0.274      334.247        4.094      872.876
01/05/2015  22:47:00      -36.346      -42.627       -9.232       13.531       11.901        9.913      183.078      141.634       98.263        0.182        0.021       56.019        7.439        0.018      334.287        4.160      872.882
01/05/2015  22:48:00      -33.814      -29.250       -9.527       16.667       12.150       12.534      277.783      147.627      157.112        0.134        0.029       44.710        5.795        0.017      334.231        4.067      872.897
01/05/2015  22:49:00      -91.513      -31.505      -11.650       17.542       13.989       10.067      307.723      195.688      101.348        0.505        0.030       96.784        7.612        0.006      334.112        3.869      872.896
01/05/2015  22:50:00     -102.041      -10.216      -20.123       24.438       14.591       13.731      597.234      212.892      188.550        0.596        0.050      102.551       11.835        0.013      334.301        4.185      872.899
01/05/2015  22:51:00     -115.688      -21.640      -21.684       13.176       14.051       13.444      173.610      197.439      180.747        0.744        0.028      117.695        8.526        0.005      334.253        4.104      872.900
01/05/2015  22:52:00      -96.826      -25.253      -16.299       13.094        8.570        7.575      171.465       73.438       57.382        0.529        0.015      100.065        5.226        0.003      334.261        4.118      872.899
01/05/2015  22:53:00     -103.796      -24.704      -16.993       12.778       11.456        8.571      163.267      131.245       73.462        0.602        0.018      106.695        7.812        0.005      334.258        4.112      872.899
01/05/2015  22:54:00     -119.315      -23.963      -23.516        9.497       10.452        6.301       90.193      109.237       39.701        0.780        0.012      121.698        5.088        0.002      334.277        4.145      872.898
01/05/2015  22:55:00     -113.367      -37.848      -19.728       14.271       10.309        8.366      203.670      106.272       69.996        0.753        0.019      119.518        3.690        0.001      334.365        4.291      872.892
01/05/2015  22:56:00     -105.605      -41.879      -13.067        9.524       11.986        7.801       90.709      143.663       60.855        0.669        0.015      113.605        5.055        0.002      334.338        4.246      872.894
01/05/2015  22:57:00     -110.294      -44.746      -12.369       12.917       14.354        9.888      166.847      206.041       97.780        0.740        0.024      119.025        4.840        0.002      334.331        4.233      872.892
01/05/2015  22:58:00      -94.637      -50.827       -1.616       23.306       19.885       15.404      543.164      395.423      237.284        0.636        0.059      107.422       12.779        0.014      334.234        4.074      872.907
01/05/2015  22:59:00     -118.345      -65.753       -8.498       27.797       21.848       13.699      772.678      477.351      187.675        0.992        0.072      135.385        6.815        0.003      334.155        3.941      872.930
01/05/2015  23:00:00     -104.967      -76.881       -8.155       33.603       21.726       20.576     1129.135      472.039      423.375        0.951        0.101      130.111        9.848        0.006      334.071        3.802      872.938
01/05/2015  23:01:00     -131.755      -68.366      -12.569       19.482       21.167       19.658      379.537      448.046      386.453        1.170        0.061      148.436        9.980        0.005      334.067        3.796      872.945
01/05/2015  23:02:00     -152.039      -70.827       -7.963       26.111       22.240       18.843      681.765      494.611      355.047        1.486        0.077      167.727       16.929        0.010      333.981        3.652      872.943
01/05/2015  23:03:00     -139.234      -76.655       -3.775       29.178       28.190       20.799      851.341      794.683      432.586        1.368        0.104      158.940       21.507        0.018      333.971        3.635      872.941
01/05/2015  23:04:00     -107.986      -58.761        3.559       42.248       32.375       25.543     1784.884     1048.150      652.462        0.931        0.174      122.938       22.189        0.033      333.987        3.663      872.938
01/05/2015  23:05:00     -103.759      -61.215       -1.062       42.347       26.760       19.493     1793.227      716.095      379.986        0.870        0.144      120.471       18.832        0.024      334.045        3.759      872.934
01/05/2015  23:06:00     -113.917      -53.368      -14.464       19.930       23.224       16.316      397.201      539.375      266.205        0.862        0.060      125.798        8.364        0.004      334.023        3.723      872.924
01/05/2015  23:07:00     -116.427      -41.298      -15.351       19.467       18.844       14.801      378.974      355.096      219.066        0.822        0.048      123.534       10.849        0.008      333.999        3.684      872.913
01/05/2015  23:08:00     -100.585      -46.565      -13.317       18.153       11.772        8.932      329.544      138.575       79.772        0.651        0.027      110.840        5.428        0.002      334.016        3.711      872.913
01/05/2015  23:09:00     -103.159      -43.648      -12.960       16.222       12.106        8.449      263.144      146.544       71.377        0.660        0.024      112.013        4.454        0.002      334.019        3.715      872.923
01/05/2015  23:10:00     -112.408      -38.710      -11.991       17.664       14.294        7.811      312.005      204.319       61.006        0.743        0.029      118.886        2.432        0.000      333.986        3.660      872.931
01/05/2015  23:11:00     -122.643      -59.102      -12.503       14.924        9.299        9.184      222.730       86.465       84.350        0.954        0.020      136.141        6.208        0.002      333.997        3.679      872.946
01/05/2015  23:12:00      -89.138      -33.782       -3.069       39.545       39.443       20.190     1563.789     1555.777      407.653        0.631        0.176       95.324       18.593        0.038      334.118        3.882      872.952
01/05/2015  23:13:00      -28.221       -6.144        6.558       37.579       28.444       24.328     1412.196      809.073      591.835        0.184        0.141       28.882       24.120        0.697      334.181        3.984      872.961
01/05/2015  23:14:00      -63.779      -14.824       -3.645       28.249       24.922       16.839      797.995      621.089      283.554        0.300        0.085       65.479       10.955        0.028      334.174        3.972      872.982
01/05/2015  23:15:00      -49.860      -16.249      -11.379       35.590       29.256       15.499     1266.652      855.892      240.214        0.262        0.118       52.441       11.111        0.045      334.162        3.953      872.993
01/05/2015  23:16:00      -57.094      -30.335       -5.284       21.184       27.488       13.685      448.744      755.602      187.271        0.280        0.070       64.652       11.252        0.030      334.107        3.862      873.003
01/05/2015  23:17:00      -72.335      -36.631      -10.951       24.668       18.663       12.959      608.515      348.289      167.934        0.391        0.056       81.081        9.637        0.014      334.087        3.827      873.005
01/05/2015  23:18:00      -51.536      -49.561       -5.700       19.893       21.173       18.998      395.719      448.285      360.917        0.317        0.060       71.500        6.550        0.008      334.067        3.794      873.005
01/05/2015  23:19:00      -77.574      -41.399      -19.372       26.746       23.393       16.945      715.328      547.227      287.128        0.483        0.077       87.930       17.893        0.041      334.047        3.762      872.995
01/05/2015  23:20:00      -83.126      -20.584      -17.275       12.283       13.576       10.883      150.867      184.302      118.431        0.404        0.023       85.637        9.066        0.011      334.101        3.851      872.989
01/05/2015  23:21:00      -76.302      -22.108      -16.497       25.660       22.592       14.725      658.457      510.385      216.816        0.398        0.069       79.440       16.784        0.045      334.060        3.783      872.993
01/05/2015  23:22:00      -99.841      -50.869      -16.951       19.757       28.479       14.174      390.353      811.037      200.889        0.712        0.070      112.053       15.762        0.020      334.015        3.710      872.997
01/05/2015  23:23:00      -94.804      -60.417      -13.513       16.765       19.187       12.752      281.074      368.130      162.618        0.682        0.041      112.419        8.407        0.006      334.048        3.764      872.998
01/05/2015  23:24:00      -91.705      -50.894      -12.349       14.988       18.459       13.865      224.648      340.728      192.241        0.595        0.038      104.881       11.803        0.013      334.065        3.792      872.999
01/05/2015  23:25:00      -68.720      -49.181      -10.376       17.359       21.745       15.633      301.351      472.843      244.395        0.413        0.051       84.506       11.042        0.017      334.060        3.784      872.992
01/05/2015  23:26:00     -104.293      -12.142      -12.390       33.763       26.272       17.534     1139.956      690.192      307.437        0.666        0.107      104.998       19.690        0.035      334.067        3.796      872.990
01/05/2015  23:27:00      -92.014      -12.743      -15.704       21.160       26.933       15.408      447.735      725.376      237.399        0.514        0.071       92.892        8.143        0.008      334.067        3.796      872.987
01/05/2015  23:28:00      -66.883       -5.919      -10.776       32.822       24.172       14.691     1077.287      584.290      215.816        0.325        0.094       67.144       12.952        0.037      334.270        4.132      872.983
01/05/2015  23:29:00      -92.471      -16.699      -16.654       33.419       31.347       19.462     1116.858      982.627      378.773        0.579        0.124       93.967       19.111        0.041      334.287        4.160      872.983
01/05/2015  23:30:00      -83.942      -19.921       -9.502       30.496       25.312       14.059      930.010      640.699      197.660        0.465        0.088       86.273       12.424        0.021      334.126        3.893      872.995
01/05/2015  23:31:00      -52.613      -16.310       -2.143       35.621       25.086       17.856     1268.831      629.295      318.832        0.263        0.111       55.083       16.184        0.086      334.044        3.758      873.002
01/05/2015  23:32:00      -30.806        5.425       -3.611       38.488       23.780       20.639     1481.324      565.490      425.988        0.173        0.124       31.280       18.709        0.358      334.206        4.026      873.004
01/05/2015  23:33:00      -53.569       -7.865       -4.459       35.736       29.051       18.216     1277.070      843.944      331.824        0.270        0.123       54.143       16.218        0.090      334.205        4.024      873.000
01/05/2015  23:34:00      -79.708      -11.692      -11.530       28.474       16.803       17.096      810.750      282.355      292.272        0.400        0.069       80.561       14.535        0.033      334.149        3.932      872.987
01/05/2015  23:35:00      -82.709      -16.286      -10.823       16.975       14.369       10.403      288.135      206.456      108.232        0.391        0.030       84.297        7.799        0.009      334.072        3.802      872.990
01/05/2015  23:36:00      -71.672      -20.235      -17.825       14.625       14.358        9.414      213.891      206.160       88.628        0.319        0.025       74.474        8.321        0.012      334.122        3.886      873.001
01/05/2015  23:37:00      -84.950      -14.646      -17.370       11.144       11.690        9.776      124.199      136.666       95.579        0.404        0.018       86.204        5.845        0.005      334.048        3.764      873.012
01/05/2015  23:38:00      -88.421      -30.741      -14.457       19.541       16.901       10.710      381.862      285.656      114.699        0.488        0.039       93.613        7.175        0.006      334.030        3.734      873.024
01/05/2015  23:39:00      -85.926      -35.984      -18.599       18.167       18.647       11.622      330.055      347.714      135.080        0.492        0.041       93.156        8.016        0.007      334.077        3.813      873.043
01/05/2015  23:40:00      -99.177      -31.047      -14.712       16.602       23.878       17.476      275.631      570.163      305.411        0.608        0.058      103.923       12.726        0.015      334.032        3.737      873.058
01/05/2015  23:41:00      -69.561      -21.124      -17.804       15.527       15.579        8.850      241.081      242.704       78.328        0.308        0.028       72.697        3.667        0.003      334.052        3.769      873.061
01/05/2015  23:42:00      -69.741      -36.312      -17.247       17.802       14.885       13.900      316.912      221.575      193.218        0.361        0.037       78.628        7.075        0.008      334.095        3.841      873.065
01/05/2015  23:43:00     -107.371       -2.783      -22.029       15.347       18.141       11.383      235.520      329.079      129.569        0.636        0.035      107.407        7.952        0.005      334.238        4.080      873.070
01/05/2015  23:44:00      -86.404       15.567      -13.309       28.915       17.443       14.657      836.068      304.270      214.831        0.462        0.068       87.795        9.946        0.013      334.463        4.452      873.068
01/05/2015  23:45:00      -72.627      -23.544       -7.024       18.868       18.611       11.715      356.004      346.380      137.253        0.336        0.042       76.348       11.220        0.022      334.288        4.161      873.058
01/05/2015  23:46:00      -72.113      -15.469      -18.402       16.756       10.924        7.316      280.765      119.341       53.526        0.312        0.023       73.753        3.906        0.003      334.448        4.429      873.042
01/05/2015  23:47:00      -43.036       -8.833      -14.007        8.426        4.658        5.700       71.000       21.701       32.488        0.113        0.006       43.933        2.770        0.004      334.475        4.471      873.028
01/05/2015  23:48:00      -38.546      -21.018       -9.265       12.450       11.996        5.173      154.997      143.900       26.758        0.117        0.016       43.904        3.660        0.007      334.541        4.582      873.017
01/05/2015  23:49:00      -63.482      -38.259      -14.494        9.445       10.130        7.098       89.201      102.614       50.385        0.297        0.012       74.120        4.411        0.004      334.195        4.008      873.017
01/05/2015  23:50:00      -75.287      -17.462      -15.867        8.778       12.840        9.661       77.061      164.877       93.344        0.328        0.017       77.286        6.707        0.008      334.042        3.756      873.011
01/05/2015  23:51:00      -88.405      -21.283      -19.516       25.172       20.421       15.825      633.640      417.035      250.429        0.497        0.065       90.930       17.434        0.037      334.060        3.783      873.001
01/05/2015  23:52:00      -98.925       -0.431      -12.887       22.016       17.056       17.014      484.719      290.918      289.459        0.551        0.053       98.926       14.003        0.020      333.992        3.671      872.991
01/05/2015  23:53:00      -87.024       -0.259      -15.771       14.042        9.626        7.690      197.183       92.669       59.136        0.409        0.017       87.024        4.242        0.002      334.018        3.715      872.982
01/05/2015  23:54:00      -71.779      -18.670      -17.532        8.753       13.786        9.297       76.618      190.045       86.428        0.308        0.018       74.167        7.406        0.010      334.025        3.727      872.976
01/05/2015  23:55:00      -71.761      -21.232      -11.790        8.894       10.805        8.925       79.103      116.745       79.650        0.301        0.014       74.836        6.822        0.008      333.982        3.655      872.974
01/05/2015  23:56:00      -89.132      -18.845      -17.586       18.373       14.238       11.269      337.562      202.717      126.994        0.464        0.033       91.102       12.620        0.019      333.961        3.620      872.975
01/05/2015  23:57:00     -115.760      -23.689      -18.335       17.422       15.237        9.755      303.519      232.174       95.163        0.746        0.032      118.159       10.389        0.008      333.911        3.536      872.968
01/05/2015  23:58:00     -108.157      -24.085      -16.022       18.245       17.214       12.418      332.898      296.315      154.206        0.666        0.039      110.806        9.843        0.008      333.895        3.509      872.963
01/05/2015  23:59:00      -83.236      -44.353       -9.558       19.837       18.814       14.618      393.521      353.954      213.675        0.497        0.048       94.316       11.223        0.014      333.912        3.538      872.951
